<?xml version="1.0" encoding="UTF-8" standalone="no" ?>
<gpx xmlns="http://www.topografix.com/GPX/1/1" xmlns:xsi="http://www.w3.org/2001/XMLSchema-instance" xsi:schemaLocation="http://www.topografix.com/GPX/1/1 http://www.topografix.com/GPX/1/1/gpx.xsd" version="1.1" creator="VisuGPX - https://www.visugpx.com">
  <metadata>
    <name>Valbonne - Puy de Tourrettes</name>
    <desc><![CDATA[Ascension du puy de Tourrettes en VTT depuis Valbonne]]></desc>
  </metadata>
  <trk>
    <name><![CDATA[Track 001]]></name>
    <trkseg>
      <trkpt lat="43.64118" lon="7.00835">
        <ele>232.8</ele>
        <time>2009-06-21T09:05:47Z</time>
      </trkpt>
      <trkpt lat="43.64101" lon="7.00821">
        <ele>232.3</ele>
        <time>2009-06-21T09:06:08Z</time>
      </trkpt>
      <trkpt lat="43.64084" lon="7.00821">
        <ele>228.5</ele>
        <time>2009-06-21T09:06:15Z</time>
      </trkpt>
      <trkpt lat="43.64078" lon="7.00846">
        <ele>226</ele>
        <time>2009-06-21T09:06:22Z</time>
      </trkpt>
      <trkpt lat="43.64074" lon="7.00875">
        <ele>225.1</ele>
        <time>2009-06-21T09:06:29Z</time>
      </trkpt>
      <trkpt lat="43.6407" lon="7.00904">
        <ele>225.1</ele>
        <time>2009-06-21T09:06:36Z</time>
      </trkpt>
      <trkpt lat="43.64057" lon="7.00924">
        <ele>217.4</ele>
        <time>2009-06-21T09:06:42Z</time>
      </trkpt>
      <trkpt lat="43.64047" lon="7.00948">
        <ele>215</ele>
        <time>2009-06-21T09:06:46Z</time>
      </trkpt>
      <trkpt lat="43.64031" lon="7.00974">
        <ele>213.6</ele>
        <time>2009-06-21T09:06:50Z</time>
      </trkpt>
      <trkpt lat="43.64013" lon="7.00995">
        <ele>210.7</ele>
        <time>2009-06-21T09:06:54Z</time>
      </trkpt>
      <trkpt lat="43.63996" lon="7.01018">
        <ele>208.7</ele>
        <time>2009-06-21T09:06:58Z</time>
      </trkpt>
      <trkpt lat="43.63984" lon="7.01038">
        <ele>203.5</ele>
        <time>2009-06-21T09:07:01Z</time>
      </trkpt>
      <trkpt lat="43.63968" lon="7.01063">
        <ele>201.5</ele>
        <time>2009-06-21T09:07:05Z</time>
      </trkpt>
      <trkpt lat="43.63951" lon="7.01089">
        <ele>199.6</ele>
        <time>2009-06-21T09:07:09Z</time>
      </trkpt>
      <trkpt lat="43.63936" lon="7.01111">
        <ele>198.6</ele>
        <time>2009-06-21T09:07:13Z</time>
      </trkpt>
      <trkpt lat="43.63923" lon="7.01131">
        <ele>197.2</ele>
        <time>2009-06-21T09:07:17Z</time>
      </trkpt>
      <trkpt lat="43.63909" lon="7.01151">
        <ele>196.2</ele>
        <time>2009-06-21T09:07:22Z</time>
      </trkpt>
      <trkpt lat="43.63894" lon="7.01177">
        <ele>193.8</ele>
        <time>2009-06-21T09:07:27Z</time>
      </trkpt>
      <trkpt lat="43.63881" lon="7.01199">
        <ele>191.4</ele>
        <time>2009-06-21T09:07:33Z</time>
      </trkpt>
      <trkpt lat="43.63871" lon="7.01222">
        <ele>190</ele>
        <time>2009-06-21T09:07:40Z</time>
      </trkpt>
      <trkpt lat="43.63867" lon="7.01247">
        <ele>190</ele>
        <time>2009-06-21T09:07:48Z</time>
      </trkpt>
      <trkpt lat="43.63871" lon="7.0127">
        <ele>189.5</ele>
        <time>2009-06-21T09:07:57Z</time>
      </trkpt>
      <trkpt lat="43.63878" lon="7.01293">
        <ele>188.1</ele>
        <time>2009-06-21T09:08:06Z</time>
      </trkpt>
      <trkpt lat="43.63887" lon="7.01315">
        <ele>186.2</ele>
        <time>2009-06-21T09:08:16Z</time>
      </trkpt>
      <trkpt lat="43.63894" lon="7.01341">
        <ele>187.6</ele>
        <time>2009-06-21T09:08:26Z</time>
      </trkpt>
      <trkpt lat="43.63894" lon="7.01367">
        <ele>196.2</ele>
        <time>2009-06-21T09:08:35Z</time>
      </trkpt>
      <trkpt lat="43.63899" lon="7.01391">
        <ele>202</ele>
        <time>2009-06-21T09:08:43Z</time>
      </trkpt>
      <trkpt lat="43.63906" lon="7.01414">
        <ele>203.5</ele>
        <time>2009-06-21T09:08:50Z</time>
      </trkpt>
      <trkpt lat="43.63917" lon="7.01436">
        <ele>204.4</ele>
        <time>2009-06-21T09:08:57Z</time>
      </trkpt>
      <trkpt lat="43.63926" lon="7.01457">
        <ele>204.9</ele>
        <time>2009-06-21T09:09:04Z</time>
      </trkpt>
      <trkpt lat="43.63939" lon="7.01479">
        <ele>209.2</ele>
        <time>2009-06-21T09:09:12Z</time>
      </trkpt>
      <trkpt lat="43.6395" lon="7.01501">
        <ele>211.1</ele>
        <time>2009-06-21T09:09:20Z</time>
      </trkpt>
      <trkpt lat="43.63961" lon="7.01524">
        <ele>212.1</ele>
        <time>2009-06-21T09:09:28Z</time>
      </trkpt>
      <trkpt lat="43.63969" lon="7.0155">
        <ele>205.4</ele>
        <time>2009-06-21T09:09:35Z</time>
      </trkpt>
      <trkpt lat="43.63977" lon="7.01576">
        <ele>203.5</ele>
        <time>2009-06-21T09:09:42Z</time>
      </trkpt>
      <trkpt lat="43.63981" lon="7.01603">
        <ele>201.5</ele>
        <time>2009-06-21T09:09:49Z</time>
      </trkpt>
      <trkpt lat="43.63989" lon="7.01626">
        <ele>200.6</ele>
        <time>2009-06-21T09:09:57Z</time>
      </trkpt>
      <trkpt lat="43.63995" lon="7.01651">
        <ele>199.1</ele>
        <time>2009-06-21T09:10:05Z</time>
      </trkpt>
      <trkpt lat="43.64002" lon="7.01676">
        <ele>202.5</ele>
        <time>2009-06-21T09:10:13Z</time>
      </trkpt>
      <trkpt lat="43.64008" lon="7.01704">
        <ele>203</ele>
        <time>2009-06-21T09:10:21Z</time>
      </trkpt>
      <trkpt lat="43.64015" lon="7.01728">
        <ele>205.4</ele>
        <time>2009-06-21T09:10:29Z</time>
      </trkpt>
      <trkpt lat="43.64028" lon="7.0175">
        <ele>209.2</ele>
        <time>2009-06-21T09:10:37Z</time>
      </trkpt>
      <trkpt lat="43.64042" lon="7.01766">
        <ele>213.1</ele>
        <time>2009-06-21T09:10:44Z</time>
      </trkpt>
      <trkpt lat="43.64054" lon="7.01789">
        <ele>213.1</ele>
        <time>2009-06-21T09:10:51Z</time>
      </trkpt>
      <trkpt lat="43.64062" lon="7.01814">
        <ele>213.1</ele>
        <time>2009-06-21T09:10:56Z</time>
      </trkpt>
      <trkpt lat="43.64067" lon="7.0184">
        <ele>214</ele>
        <time>2009-06-21T09:11:00Z</time>
      </trkpt>
      <trkpt lat="43.6407" lon="7.0187">
        <ele>218.4</ele>
        <time>2009-06-21T09:11:04Z</time>
      </trkpt>
      <trkpt lat="43.64076" lon="7.01899">
        <ele>221.7</ele>
        <time>2009-06-21T09:11:08Z</time>
      </trkpt>
      <trkpt lat="43.64086" lon="7.01921">
        <ele>223.2</ele>
        <time>2009-06-21T09:11:12Z</time>
      </trkpt>
      <trkpt lat="43.64099" lon="7.01941">
        <ele>226.5</ele>
        <time>2009-06-21T09:11:16Z</time>
      </trkpt>
      <trkpt lat="43.64112" lon="7.01962">
        <ele>228</ele>
        <time>2009-06-21T09:11:20Z</time>
      </trkpt>
      <trkpt lat="43.64128" lon="7.01978">
        <ele>223.6</ele>
        <time>2009-06-21T09:11:24Z</time>
      </trkpt>
      <trkpt lat="43.64149" lon="7.01979">
        <ele>223.6</ele>
        <time>2009-06-21T09:11:28Z</time>
      </trkpt>
      <trkpt lat="43.64168" lon="7.01978">
        <ele>223.2</ele>
        <time>2009-06-21T09:11:32Z</time>
      </trkpt>
      <trkpt lat="43.64191" lon="7.01977">
        <ele>224.1</ele>
        <time>2009-06-21T09:11:37Z</time>
      </trkpt>
      <trkpt lat="43.64211" lon="7.01979">
        <ele>225.1</ele>
        <time>2009-06-21T09:11:41Z</time>
      </trkpt>
      <trkpt lat="43.64232" lon="7.01985">
        <ele>225.1</ele>
        <time>2009-06-21T09:11:45Z</time>
      </trkpt>
      <trkpt lat="43.64251" lon="7.01991">
        <ele>223.2</ele>
        <time>2009-06-21T09:11:48Z</time>
      </trkpt>
      <trkpt lat="43.64271" lon="7.01999">
        <ele>221.7</ele>
        <time>2009-06-21T09:11:51Z</time>
      </trkpt>
      <trkpt lat="43.64294" lon="7.02003">
        <ele>219.8</ele>
        <time>2009-06-21T09:11:54Z</time>
      </trkpt>
      <trkpt lat="43.64317" lon="7.02005">
        <ele>220.3</ele>
        <time>2009-06-21T09:11:57Z</time>
      </trkpt>
      <trkpt lat="43.64341" lon="7.02007">
        <ele>218.8</ele>
        <time>2009-06-21T09:12:00Z</time>
      </trkpt>
      <trkpt lat="43.64364" lon="7.0201">
        <ele>216.9</ele>
        <time>2009-06-21T09:12:03Z</time>
      </trkpt>
      <trkpt lat="43.64389" lon="7.02013">
        <ele>216</ele>
        <time>2009-06-21T09:12:06Z</time>
      </trkpt>
      <trkpt lat="43.64407" lon="7.02021">
        <ele>213.1</ele>
        <time>2009-06-21T09:12:09Z</time>
      </trkpt>
      <trkpt lat="43.64404" lon="7.02049">
        <ele>213.6</ele>
        <time>2009-06-21T09:12:13Z</time>
      </trkpt>
      <trkpt lat="43.64393" lon="7.02072">
        <ele>213.1</ele>
        <time>2009-06-21T09:12:16Z</time>
      </trkpt>
      <trkpt lat="43.64384" lon="7.02098">
        <ele>213.1</ele>
        <time>2009-06-21T09:12:19Z</time>
      </trkpt>
      <trkpt lat="43.64371" lon="7.02133">
        <ele>212.6</ele>
        <time>2009-06-21T09:12:22Z</time>
      </trkpt>
      <trkpt lat="43.64363" lon="7.02158">
        <ele>212.1</ele>
        <time>2009-06-21T09:12:24Z</time>
      </trkpt>
      <trkpt lat="43.64354" lon="7.02183">
        <ele>211.6</ele>
        <time>2009-06-21T09:12:26Z</time>
      </trkpt>
      <trkpt lat="43.64346" lon="7.02208">
        <ele>211.6</ele>
        <time>2009-06-21T09:12:28Z</time>
      </trkpt>
      <trkpt lat="43.64339" lon="7.02236">
        <ele>211.1</ele>
        <time>2009-06-21T09:12:30Z</time>
      </trkpt>
      <trkpt lat="43.64331" lon="7.02264">
        <ele>211.1</ele>
        <time>2009-06-21T09:12:32Z</time>
      </trkpt>
      <trkpt lat="43.64325" lon="7.02291">
        <ele>211.1</ele>
        <time>2009-06-21T09:12:34Z</time>
      </trkpt>
      <trkpt lat="43.6432" lon="7.02318">
        <ele>209.7</ele>
        <time>2009-06-21T09:12:36Z</time>
      </trkpt>
      <trkpt lat="43.64315" lon="7.02343">
        <ele>209.7</ele>
        <time>2009-06-21T09:12:38Z</time>
      </trkpt>
      <trkpt lat="43.6431" lon="7.02368">
        <ele>210.2</ele>
        <time>2009-06-21T09:12:40Z</time>
      </trkpt>
      <trkpt lat="43.64305" lon="7.02401">
        <ele>211.1</ele>
        <time>2009-06-21T09:12:43Z</time>
      </trkpt>
      <trkpt lat="43.64298" lon="7.0243">
        <ele>212.1</ele>
        <time>2009-06-21T09:12:46Z</time>
      </trkpt>
      <trkpt lat="43.643" lon="7.02463">
        <ele>211.1</ele>
        <time>2009-06-21T09:12:50Z</time>
      </trkpt>
      <trkpt lat="43.64324" lon="7.02472">
        <ele>211.1</ele>
        <time>2009-06-21T09:12:54Z</time>
      </trkpt>
      <trkpt lat="43.64343" lon="7.02474">
        <ele>214.5</ele>
        <time>2009-06-21T09:12:57Z</time>
      </trkpt>
      <trkpt lat="43.64362" lon="7.0249">
        <ele>211.1</ele>
        <time>2009-06-21T09:13:01Z</time>
      </trkpt>
      <trkpt lat="43.6436" lon="7.02523">
        <ele>211.6</ele>
        <time>2009-06-21T09:13:05Z</time>
      </trkpt>
      <trkpt lat="43.64361" lon="7.02556">
        <ele>212.6</ele>
        <time>2009-06-21T09:13:09Z</time>
      </trkpt>
      <trkpt lat="43.64366" lon="7.02582">
        <ele>212.1</ele>
        <time>2009-06-21T09:13:12Z</time>
      </trkpt>
      <trkpt lat="43.64367" lon="7.02614">
        <ele>212.1</ele>
        <time>2009-06-21T09:13:15Z</time>
      </trkpt>
      <trkpt lat="43.64368" lon="7.02645">
        <ele>214</ele>
        <time>2009-06-21T09:13:18Z</time>
      </trkpt>
      <trkpt lat="43.64368" lon="7.02673">
        <ele>216</ele>
        <time>2009-06-21T09:13:21Z</time>
      </trkpt>
      <trkpt lat="43.64371" lon="7.02701">
        <ele>217.4</ele>
        <time>2009-06-21T09:13:24Z</time>
      </trkpt>
      <trkpt lat="43.64372" lon="7.02727">
        <ele>218.4</ele>
        <time>2009-06-21T09:13:27Z</time>
      </trkpt>
      <trkpt lat="43.64374" lon="7.02756">
        <ele>219.3</ele>
        <time>2009-06-21T09:13:31Z</time>
      </trkpt>
      <trkpt lat="43.64377" lon="7.02792">
        <ele>216.9</ele>
        <time>2009-06-21T09:13:36Z</time>
      </trkpt>
      <trkpt lat="43.6438" lon="7.02823">
        <ele>213.6</ele>
        <time>2009-06-21T09:13:40Z</time>
      </trkpt>
      <trkpt lat="43.64381" lon="7.02855">
        <ele>205.9</ele>
        <time>2009-06-21T09:13:43Z</time>
      </trkpt>
      <trkpt lat="43.64388" lon="7.02889">
        <ele>200.6</ele>
        <time>2009-06-21T09:13:46Z</time>
      </trkpt>
      <trkpt lat="43.64401" lon="7.02922">
        <ele>197.2</ele>
        <time>2009-06-21T09:13:49Z</time>
      </trkpt>
      <trkpt lat="43.6441" lon="7.02945">
        <ele>193.8</ele>
        <time>2009-06-21T09:13:51Z</time>
      </trkpt>
      <trkpt lat="43.64419" lon="7.02969">
        <ele>192.4</ele>
        <time>2009-06-21T09:13:53Z</time>
      </trkpt>
      <trkpt lat="43.64431" lon="7.02988">
        <ele>190</ele>
        <time>2009-06-21T09:13:55Z</time>
      </trkpt>
      <trkpt lat="43.64452" lon="7.03005">
        <ele>188.6</ele>
        <time>2009-06-21T09:13:58Z</time>
      </trkpt>
      <trkpt lat="43.64475" lon="7.03012">
        <ele>187.1</ele>
        <time>2009-06-21T09:14:01Z</time>
      </trkpt>
      <trkpt lat="43.64492" lon="7.03023">
        <ele>187.6</ele>
        <time>2009-06-21T09:14:04Z</time>
      </trkpt>
      <trkpt lat="43.64498" lon="7.0305">
        <ele>185.7</ele>
        <time>2009-06-21T09:14:08Z</time>
      </trkpt>
      <trkpt lat="43.64489" lon="7.03047">
        <ele>187.6</ele>
        <time>2009-06-21T09:14:17Z</time>
      </trkpt>
      <trkpt lat="43.64481" lon="7.03074">
        <ele>189</ele>
        <time>2009-06-21T09:14:22Z</time>
      </trkpt>
      <trkpt lat="43.64472" lon="7.03102">
        <ele>191.4</ele>
        <time>2009-06-21T09:14:27Z</time>
      </trkpt>
      <trkpt lat="43.64462" lon="7.03132">
        <ele>196.2</ele>
        <time>2009-06-21T09:14:32Z</time>
      </trkpt>
      <trkpt lat="43.64453" lon="7.0316">
        <ele>197.7</ele>
        <time>2009-06-21T09:14:37Z</time>
      </trkpt>
      <trkpt lat="43.64444" lon="7.03191">
        <ele>198.6</ele>
        <time>2009-06-21T09:14:41Z</time>
      </trkpt>
      <trkpt lat="43.64436" lon="7.03215">
        <ele>196.7</ele>
        <time>2009-06-21T09:14:44Z</time>
      </trkpt>
      <trkpt lat="43.64427" lon="7.03239">
        <ele>199.1</ele>
        <time>2009-06-21T09:14:48Z</time>
      </trkpt>
      <trkpt lat="43.64419" lon="7.03262">
        <ele>202.5</ele>
        <time>2009-06-21T09:14:54Z</time>
      </trkpt>
      <trkpt lat="43.64412" lon="7.03284">
        <ele>206.3</ele>
        <time>2009-06-21T09:15:00Z</time>
      </trkpt>
      <trkpt lat="43.64418" lon="7.03312">
        <ele>200.6</ele>
        <time>2009-06-21T09:15:07Z</time>
      </trkpt>
      <trkpt lat="43.64433" lon="7.03326">
        <ele>202</ele>
        <time>2009-06-21T09:15:15Z</time>
      </trkpt>
      <trkpt lat="43.64447" lon="7.03343">
        <ele>203.9</ele>
        <time>2009-06-21T09:15:23Z</time>
      </trkpt>
      <trkpt lat="43.64463" lon="7.03359">
        <ele>207.8</ele>
        <time>2009-06-21T09:15:31Z</time>
      </trkpt>
      <trkpt lat="43.64478" lon="7.03371">
        <ele>207.8</ele>
        <time>2009-06-21T09:15:38Z</time>
      </trkpt>
      <trkpt lat="43.64494" lon="7.03386">
        <ele>204.9</ele>
        <time>2009-06-21T09:15:44Z</time>
      </trkpt>
      <trkpt lat="43.64511" lon="7.03404">
        <ele>202</ele>
        <time>2009-06-21T09:15:48Z</time>
      </trkpt>
      <trkpt lat="43.64531" lon="7.03419">
        <ele>200.1</ele>
        <time>2009-06-21T09:15:51Z</time>
      </trkpt>
      <trkpt lat="43.64551" lon="7.03437">
        <ele>197.7</ele>
        <time>2009-06-21T09:15:54Z</time>
      </trkpt>
      <trkpt lat="43.64576" lon="7.03456">
        <ele>197.7</ele>
        <time>2009-06-21T09:15:57Z</time>
      </trkpt>
      <trkpt lat="43.64597" lon="7.03474">
        <ele>196.2</ele>
        <time>2009-06-21T09:16:00Z</time>
      </trkpt>
      <trkpt lat="43.64616" lon="7.0349">
        <ele>195.8</ele>
        <time>2009-06-21T09:16:03Z</time>
      </trkpt>
      <trkpt lat="43.64631" lon="7.03504">
        <ele>195.8</ele>
        <time>2009-06-21T09:16:06Z</time>
      </trkpt>
      <trkpt lat="43.6465" lon="7.03514">
        <ele>196.2</ele>
        <time>2009-06-21T09:16:10Z</time>
      </trkpt>
      <trkpt lat="43.64669" lon="7.03526">
        <ele>197.7</ele>
        <time>2009-06-21T09:16:16Z</time>
      </trkpt>
      <trkpt lat="43.64689" lon="7.03534">
        <ele>203.9</ele>
        <time>2009-06-21T09:16:27Z</time>
      </trkpt>
      <trkpt lat="43.64706" lon="7.03544">
        <ele>208.7</ele>
        <time>2009-06-21T09:16:35Z</time>
      </trkpt>
      <trkpt lat="43.64726" lon="7.03556">
        <ele>214</ele>
        <time>2009-06-21T09:16:43Z</time>
      </trkpt>
      <trkpt lat="43.64743" lon="7.03566">
        <ele>217.9</ele>
        <time>2009-06-21T09:16:51Z</time>
      </trkpt>
      <trkpt lat="43.64763" lon="7.03575">
        <ele>221.7</ele>
        <time>2009-06-21T09:16:59Z</time>
      </trkpt>
      <trkpt lat="43.64784" lon="7.03583">
        <ele>221.7</ele>
        <time>2009-06-21T09:17:06Z</time>
      </trkpt>
      <trkpt lat="43.648" lon="7.036">
        <ele>215</ele>
        <time>2009-06-21T09:17:13Z</time>
      </trkpt>
      <trkpt lat="43.64818" lon="7.03607">
        <ele>213.1</ele>
        <time>2009-06-21T09:17:19Z</time>
      </trkpt>
      <trkpt lat="43.6484" lon="7.03612">
        <ele>210.7</ele>
        <time>2009-06-21T09:17:25Z</time>
      </trkpt>
      <trkpt lat="43.6486" lon="7.03618">
        <ele>208.7</ele>
        <time>2009-06-21T09:17:29Z</time>
      </trkpt>
      <trkpt lat="43.64878" lon="7.03624">
        <ele>205.4</ele>
        <time>2009-06-21T09:17:32Z</time>
      </trkpt>
      <trkpt lat="43.64895" lon="7.03631">
        <ele>203</ele>
        <time>2009-06-21T09:17:35Z</time>
      </trkpt>
      <trkpt lat="43.64912" lon="7.03642">
        <ele>200.6</ele>
        <time>2009-06-21T09:17:38Z</time>
      </trkpt>
      <trkpt lat="43.6493" lon="7.03658">
        <ele>198.2</ele>
        <time>2009-06-21T09:17:41Z</time>
      </trkpt>
      <trkpt lat="43.64955" lon="7.03664">
        <ele>197.2</ele>
        <time>2009-06-21T09:17:44Z</time>
      </trkpt>
      <trkpt lat="43.64974" lon="7.03665">
        <ele>193.8</ele>
        <time>2009-06-21T09:17:47Z</time>
      </trkpt>
      <trkpt lat="43.65003" lon="7.03662">
        <ele>191.4</ele>
        <time>2009-06-21T09:17:51Z</time>
      </trkpt>
      <trkpt lat="43.65026" lon="7.03666">
        <ele>185.7</ele>
        <time>2009-06-21T09:17:56Z</time>
      </trkpt>
      <trkpt lat="43.65049" lon="7.03673">
        <ele>182.3</ele>
        <time>2009-06-21T09:18:01Z</time>
      </trkpt>
      <trkpt lat="43.65068" lon="7.0368">
        <ele>178.9</ele>
        <time>2009-06-21T09:18:05Z</time>
      </trkpt>
      <trkpt lat="43.65089" lon="7.03677">
        <ele>174.6</ele>
        <time>2009-06-21T09:18:10Z</time>
      </trkpt>
      <trkpt lat="43.65083" lon="7.03649">
        <ele>172.2</ele>
        <time>2009-06-21T09:18:15Z</time>
      </trkpt>
      <trkpt lat="43.65074" lon="7.03622">
        <ele>169.3</ele>
        <time>2009-06-21T09:18:18Z</time>
      </trkpt>
      <trkpt lat="43.65073" lon="7.03587">
        <ele>166.9</ele>
        <time>2009-06-21T09:18:21Z</time>
      </trkpt>
      <trkpt lat="43.6507" lon="7.03556">
        <ele>166</ele>
        <time>2009-06-21T09:18:24Z</time>
      </trkpt>
      <trkpt lat="43.65073" lon="7.03529">
        <ele>166</ele>
        <time>2009-06-21T09:18:27Z</time>
      </trkpt>
      <trkpt lat="43.65077" lon="7.03501">
        <ele>166</ele>
        <time>2009-06-21T09:18:31Z</time>
      </trkpt>
      <trkpt lat="43.65079" lon="7.0347">
        <ele>165.5</ele>
        <time>2009-06-21T09:18:35Z</time>
      </trkpt>
      <trkpt lat="43.65082" lon="7.03443">
        <ele>165.5</ele>
        <time>2009-06-21T09:18:39Z</time>
      </trkpt>
      <trkpt lat="43.65092" lon="7.03427">
        <ele>167.4</ele>
        <time>2009-06-21T09:18:47Z</time>
      </trkpt>
      <trkpt lat="43.65104" lon="7.03406">
        <ele>167.9</ele>
        <time>2009-06-21T09:18:55Z</time>
      </trkpt>
      <trkpt lat="43.65113" lon="7.03382">
        <ele>168.8</ele>
        <time>2009-06-21T09:19:01Z</time>
      </trkpt>
      <trkpt lat="43.65115" lon="7.03354">
        <ele>169.8</ele>
        <time>2009-06-21T09:19:06Z</time>
      </trkpt>
      <trkpt lat="43.65109" lon="7.03327">
        <ele>172.2</ele>
        <time>2009-06-21T09:19:12Z</time>
      </trkpt>
      <trkpt lat="43.65117" lon="7.03307">
        <ele>174.1</ele>
        <time>2009-06-21T09:19:18Z</time>
      </trkpt>
      <trkpt lat="43.65136" lon="7.03305">
        <ele>175.6</ele>
        <time>2009-06-21T09:19:25Z</time>
      </trkpt>
      <trkpt lat="43.6515" lon="7.03318">
        <ele>179.4</ele>
        <time>2009-06-21T09:19:34Z</time>
      </trkpt>
      <trkpt lat="43.65171" lon="7.03321">
        <ele>183.3</ele>
        <time>2009-06-21T09:19:43Z</time>
      </trkpt>
      <trkpt lat="43.65191" lon="7.03313">
        <ele>185.7</ele>
        <time>2009-06-21T09:19:51Z</time>
      </trkpt>
      <trkpt lat="43.65209" lon="7.03307">
        <ele>186.6</ele>
        <time>2009-06-21T09:19:57Z</time>
      </trkpt>
      <trkpt lat="43.65229" lon="7.03316">
        <ele>185.2</ele>
        <time>2009-06-21T09:20:03Z</time>
      </trkpt>
      <trkpt lat="43.65244" lon="7.03332">
        <ele>183.3</ele>
        <time>2009-06-21T09:20:08Z</time>
      </trkpt>
      <trkpt lat="43.65259" lon="7.03348">
        <ele>182.3</ele>
        <time>2009-06-21T09:20:12Z</time>
      </trkpt>
      <trkpt lat="43.65279" lon="7.03361">
        <ele>181.8</ele>
        <time>2009-06-21T09:20:16Z</time>
      </trkpt>
      <trkpt lat="43.65298" lon="7.03366">
        <ele>180.9</ele>
        <time>2009-06-21T09:20:19Z</time>
      </trkpt>
      <trkpt lat="43.65317" lon="7.03369">
        <ele>180.4</ele>
        <time>2009-06-21T09:20:22Z</time>
      </trkpt>
      <trkpt lat="43.65338" lon="7.03374">
        <ele>179.4</ele>
        <time>2009-06-21T09:20:25Z</time>
      </trkpt>
      <trkpt lat="43.65355" lon="7.03393">
        <ele>176.5</ele>
        <time>2009-06-21T09:20:29Z</time>
      </trkpt>
      <trkpt lat="43.65357" lon="7.03421">
        <ele>175.6</ele>
        <time>2009-06-21T09:20:32Z</time>
      </trkpt>
      <trkpt lat="43.65356" lon="7.03452">
        <ele>173.2</ele>
        <time>2009-06-21T09:20:35Z</time>
      </trkpt>
      <trkpt lat="43.65362" lon="7.03483">
        <ele>170.8</ele>
        <time>2009-06-21T09:20:38Z</time>
      </trkpt>
      <trkpt lat="43.65364" lon="7.03517">
        <ele>168.8</ele>
        <time>2009-06-21T09:20:41Z</time>
      </trkpt>
      <trkpt lat="43.65371" lon="7.03551">
        <ele>167.4</ele>
        <time>2009-06-21T09:20:44Z</time>
      </trkpt>
      <trkpt lat="43.65373" lon="7.03586">
        <ele>166.4</ele>
        <time>2009-06-21T09:20:47Z</time>
      </trkpt>
      <trkpt lat="43.65377" lon="7.03618">
        <ele>164.5</ele>
        <time>2009-06-21T09:20:50Z</time>
      </trkpt>
      <trkpt lat="43.65388" lon="7.03647">
        <ele>162.1</ele>
        <time>2009-06-21T09:20:53Z</time>
      </trkpt>
      <trkpt lat="43.65399" lon="7.03678">
        <ele>160.7</ele>
        <time>2009-06-21T09:20:56Z</time>
      </trkpt>
      <trkpt lat="43.65411" lon="7.03713">
        <ele>158.8</ele>
        <time>2009-06-21T09:20:59Z</time>
      </trkpt>
      <trkpt lat="43.65418" lon="7.03741">
        <ele>157.3</ele>
        <time>2009-06-21T09:21:01Z</time>
      </trkpt>
      <trkpt lat="43.65425" lon="7.03768">
        <ele>156.4</ele>
        <time>2009-06-21T09:21:03Z</time>
      </trkpt>
      <trkpt lat="43.6544" lon="7.03796">
        <ele>155.9</ele>
        <time>2009-06-21T09:21:06Z</time>
      </trkpt>
      <trkpt lat="43.65458" lon="7.0381">
        <ele>156.4</ele>
        <time>2009-06-21T09:21:09Z</time>
      </trkpt>
      <trkpt lat="43.65477" lon="7.03817">
        <ele>160.2</ele>
        <time>2009-06-21T09:21:16Z</time>
      </trkpt>
      <trkpt lat="43.65496" lon="7.03816">
        <ele>166</ele>
        <time>2009-06-21T09:21:27Z</time>
      </trkpt>
      <trkpt lat="43.65515" lon="7.03819">
        <ele>170.8</ele>
        <time>2009-06-21T09:21:40Z</time>
      </trkpt>
      <trkpt lat="43.65537" lon="7.03814">
        <ele>174.1</ele>
        <time>2009-06-21T09:21:50Z</time>
      </trkpt>
      <trkpt lat="43.65553" lon="7.03811">
        <ele>175.1</ele>
        <time>2009-06-21T09:22:00Z</time>
      </trkpt>
      <trkpt lat="43.65566" lon="7.03791">
        <ele>177.5</ele>
        <time>2009-06-21T09:22:09Z</time>
      </trkpt>
      <trkpt lat="43.65582" lon="7.03785">
        <ele>178.9</ele>
        <time>2009-06-21T09:22:18Z</time>
      </trkpt>
      <trkpt lat="43.65601" lon="7.03776">
        <ele>182.3</ele>
        <time>2009-06-21T09:22:27Z</time>
      </trkpt>
      <trkpt lat="43.65623" lon="7.0377">
        <ele>186.6</ele>
        <time>2009-06-21T09:22:36Z</time>
      </trkpt>
      <trkpt lat="43.65644" lon="7.0377">
        <ele>186.2</ele>
        <time>2009-06-21T09:22:43Z</time>
      </trkpt>
      <trkpt lat="43.65661" lon="7.03764">
        <ele>187.1</ele>
        <time>2009-06-21T09:22:50Z</time>
      </trkpt>
      <trkpt lat="43.65674" lon="7.03749">
        <ele>188.1</ele>
        <time>2009-06-21T09:22:58Z</time>
      </trkpt>
      <trkpt lat="43.65692" lon="7.0374">
        <ele>188.6</ele>
        <time>2009-06-21T09:23:06Z</time>
      </trkpt>
      <trkpt lat="43.65711" lon="7.0375">
        <ele>186.2</ele>
        <time>2009-06-21T09:23:14Z</time>
      </trkpt>
      <trkpt lat="43.65732" lon="7.03754">
        <ele>185.2</ele>
        <time>2009-06-21T09:23:22Z</time>
      </trkpt>
      <trkpt lat="43.65743" lon="7.03736">
        <ele>187.6</ele>
        <time>2009-06-21T09:23:30Z</time>
      </trkpt>
      <trkpt lat="43.65755" lon="7.03719">
        <ele>189.5</ele>
        <time>2009-06-21T09:23:38Z</time>
      </trkpt>
      <trkpt lat="43.65772" lon="7.03708">
        <ele>190.5</ele>
        <time>2009-06-21T09:23:44Z</time>
      </trkpt>
      <trkpt lat="43.65788" lon="7.03696">
        <ele>191</ele>
        <time>2009-06-21T09:23:48Z</time>
      </trkpt>
      <trkpt lat="43.65806" lon="7.03686">
        <ele>190.5</ele>
        <time>2009-06-21T09:23:52Z</time>
      </trkpt>
      <trkpt lat="43.65829" lon="7.0368">
        <ele>190.5</ele>
        <time>2009-06-21T09:23:56Z</time>
      </trkpt>
      <trkpt lat="43.65843" lon="7.03662">
        <ele>186.2</ele>
        <time>2009-06-21T09:24:00Z</time>
      </trkpt>
      <trkpt lat="43.65849" lon="7.03634">
        <ele>184.2</ele>
        <time>2009-06-21T09:24:03Z</time>
      </trkpt>
      <trkpt lat="43.65857" lon="7.03604">
        <ele>182.8</ele>
        <time>2009-06-21T09:24:07Z</time>
      </trkpt>
      <trkpt lat="43.65878" lon="7.0361">
        <ele>180.4</ele>
        <time>2009-06-21T09:24:11Z</time>
      </trkpt>
      <trkpt lat="43.65902" lon="7.0362">
        <ele>179.4</ele>
        <time>2009-06-21T09:24:15Z</time>
      </trkpt>
      <trkpt lat="43.65923" lon="7.0361">
        <ele>177</ele>
        <time>2009-06-21T09:24:19Z</time>
      </trkpt>
      <trkpt lat="43.65933" lon="7.03586">
        <ele>178.9</ele>
        <time>2009-06-21T09:24:23Z</time>
      </trkpt>
      <trkpt lat="43.65943" lon="7.03561">
        <ele>177.5</ele>
        <time>2009-06-21T09:24:27Z</time>
      </trkpt>
      <trkpt lat="43.65953" lon="7.03536">
        <ele>175.1</ele>
        <time>2009-06-21T09:24:31Z</time>
      </trkpt>
      <trkpt lat="43.65964" lon="7.03512">
        <ele>175.6</ele>
        <time>2009-06-21T09:24:35Z</time>
      </trkpt>
      <trkpt lat="43.65977" lon="7.03492">
        <ele>178.9</ele>
        <time>2009-06-21T09:24:39Z</time>
      </trkpt>
      <trkpt lat="43.65994" lon="7.03482">
        <ele>180.4</ele>
        <time>2009-06-21T09:24:43Z</time>
      </trkpt>
      <trkpt lat="43.66015" lon="7.0348">
        <ele>182.3</ele>
        <time>2009-06-21T09:24:48Z</time>
      </trkpt>
      <trkpt lat="43.66037" lon="7.03478">
        <ele>185.2</ele>
        <time>2009-06-21T09:24:53Z</time>
      </trkpt>
      <trkpt lat="43.66052" lon="7.03469">
        <ele>186.2</ele>
        <time>2009-06-21T09:24:57Z</time>
      </trkpt>
      <trkpt lat="43.6607" lon="7.03448">
        <ele>185.2</ele>
        <time>2009-06-21T09:25:01Z</time>
      </trkpt>
      <trkpt lat="43.66079" lon="7.03425">
        <ele>185.2</ele>
        <time>2009-06-21T09:25:04Z</time>
      </trkpt>
      <trkpt lat="43.66088" lon="7.03403">
        <ele>184.2</ele>
        <time>2009-06-21T09:25:07Z</time>
      </trkpt>
      <trkpt lat="43.66097" lon="7.03379">
        <ele>182.8</ele>
        <time>2009-06-21T09:25:10Z</time>
      </trkpt>
      <trkpt lat="43.66105" lon="7.03349">
        <ele>181.3</ele>
        <time>2009-06-21T09:25:15Z</time>
      </trkpt>
      <trkpt lat="43.6611" lon="7.03329">
        <ele>180.9</ele>
        <time>2009-06-21T09:25:24Z</time>
      </trkpt>
      <trkpt lat="43.66103" lon="7.03306">
        <ele>182.8</ele>
        <time>2009-06-21T09:25:29Z</time>
      </trkpt>
      <trkpt lat="43.66096" lon="7.03282">
        <ele>182.8</ele>
        <time>2009-06-21T09:25:34Z</time>
      </trkpt>
      <trkpt lat="43.6609" lon="7.03255">
        <ele>182.8</ele>
        <time>2009-06-21T09:25:39Z</time>
      </trkpt>
      <trkpt lat="43.66084" lon="7.03225">
        <ele>183.3</ele>
        <time>2009-06-21T09:25:44Z</time>
      </trkpt>
      <trkpt lat="43.6608" lon="7.03194">
        <ele>184.2</ele>
        <time>2009-06-21T09:25:49Z</time>
      </trkpt>
      <trkpt lat="43.66074" lon="7.03169">
        <ele>183.7</ele>
        <time>2009-06-21T09:25:54Z</time>
      </trkpt>
      <trkpt lat="43.66071" lon="7.0314">
        <ele>185.2</ele>
        <time>2009-06-21T09:26:00Z</time>
      </trkpt>
      <trkpt lat="43.66081" lon="7.03122">
        <ele>183.3</ele>
        <time>2009-06-21T09:26:06Z</time>
      </trkpt>
      <trkpt lat="43.66087" lon="7.03097">
        <ele>181.8</ele>
        <time>2009-06-21T09:26:14Z</time>
      </trkpt>
      <trkpt lat="43.66092" lon="7.03069">
        <ele>184.2</ele>
        <time>2009-06-21T09:26:25Z</time>
      </trkpt>
      <trkpt lat="43.66099" lon="7.03044">
        <ele>185.2</ele>
        <time>2009-06-21T09:26:34Z</time>
      </trkpt>
      <trkpt lat="43.66113" lon="7.03021">
        <ele>185.7</ele>
        <time>2009-06-21T09:26:42Z</time>
      </trkpt>
      <trkpt lat="43.66128" lon="7.03002">
        <ele>187.1</ele>
        <time>2009-06-21T09:26:49Z</time>
      </trkpt>
      <trkpt lat="43.66145" lon="7.02989">
        <ele>188.1</ele>
        <time>2009-06-21T09:26:56Z</time>
      </trkpt>
      <trkpt lat="43.66162" lon="7.02968">
        <ele>189.5</ele>
        <time>2009-06-21T09:27:02Z</time>
      </trkpt>
      <trkpt lat="43.66179" lon="7.02945">
        <ele>191.4</ele>
        <time>2009-06-21T09:27:08Z</time>
      </trkpt>
      <trkpt lat="43.66192" lon="7.02927">
        <ele>192.4</ele>
        <time>2009-06-21T09:27:14Z</time>
      </trkpt>
      <trkpt lat="43.66207" lon="7.02909">
        <ele>194.8</ele>
        <time>2009-06-21T09:27:20Z</time>
      </trkpt>
      <trkpt lat="43.66228" lon="7.02894">
        <ele>197.7</ele>
        <time>2009-06-21T09:27:26Z</time>
      </trkpt>
      <trkpt lat="43.66247" lon="7.02888">
        <ele>199.6</ele>
        <time>2009-06-21T09:27:32Z</time>
      </trkpt>
      <trkpt lat="43.66264" lon="7.02874">
        <ele>202</ele>
        <time>2009-06-21T09:27:37Z</time>
      </trkpt>
      <trkpt lat="43.66283" lon="7.02863">
        <ele>203</ele>
        <time>2009-06-21T09:27:42Z</time>
      </trkpt>
      <trkpt lat="43.66305" lon="7.02864">
        <ele>202</ele>
        <time>2009-06-21T09:27:46Z</time>
      </trkpt>
      <trkpt lat="43.66325" lon="7.02866">
        <ele>202.5</ele>
        <time>2009-06-21T09:27:49Z</time>
      </trkpt>
      <trkpt lat="43.66344" lon="7.02871">
        <ele>203</ele>
        <time>2009-06-21T09:27:52Z</time>
      </trkpt>
      <trkpt lat="43.6636" lon="7.0288">
        <ele>201.1</ele>
        <time>2009-06-21T09:27:55Z</time>
      </trkpt>
      <trkpt lat="43.66374" lon="7.02897">
        <ele>201.5</ele>
        <time>2009-06-21T09:27:59Z</time>
      </trkpt>
      <trkpt lat="43.66387" lon="7.0292">
        <ele>198.6</ele>
        <time>2009-06-21T09:28:03Z</time>
      </trkpt>
      <trkpt lat="43.6641" lon="7.02923">
        <ele>197.2</ele>
        <time>2009-06-21T09:28:07Z</time>
      </trkpt>
      <trkpt lat="43.66427" lon="7.02908">
        <ele>196.7</ele>
        <time>2009-06-21T09:28:11Z</time>
      </trkpt>
      <trkpt lat="43.66447" lon="7.02894">
        <ele>198.2</ele>
        <time>2009-06-21T09:28:16Z</time>
      </trkpt>
      <trkpt lat="43.66468" lon="7.02885">
        <ele>199.1</ele>
        <time>2009-06-21T09:28:21Z</time>
      </trkpt>
      <trkpt lat="43.66486" lon="7.02877">
        <ele>199.6</ele>
        <time>2009-06-21T09:28:26Z</time>
      </trkpt>
      <trkpt lat="43.66502" lon="7.02867">
        <ele>200.6</ele>
        <time>2009-06-21T09:28:31Z</time>
      </trkpt>
      <trkpt lat="43.66521" lon="7.02855">
        <ele>201.1</ele>
        <time>2009-06-21T09:28:37Z</time>
      </trkpt>
      <trkpt lat="43.6654" lon="7.02842">
        <ele>201.5</ele>
        <time>2009-06-21T09:28:42Z</time>
      </trkpt>
      <trkpt lat="43.6656" lon="7.02825">
        <ele>202.5</ele>
        <time>2009-06-21T09:28:48Z</time>
      </trkpt>
      <trkpt lat="43.66577" lon="7.02804">
        <ele>203.5</ele>
        <time>2009-06-21T09:28:54Z</time>
      </trkpt>
      <trkpt lat="43.66591" lon="7.02783">
        <ele>204.9</ele>
        <time>2009-06-21T09:29:00Z</time>
      </trkpt>
      <trkpt lat="43.66605" lon="7.02759">
        <ele>205.9</ele>
        <time>2009-06-21T09:29:06Z</time>
      </trkpt>
      <trkpt lat="43.66616" lon="7.02737">
        <ele>205.4</ele>
        <time>2009-06-21T09:29:11Z</time>
      </trkpt>
      <trkpt lat="43.66633" lon="7.02724">
        <ele>206.8</ele>
        <time>2009-06-21T09:29:17Z</time>
      </trkpt>
      <trkpt lat="43.66653" lon="7.02712">
        <ele>208.3</ele>
        <time>2009-06-21T09:29:25Z</time>
      </trkpt>
      <trkpt lat="43.66674" lon="7.02705">
        <ele>209.7</ele>
        <time>2009-06-21T09:29:32Z</time>
      </trkpt>
      <trkpt lat="43.66693" lon="7.02708">
        <ele>208.3</ele>
        <time>2009-06-21T09:29:38Z</time>
      </trkpt>
      <trkpt lat="43.66707" lon="7.02723">
        <ele>209.2</ele>
        <time>2009-06-21T09:29:46Z</time>
      </trkpt>
      <trkpt lat="43.66726" lon="7.02723">
        <ele>211.6</ele>
        <time>2009-06-21T09:29:56Z</time>
      </trkpt>
      <trkpt lat="43.66746" lon="7.02721">
        <ele>213.6</ele>
        <time>2009-06-21T09:30:09Z</time>
      </trkpt>
      <trkpt lat="43.66754" lon="7.02734">
        <ele>216.4</ele>
        <time>2009-06-21T09:30:21Z</time>
      </trkpt>
      <trkpt lat="43.66734" lon="7.02743">
        <ele>217.4</ele>
        <time>2009-06-21T09:30:32Z</time>
      </trkpt>
      <trkpt lat="43.66718" lon="7.02753">
        <ele>218.8</ele>
        <time>2009-06-21T09:30:41Z</time>
      </trkpt>
      <trkpt lat="43.66703" lon="7.02769">
        <ele>220.3</ele>
        <time>2009-06-21T09:30:50Z</time>
      </trkpt>
      <trkpt lat="43.66694" lon="7.02789">
        <ele>223.6</ele>
        <time>2009-06-21T09:31:00Z</time>
      </trkpt>
      <trkpt lat="43.66686" lon="7.02818">
        <ele>227</ele>
        <time>2009-06-21T09:31:12Z</time>
      </trkpt>
      <trkpt lat="43.66682" lon="7.02843">
        <ele>228.9</ele>
        <time>2009-06-21T09:31:21Z</time>
      </trkpt>
      <trkpt lat="43.6669" lon="7.02869">
        <ele>230.4</ele>
        <time>2009-06-21T09:31:29Z</time>
      </trkpt>
      <trkpt lat="43.66705" lon="7.02857">
        <ele>231.8</ele>
        <time>2009-06-21T09:31:39Z</time>
      </trkpt>
      <trkpt lat="43.66725" lon="7.02848">
        <ele>233.3</ele>
        <time>2009-06-21T09:31:48Z</time>
      </trkpt>
      <trkpt lat="43.66744" lon="7.02833">
        <ele>234.2</ele>
        <time>2009-06-21T09:31:56Z</time>
      </trkpt>
      <trkpt lat="43.66764" lon="7.02825">
        <ele>233.7</ele>
        <time>2009-06-21T09:32:02Z</time>
      </trkpt>
      <trkpt lat="43.66786" lon="7.02821">
        <ele>232.8</ele>
        <time>2009-06-21T09:32:06Z</time>
      </trkpt>
      <trkpt lat="43.6681" lon="7.02816">
        <ele>232.3</ele>
        <time>2009-06-21T09:32:10Z</time>
      </trkpt>
      <trkpt lat="43.66833" lon="7.02808">
        <ele>230.4</ele>
        <time>2009-06-21T09:32:14Z</time>
      </trkpt>
      <trkpt lat="43.66851" lon="7.02799">
        <ele>231.8</ele>
        <time>2009-06-21T09:32:19Z</time>
      </trkpt>
      <trkpt lat="43.66871" lon="7.02791">
        <ele>233.3</ele>
        <time>2009-06-21T09:32:25Z</time>
      </trkpt>
      <trkpt lat="43.66891" lon="7.02787">
        <ele>233.3</ele>
        <time>2009-06-21T09:32:32Z</time>
      </trkpt>
      <trkpt lat="43.66879" lon="7.02765">
        <ele>231.8</ele>
        <time>2009-06-21T09:32:39Z</time>
      </trkpt>
      <trkpt lat="43.66861" lon="7.0275">
        <ele>230.4</ele>
        <time>2009-06-21T09:32:43Z</time>
      </trkpt>
      <trkpt lat="43.66855" lon="7.02724">
        <ele>227.5</ele>
        <time>2009-06-21T09:32:48Z</time>
      </trkpt>
      <trkpt lat="43.66868" lon="7.02699">
        <ele>228.9</ele>
        <time>2009-06-21T09:32:53Z</time>
      </trkpt>
      <trkpt lat="43.66879" lon="7.02679">
        <ele>230.4</ele>
        <time>2009-06-21T09:33:02Z</time>
      </trkpt>
      <trkpt lat="43.66893" lon="7.02657">
        <ele>235.2</ele>
        <time>2009-06-21T09:33:16Z</time>
      </trkpt>
      <trkpt lat="43.66912" lon="7.02654">
        <ele>240.5</ele>
        <time>2009-06-21T09:33:29Z</time>
      </trkpt>
      <trkpt lat="43.66925" lon="7.02678">
        <ele>236.1</ele>
        <time>2009-06-21T09:33:53Z</time>
      </trkpt>
      <trkpt lat="43.66933" lon="7.02702">
        <ele>238.1</ele>
        <time>2009-06-21T09:34:03Z</time>
      </trkpt>
      <trkpt lat="43.66947" lon="7.02693">
        <ele>242.9</ele>
        <time>2009-06-21T09:34:16Z</time>
      </trkpt>
      <trkpt lat="43.66962" lon="7.02678">
        <ele>248.2</ele>
        <time>2009-06-21T09:34:30Z</time>
      </trkpt>
      <trkpt lat="43.66972" lon="7.02653">
        <ele>250.6</ele>
        <time>2009-06-21T09:34:45Z</time>
      </trkpt>
      <trkpt lat="43.66973" lon="7.02627">
        <ele>255.8</ele>
        <time>2009-06-21T09:34:57Z</time>
      </trkpt>
      <trkpt lat="43.6698" lon="7.02602">
        <ele>257.8</ele>
        <time>2009-06-21T09:35:08Z</time>
      </trkpt>
      <trkpt lat="43.6699" lon="7.02581">
        <ele>257.8</ele>
        <time>2009-06-21T09:35:17Z</time>
      </trkpt>
      <trkpt lat="43.66999" lon="7.02555">
        <ele>258.3</ele>
        <time>2009-06-21T09:35:27Z</time>
      </trkpt>
      <trkpt lat="43.67008" lon="7.02531">
        <ele>259.2</ele>
        <time>2009-06-21T09:35:39Z</time>
      </trkpt>
      <trkpt lat="43.67021" lon="7.02509">
        <ele>261.1</ele>
        <time>2009-06-21T09:35:53Z</time>
      </trkpt>
      <trkpt lat="43.67036" lon="7.02493">
        <ele>263.5</ele>
        <time>2009-06-21T09:36:05Z</time>
      </trkpt>
      <trkpt lat="43.67047" lon="7.02475">
        <ele>262.1</ele>
        <time>2009-06-21T09:36:13Z</time>
      </trkpt>
      <trkpt lat="43.67059" lon="7.02451">
        <ele>259.7</ele>
        <time>2009-06-21T09:36:18Z</time>
      </trkpt>
      <trkpt lat="43.6707" lon="7.02428">
        <ele>259.2</ele>
        <time>2009-06-21T09:36:23Z</time>
      </trkpt>
      <trkpt lat="43.67083" lon="7.02405">
        <ele>259.2</ele>
        <time>2009-06-21T09:36:28Z</time>
      </trkpt>
      <trkpt lat="43.67097" lon="7.02381">
        <ele>259.2</ele>
        <time>2009-06-21T09:36:33Z</time>
      </trkpt>
      <trkpt lat="43.67112" lon="7.0236">
        <ele>259.2</ele>
        <time>2009-06-21T09:36:38Z</time>
      </trkpt>
      <trkpt lat="43.67127" lon="7.02341">
        <ele>261.6</ele>
        <time>2009-06-21T09:36:43Z</time>
      </trkpt>
      <trkpt lat="43.67141" lon="7.02322">
        <ele>262.6</ele>
        <time>2009-06-21T09:36:48Z</time>
      </trkpt>
      <trkpt lat="43.67157" lon="7.02302">
        <ele>261.6</ele>
        <time>2009-06-21T09:36:53Z</time>
      </trkpt>
      <trkpt lat="43.67178" lon="7.02284">
        <ele>262.6</ele>
        <time>2009-06-21T09:36:57Z</time>
      </trkpt>
      <trkpt lat="43.67197" lon="7.02266">
        <ele>262.1</ele>
        <time>2009-06-21T09:37:01Z</time>
      </trkpt>
      <trkpt lat="43.67212" lon="7.0225">
        <ele>260.7</ele>
        <time>2009-06-21T09:37:04Z</time>
      </trkpt>
      <trkpt lat="43.6723" lon="7.0223">
        <ele>260.2</ele>
        <time>2009-06-21T09:37:07Z</time>
      </trkpt>
      <trkpt lat="43.67246" lon="7.02215">
        <ele>260.7</ele>
        <time>2009-06-21T09:37:10Z</time>
      </trkpt>
      <trkpt lat="43.67262" lon="7.02199">
        <ele>261.6</ele>
        <time>2009-06-21T09:37:14Z</time>
      </trkpt>
      <trkpt lat="43.67279" lon="7.02183">
        <ele>265</ele>
        <time>2009-06-21T09:37:21Z</time>
      </trkpt>
      <trkpt lat="43.67296" lon="7.02169">
        <ele>268.3</ele>
        <time>2009-06-21T09:37:32Z</time>
      </trkpt>
      <trkpt lat="43.67315" lon="7.02156">
        <ele>273.6</ele>
        <time>2009-06-21T09:37:44Z</time>
      </trkpt>
      <trkpt lat="43.67333" lon="7.02144">
        <ele>276</ele>
        <time>2009-06-21T09:37:57Z</time>
      </trkpt>
      <trkpt lat="43.67354" lon="7.02134">
        <ele>277.5</ele>
        <time>2009-06-21T09:38:09Z</time>
      </trkpt>
      <trkpt lat="43.6737" lon="7.0212">
        <ele>278</ele>
        <time>2009-06-21T09:38:18Z</time>
      </trkpt>
      <trkpt lat="43.67386" lon="7.02104">
        <ele>276.5</ele>
        <time>2009-06-21T09:38:24Z</time>
      </trkpt>
      <trkpt lat="43.67403" lon="7.02084">
        <ele>273.6</ele>
        <time>2009-06-21T09:38:28Z</time>
      </trkpt>
      <trkpt lat="43.6742" lon="7.02062">
        <ele>268.3</ele>
        <time>2009-06-21T09:38:31Z</time>
      </trkpt>
      <trkpt lat="43.67433" lon="7.02045">
        <ele>265.9</ele>
        <time>2009-06-21T09:38:33Z</time>
      </trkpt>
      <trkpt lat="43.67448" lon="7.02024">
        <ele>265.5</ele>
        <time>2009-06-21T09:38:35Z</time>
      </trkpt>
      <trkpt lat="43.67461" lon="7.02002">
        <ele>264</ele>
        <time>2009-06-21T09:38:37Z</time>
      </trkpt>
      <trkpt lat="43.67471" lon="7.01978">
        <ele>262.6</ele>
        <time>2009-06-21T09:38:39Z</time>
      </trkpt>
      <trkpt lat="43.67481" lon="7.01956">
        <ele>262.6</ele>
        <time>2009-06-21T09:38:41Z</time>
      </trkpt>
      <trkpt lat="43.67495" lon="7.01927">
        <ele>263.1</ele>
        <time>2009-06-21T09:38:44Z</time>
      </trkpt>
      <trkpt lat="43.67508" lon="7.01901">
        <ele>264.5</ele>
        <time>2009-06-21T09:38:47Z</time>
      </trkpt>
      <trkpt lat="43.6752" lon="7.01877">
        <ele>262.6</ele>
        <time>2009-06-21T09:38:50Z</time>
      </trkpt>
      <trkpt lat="43.67534" lon="7.01855">
        <ele>262.1</ele>
        <time>2009-06-21T09:38:53Z</time>
      </trkpt>
      <trkpt lat="43.67553" lon="7.01848">
        <ele>262.6</ele>
        <time>2009-06-21T09:38:56Z</time>
      </trkpt>
      <trkpt lat="43.67571" lon="7.0186">
        <ele>263.5</ele>
        <time>2009-06-21T09:39:01Z</time>
      </trkpt>
      <trkpt lat="43.67589" lon="7.01871">
        <ele>265.9</ele>
        <time>2009-06-21T09:39:11Z</time>
      </trkpt>
      <trkpt lat="43.67607" lon="7.01882">
        <ele>268.3</ele>
        <time>2009-06-21T09:39:23Z</time>
      </trkpt>
      <trkpt lat="43.67621" lon="7.01875">
        <ele>267.9</ele>
        <time>2009-06-21T09:39:47Z</time>
      </trkpt>
      <trkpt lat="43.67638" lon="7.01858">
        <ele>267.4</ele>
        <time>2009-06-21T09:39:52Z</time>
      </trkpt>
      <trkpt lat="43.67657" lon="7.01844">
        <ele>267.4</ele>
        <time>2009-06-21T09:39:57Z</time>
      </trkpt>
      <trkpt lat="43.67676" lon="7.01829">
        <ele>268.3</ele>
        <time>2009-06-21T09:40:02Z</time>
      </trkpt>
      <trkpt lat="43.67692" lon="7.01809">
        <ele>269.8</ele>
        <time>2009-06-21T09:40:07Z</time>
      </trkpt>
      <trkpt lat="43.67708" lon="7.01793">
        <ele>271.7</ele>
        <time>2009-06-21T09:40:11Z</time>
      </trkpt>
      <trkpt lat="43.67721" lon="7.01774">
        <ele>272.7</ele>
        <time>2009-06-21T09:40:15Z</time>
      </trkpt>
      <trkpt lat="43.67728" lon="7.01748">
        <ele>273.6</ele>
        <time>2009-06-21T09:40:19Z</time>
      </trkpt>
      <trkpt lat="43.6773" lon="7.01719">
        <ele>276.5</ele>
        <time>2009-06-21T09:40:25Z</time>
      </trkpt>
      <trkpt lat="43.67741" lon="7.01693">
        <ele>277</ele>
        <time>2009-06-21T09:40:31Z</time>
      </trkpt>
      <trkpt lat="43.67753" lon="7.01666">
        <ele>277.5</ele>
        <time>2009-06-21T09:40:37Z</time>
      </trkpt>
      <trkpt lat="43.67761" lon="7.01643">
        <ele>275.1</ele>
        <time>2009-06-21T09:40:42Z</time>
      </trkpt>
      <trkpt lat="43.67768" lon="7.01619">
        <ele>275.6</ele>
        <time>2009-06-21T09:40:47Z</time>
      </trkpt>
      <trkpt lat="43.67773" lon="7.01592">
        <ele>273.6</ele>
        <time>2009-06-21T09:40:52Z</time>
      </trkpt>
      <trkpt lat="43.67773" lon="7.01565">
        <ele>273.2</ele>
        <time>2009-06-21T09:40:56Z</time>
      </trkpt>
      <trkpt lat="43.67769" lon="7.01539">
        <ele>273.2</ele>
        <time>2009-06-21T09:41:00Z</time>
      </trkpt>
      <trkpt lat="43.67768" lon="7.01506">
        <ele>273.2</ele>
        <time>2009-06-21T09:41:05Z</time>
      </trkpt>
      <trkpt lat="43.67774" lon="7.01476">
        <ele>272.2</ele>
        <time>2009-06-21T09:41:10Z</time>
      </trkpt>
      <trkpt lat="43.67793" lon="7.01481">
        <ele>273.2</ele>
        <time>2009-06-21T09:41:14Z</time>
      </trkpt>
      <trkpt lat="43.67807" lon="7.01499">
        <ele>272.2</ele>
        <time>2009-06-21T09:41:18Z</time>
      </trkpt>
      <trkpt lat="43.67823" lon="7.01518">
        <ele>276.5</ele>
        <time>2009-06-21T09:41:23Z</time>
      </trkpt>
      <trkpt lat="43.67827" lon="7.01552">
        <ele>274.6</ele>
        <time>2009-06-21T09:41:28Z</time>
      </trkpt>
      <trkpt lat="43.67829" lon="7.01581">
        <ele>274.1</ele>
        <time>2009-06-21T09:41:31Z</time>
      </trkpt>
      <trkpt lat="43.6783" lon="7.0161">
        <ele>274.6</ele>
        <time>2009-06-21T09:41:34Z</time>
      </trkpt>
      <trkpt lat="43.67828" lon="7.01641">
        <ele>275.1</ele>
        <time>2009-06-21T09:41:37Z</time>
      </trkpt>
      <trkpt lat="43.67821" lon="7.0167">
        <ele>275.1</ele>
        <time>2009-06-21T09:41:40Z</time>
      </trkpt>
      <trkpt lat="43.67821" lon="7.01706">
        <ele>273.6</ele>
        <time>2009-06-21T09:41:43Z</time>
      </trkpt>
      <trkpt lat="43.67826" lon="7.01743">
        <ele>271.2</ele>
        <time>2009-06-21T09:41:46Z</time>
      </trkpt>
      <trkpt lat="43.67831" lon="7.0178">
        <ele>270.7</ele>
        <time>2009-06-21T09:41:49Z</time>
      </trkpt>
      <trkpt lat="43.67838" lon="7.01816">
        <ele>270.3</ele>
        <time>2009-06-21T09:41:52Z</time>
      </trkpt>
      <trkpt lat="43.67848" lon="7.01849">
        <ele>268.8</ele>
        <time>2009-06-21T09:41:55Z</time>
      </trkpt>
      <trkpt lat="43.67862" lon="7.0188">
        <ele>267.4</ele>
        <time>2009-06-21T09:41:58Z</time>
      </trkpt>
      <trkpt lat="43.67875" lon="7.01909">
        <ele>266.9</ele>
        <time>2009-06-21T09:42:01Z</time>
      </trkpt>
      <trkpt lat="43.67886" lon="7.01931">
        <ele>265.9</ele>
        <time>2009-06-21T09:42:04Z</time>
      </trkpt>
      <trkpt lat="43.67895" lon="7.01962">
        <ele>265.5</ele>
        <time>2009-06-21T09:42:08Z</time>
      </trkpt>
      <trkpt lat="43.67905" lon="7.01985">
        <ele>265.5</ele>
        <time>2009-06-21T09:42:11Z</time>
      </trkpt>
      <trkpt lat="43.67916" lon="7.02008">
        <ele>264.5</ele>
        <time>2009-06-21T09:42:14Z</time>
      </trkpt>
      <trkpt lat="43.67928" lon="7.02033">
        <ele>262.6</ele>
        <time>2009-06-21T09:42:17Z</time>
      </trkpt>
      <trkpt lat="43.67941" lon="7.02059">
        <ele>262.1</ele>
        <time>2009-06-21T09:42:20Z</time>
      </trkpt>
      <trkpt lat="43.67954" lon="7.02085">
        <ele>263.5</ele>
        <time>2009-06-21T09:42:23Z</time>
      </trkpt>
      <trkpt lat="43.67967" lon="7.0211">
        <ele>264.5</ele>
        <time>2009-06-21T09:42:26Z</time>
      </trkpt>
      <trkpt lat="43.6798" lon="7.02135">
        <ele>265</ele>
        <time>2009-06-21T09:42:29Z</time>
      </trkpt>
      <trkpt lat="43.67995" lon="7.02161">
        <ele>263.5</ele>
        <time>2009-06-21T09:42:32Z</time>
      </trkpt>
      <trkpt lat="43.68013" lon="7.02186">
        <ele>263.5</ele>
        <time>2009-06-21T09:42:35Z</time>
      </trkpt>
      <trkpt lat="43.68034" lon="7.02203">
        <ele>263.5</ele>
        <time>2009-06-21T09:42:38Z</time>
      </trkpt>
      <trkpt lat="43.68055" lon="7.02221">
        <ele>263.5</ele>
        <time>2009-06-21T09:42:41Z</time>
      </trkpt>
      <trkpt lat="43.68076" lon="7.02236">
        <ele>262.1</ele>
        <time>2009-06-21T09:42:44Z</time>
      </trkpt>
      <trkpt lat="43.681" lon="7.02251">
        <ele>262.6</ele>
        <time>2009-06-21T09:42:47Z</time>
      </trkpt>
      <trkpt lat="43.6812" lon="7.0227">
        <ele>261.1</ele>
        <time>2009-06-21T09:42:50Z</time>
      </trkpt>
      <trkpt lat="43.68139" lon="7.02289">
        <ele>258.7</ele>
        <time>2009-06-21T09:42:53Z</time>
      </trkpt>
      <trkpt lat="43.68157" lon="7.02306">
        <ele>259.2</ele>
        <time>2009-06-21T09:42:56Z</time>
      </trkpt>
      <trkpt lat="43.68164" lon="7.02331">
        <ele>261.1</ele>
        <time>2009-06-21T09:43:01Z</time>
      </trkpt>
      <trkpt lat="43.68172" lon="7.0236">
        <ele>258.3</ele>
        <time>2009-06-21T09:43:05Z</time>
      </trkpt>
      <trkpt lat="43.68186" lon="7.0238">
        <ele>256.8</ele>
        <time>2009-06-21T09:43:08Z</time>
      </trkpt>
      <trkpt lat="43.68204" lon="7.02395">
        <ele>254.9</ele>
        <time>2009-06-21T09:43:11Z</time>
      </trkpt>
      <trkpt lat="43.68223" lon="7.02408">
        <ele>253.4</ele>
        <time>2009-06-21T09:43:15Z</time>
      </trkpt>
      <trkpt lat="43.68243" lon="7.02413">
        <ele>251.5</ele>
        <time>2009-06-21T09:43:20Z</time>
      </trkpt>
      <trkpt lat="43.68263" lon="7.02401">
        <ele>249.6</ele>
        <time>2009-06-21T09:43:24Z</time>
      </trkpt>
      <trkpt lat="43.68283" lon="7.02394">
        <ele>252</ele>
        <time>2009-06-21T09:43:32Z</time>
      </trkpt>
      <trkpt lat="43.68295" lon="7.02375">
        <ele>251.5</ele>
        <time>2009-06-21T09:43:40Z</time>
      </trkpt>
      <trkpt lat="43.68287" lon="7.02381">
        <ele>250.1</ele>
        <time>2009-06-21T09:43:51Z</time>
      </trkpt>
      <trkpt lat="43.68277" lon="7.02399">
        <ele>249.1</ele>
        <time>2009-06-21T09:43:58Z</time>
      </trkpt>
      <trkpt lat="43.68274" lon="7.02425">
        <ele>247.7</ele>
        <time>2009-06-21T09:44:07Z</time>
      </trkpt>
      <trkpt lat="43.68287" lon="7.02448">
        <ele>245.3</ele>
        <time>2009-06-21T09:44:13Z</time>
      </trkpt>
      <trkpt lat="43.68304" lon="7.02467">
        <ele>242.9</ele>
        <time>2009-06-21T09:44:18Z</time>
      </trkpt>
      <trkpt lat="43.68327" lon="7.02467">
        <ele>248.2</ele>
        <time>2009-06-21T09:44:24Z</time>
      </trkpt>
      <trkpt lat="43.68348" lon="7.0246">
        <ele>251</ele>
        <time>2009-06-21T09:44:30Z</time>
      </trkpt>
      <trkpt lat="43.68367" lon="7.02452">
        <ele>252</ele>
        <time>2009-06-21T09:44:36Z</time>
      </trkpt>
      <trkpt lat="43.68384" lon="7.02441">
        <ele>254.4</ele>
        <time>2009-06-21T09:44:42Z</time>
      </trkpt>
      <trkpt lat="43.684" lon="7.02432">
        <ele>255.8</ele>
        <time>2009-06-21T09:44:48Z</time>
      </trkpt>
      <trkpt lat="43.68418" lon="7.02422">
        <ele>255.8</ele>
        <time>2009-06-21T09:44:54Z</time>
      </trkpt>
      <trkpt lat="43.68437" lon="7.02417">
        <ele>256.3</ele>
        <time>2009-06-21T09:45:00Z</time>
      </trkpt>
      <trkpt lat="43.68459" lon="7.02411">
        <ele>257.3</ele>
        <time>2009-06-21T09:45:07Z</time>
      </trkpt>
      <trkpt lat="43.6848" lon="7.02413">
        <ele>257.8</ele>
        <time>2009-06-21T09:45:14Z</time>
      </trkpt>
      <trkpt lat="43.685" lon="7.02412">
        <ele>259.2</ele>
        <time>2009-06-21T09:45:20Z</time>
      </trkpt>
      <trkpt lat="43.6852" lon="7.02414">
        <ele>263.5</ele>
        <time>2009-06-21T09:45:27Z</time>
      </trkpt>
      <trkpt lat="43.68541" lon="7.02411">
        <ele>263.1</ele>
        <time>2009-06-21T09:45:33Z</time>
      </trkpt>
      <trkpt lat="43.68563" lon="7.02411">
        <ele>263.5</ele>
        <time>2009-06-21T09:45:40Z</time>
      </trkpt>
      <trkpt lat="43.68583" lon="7.02406">
        <ele>265.9</ele>
        <time>2009-06-21T09:45:47Z</time>
      </trkpt>
      <trkpt lat="43.68601" lon="7.024">
        <ele>267.4</ele>
        <time>2009-06-21T09:45:55Z</time>
      </trkpt>
      <trkpt lat="43.68618" lon="7.02389">
        <ele>267.9</ele>
        <time>2009-06-21T09:46:02Z</time>
      </trkpt>
      <trkpt lat="43.68632" lon="7.02376">
        <ele>270.7</ele>
        <time>2009-06-21T09:46:09Z</time>
      </trkpt>
      <trkpt lat="43.68642" lon="7.02354">
        <ele>272.7</ele>
        <time>2009-06-21T09:46:16Z</time>
      </trkpt>
      <trkpt lat="43.68652" lon="7.02331">
        <ele>277</ele>
        <time>2009-06-21T09:46:23Z</time>
      </trkpt>
      <trkpt lat="43.68661" lon="7.02308">
        <ele>280.8</ele>
        <time>2009-06-21T09:46:30Z</time>
      </trkpt>
      <trkpt lat="43.68667" lon="7.02283">
        <ele>285.2</ele>
        <time>2009-06-21T09:46:39Z</time>
      </trkpt>
      <trkpt lat="43.68673" lon="7.02259">
        <ele>289.5</ele>
        <time>2009-06-21T09:46:48Z</time>
      </trkpt>
      <trkpt lat="43.6868" lon="7.02234">
        <ele>290</ele>
        <time>2009-06-21T09:46:57Z</time>
      </trkpt>
      <trkpt lat="43.68687" lon="7.0221">
        <ele>288.1</ele>
        <time>2009-06-21T09:47:07Z</time>
      </trkpt>
      <trkpt lat="43.68698" lon="7.02188">
        <ele>287.6</ele>
        <time>2009-06-21T09:47:16Z</time>
      </trkpt>
      <trkpt lat="43.68708" lon="7.02165">
        <ele>288.1</ele>
        <time>2009-06-21T09:47:26Z</time>
      </trkpt>
      <trkpt lat="43.6872" lon="7.0214">
        <ele>288.5</ele>
        <time>2009-06-21T09:47:35Z</time>
      </trkpt>
      <trkpt lat="43.68731" lon="7.02114">
        <ele>288.5</ele>
        <time>2009-06-21T09:47:44Z</time>
      </trkpt>
      <trkpt lat="43.68741" lon="7.02094">
        <ele>288.1</ele>
        <time>2009-06-21T09:47:52Z</time>
      </trkpt>
      <trkpt lat="43.68751" lon="7.02071">
        <ele>292.4</ele>
        <time>2009-06-21T09:48:01Z</time>
      </trkpt>
      <trkpt lat="43.68766" lon="7.02051">
        <ele>292.9</ele>
        <time>2009-06-21T09:48:10Z</time>
      </trkpt>
      <trkpt lat="43.68777" lon="7.0203">
        <ele>293.8</ele>
        <time>2009-06-21T09:48:18Z</time>
      </trkpt>
      <trkpt lat="43.68789" lon="7.02007">
        <ele>295.3</ele>
        <time>2009-06-21T09:48:28Z</time>
      </trkpt>
      <trkpt lat="43.68804" lon="7.01989">
        <ele>295.3</ele>
        <time>2009-06-21T09:48:39Z</time>
      </trkpt>
      <trkpt lat="43.6882" lon="7.0197">
        <ele>295.7</ele>
        <time>2009-06-21T09:48:49Z</time>
      </trkpt>
      <trkpt lat="43.68834" lon="7.01953">
        <ele>295.7</ele>
        <time>2009-06-21T09:48:59Z</time>
      </trkpt>
      <trkpt lat="43.68849" lon="7.01941">
        <ele>297.2</ele>
        <time>2009-06-21T09:49:09Z</time>
      </trkpt>
      <trkpt lat="43.68866" lon="7.01925">
        <ele>298.1</ele>
        <time>2009-06-21T09:49:20Z</time>
      </trkpt>
      <trkpt lat="43.68882" lon="7.01913">
        <ele>301</ele>
        <time>2009-06-21T09:49:31Z</time>
      </trkpt>
      <trkpt lat="43.68899" lon="7.01901">
        <ele>302</ele>
        <time>2009-06-21T09:49:41Z</time>
      </trkpt>
      <trkpt lat="43.68911" lon="7.01885">
        <ele>303</ele>
        <time>2009-06-21T09:49:51Z</time>
      </trkpt>
      <trkpt lat="43.68923" lon="7.01861">
        <ele>307.3</ele>
        <time>2009-06-21T09:50:02Z</time>
      </trkpt>
      <trkpt lat="43.68934" lon="7.01839">
        <ele>311.1</ele>
        <time>2009-06-21T09:50:15Z</time>
      </trkpt>
      <trkpt lat="43.6895" lon="7.01822">
        <ele>315.4</ele>
        <time>2009-06-21T09:50:30Z</time>
      </trkpt>
      <trkpt lat="43.68969" lon="7.01799">
        <ele>318.8</ele>
        <time>2009-06-21T09:50:46Z</time>
      </trkpt>
      <trkpt lat="43.68978" lon="7.01773">
        <ele>322.7</ele>
        <time>2009-06-21T09:50:58Z</time>
      </trkpt>
      <trkpt lat="43.68992" lon="7.01752">
        <ele>321.7</ele>
        <time>2009-06-21T09:51:11Z</time>
      </trkpt>
      <trkpt lat="43.69004" lon="7.01733">
        <ele>323.1</ele>
        <time>2009-06-21T09:51:22Z</time>
      </trkpt>
      <trkpt lat="43.69015" lon="7.01713">
        <ele>326</ele>
        <time>2009-06-21T09:51:32Z</time>
      </trkpt>
      <trkpt lat="43.6903" lon="7.01698">
        <ele>327</ele>
        <time>2009-06-21T09:51:44Z</time>
      </trkpt>
      <trkpt lat="43.69049" lon="7.01688">
        <ele>328.4</ele>
        <time>2009-06-21T09:51:56Z</time>
      </trkpt>
      <trkpt lat="43.69068" lon="7.01663">
        <ele>327.5</ele>
        <time>2009-06-21T09:52:08Z</time>
      </trkpt>
      <trkpt lat="43.69081" lon="7.01643">
        <ele>328.9</ele>
        <time>2009-06-21T09:52:21Z</time>
      </trkpt>
      <trkpt lat="43.69102" lon="7.01624">
        <ele>331.8</ele>
        <time>2009-06-21T09:52:58Z</time>
      </trkpt>
      <trkpt lat="43.69101" lon="7.016">
        <ele>334.2</ele>
        <time>2009-06-21T09:53:09Z</time>
      </trkpt>
      <trkpt lat="43.69101" lon="7.01574">
        <ele>337.6</ele>
        <time>2009-06-21T09:53:19Z</time>
      </trkpt>
      <trkpt lat="43.69105" lon="7.01548">
        <ele>340</ele>
        <time>2009-06-21T09:53:29Z</time>
      </trkpt>
      <trkpt lat="43.69111" lon="7.01521">
        <ele>343.8</ele>
        <time>2009-06-21T09:53:42Z</time>
      </trkpt>
      <trkpt lat="43.69107" lon="7.01495">
        <ele>343.8</ele>
        <time>2009-06-21T09:53:52Z</time>
      </trkpt>
      <trkpt lat="43.69104" lon="7.01469">
        <ele>343.8</ele>
        <time>2009-06-21T09:53:57Z</time>
      </trkpt>
      <trkpt lat="43.69101" lon="7.01444">
        <ele>341.4</ele>
        <time>2009-06-21T09:54:00Z</time>
      </trkpt>
      <trkpt lat="43.691" lon="7.01419">
        <ele>339.5</ele>
        <time>2009-06-21T09:54:03Z</time>
      </trkpt>
      <trkpt lat="43.69102" lon="7.01387">
        <ele>337.1</ele>
        <time>2009-06-21T09:54:06Z</time>
      </trkpt>
      <trkpt lat="43.69104" lon="7.01357">
        <ele>334.2</ele>
        <time>2009-06-21T09:54:09Z</time>
      </trkpt>
      <trkpt lat="43.69111" lon="7.0133">
        <ele>330.4</ele>
        <time>2009-06-21T09:54:12Z</time>
      </trkpt>
      <trkpt lat="43.69121" lon="7.01307">
        <ele>328.4</ele>
        <time>2009-06-21T09:54:14Z</time>
      </trkpt>
      <trkpt lat="43.69131" lon="7.01284">
        <ele>326.5</ele>
        <time>2009-06-21T09:54:16Z</time>
      </trkpt>
      <trkpt lat="43.6915" lon="7.01256">
        <ele>323.6</ele>
        <time>2009-06-21T09:54:19Z</time>
      </trkpt>
      <trkpt lat="43.69164" lon="7.01238">
        <ele>321.7</ele>
        <time>2009-06-21T09:54:21Z</time>
      </trkpt>
      <trkpt lat="43.69177" lon="7.01216">
        <ele>319.3</ele>
        <time>2009-06-21T09:54:23Z</time>
      </trkpt>
      <trkpt lat="43.69187" lon="7.01181">
        <ele>316.4</ele>
        <time>2009-06-21T09:54:26Z</time>
      </trkpt>
      <trkpt lat="43.6919" lon="7.01153">
        <ele>314.5</ele>
        <time>2009-06-21T09:54:28Z</time>
      </trkpt>
      <trkpt lat="43.69197" lon="7.01122">
        <ele>312.6</ele>
        <time>2009-06-21T09:54:30Z</time>
      </trkpt>
      <trkpt lat="43.69203" lon="7.01094">
        <ele>311.1</ele>
        <time>2009-06-21T09:54:32Z</time>
      </trkpt>
      <trkpt lat="43.69211" lon="7.01063">
        <ele>310.2</ele>
        <time>2009-06-21T09:54:34Z</time>
      </trkpt>
      <trkpt lat="43.69225" lon="7.01036">
        <ele>307.8</ele>
        <time>2009-06-21T09:54:36Z</time>
      </trkpt>
      <trkpt lat="43.69236" lon="7.01013">
        <ele>306.8</ele>
        <time>2009-06-21T09:54:38Z</time>
      </trkpt>
      <trkpt lat="43.6925" lon="7.00987">
        <ele>302.5</ele>
        <time>2009-06-21T09:54:41Z</time>
      </trkpt>
      <trkpt lat="43.69264" lon="7.01003">
        <ele>297.7</ele>
        <time>2009-06-21T09:54:45Z</time>
      </trkpt>
      <trkpt lat="43.6927" lon="7.01028">
        <ele>292.4</ele>
        <time>2009-06-21T09:54:48Z</time>
      </trkpt>
      <trkpt lat="43.69275" lon="7.01052">
        <ele>290.5</ele>
        <time>2009-06-21T09:54:51Z</time>
      </trkpt>
      <trkpt lat="43.6928" lon="7.01081">
        <ele>288.1</ele>
        <time>2009-06-21T09:54:55Z</time>
      </trkpt>
      <trkpt lat="43.69268" lon="7.01102">
        <ele>285.6</ele>
        <time>2009-06-21T09:55:00Z</time>
      </trkpt>
      <trkpt lat="43.69259" lon="7.01135">
        <ele>283.7</ele>
        <time>2009-06-21T09:55:05Z</time>
      </trkpt>
      <trkpt lat="43.69257" lon="7.01161">
        <ele>281.8</ele>
        <time>2009-06-21T09:55:08Z</time>
      </trkpt>
      <trkpt lat="43.69257" lon="7.012">
        <ele>279.4</ele>
        <time>2009-06-21T09:55:11Z</time>
      </trkpt>
      <trkpt lat="43.69261" lon="7.01244">
        <ele>274.6</ele>
        <time>2009-06-21T09:55:14Z</time>
      </trkpt>
      <trkpt lat="43.69266" lon="7.01271">
        <ele>272.7</ele>
        <time>2009-06-21T09:55:16Z</time>
      </trkpt>
      <trkpt lat="43.69268" lon="7.013">
        <ele>270.7</ele>
        <time>2009-06-21T09:55:18Z</time>
      </trkpt>
      <trkpt lat="43.6927" lon="7.01326">
        <ele>269.3</ele>
        <time>2009-06-21T09:55:20Z</time>
      </trkpt>
      <trkpt lat="43.69273" lon="7.01355">
        <ele>265</ele>
        <time>2009-06-21T09:55:23Z</time>
      </trkpt>
      <trkpt lat="43.69284" lon="7.01358">
        <ele>260.2</ele>
        <time>2009-06-21T09:55:28Z</time>
      </trkpt>
      <trkpt lat="43.69297" lon="7.01331">
        <ele>257.8</ele>
        <time>2009-06-21T09:55:32Z</time>
      </trkpt>
      <trkpt lat="43.6931" lon="7.01298">
        <ele>254.4</ele>
        <time>2009-06-21T09:55:35Z</time>
      </trkpt>
      <trkpt lat="43.69317" lon="7.01273">
        <ele>252.5</ele>
        <time>2009-06-21T09:55:37Z</time>
      </trkpt>
      <trkpt lat="43.69323" lon="7.01246">
        <ele>251.5</ele>
        <time>2009-06-21T09:55:39Z</time>
      </trkpt>
      <trkpt lat="43.69332" lon="7.01218">
        <ele>250.6</ele>
        <time>2009-06-21T09:55:41Z</time>
      </trkpt>
      <trkpt lat="43.69344" lon="7.01194">
        <ele>249.6</ele>
        <time>2009-06-21T09:55:43Z</time>
      </trkpt>
      <trkpt lat="43.69352" lon="7.01168">
        <ele>248.2</ele>
        <time>2009-06-21T09:55:45Z</time>
      </trkpt>
      <trkpt lat="43.6936" lon="7.01144">
        <ele>247.7</ele>
        <time>2009-06-21T09:55:47Z</time>
      </trkpt>
      <trkpt lat="43.69369" lon="7.01121">
        <ele>246.7</ele>
        <time>2009-06-21T09:55:49Z</time>
      </trkpt>
      <trkpt lat="43.69377" lon="7.01096">
        <ele>245.3</ele>
        <time>2009-06-21T09:55:51Z</time>
      </trkpt>
      <trkpt lat="43.69382" lon="7.0107">
        <ele>243.8</ele>
        <time>2009-06-21T09:55:53Z</time>
      </trkpt>
      <trkpt lat="43.69388" lon="7.01043">
        <ele>241.9</ele>
        <time>2009-06-21T09:55:55Z</time>
      </trkpt>
      <trkpt lat="43.69396" lon="7.01018">
        <ele>241.4</ele>
        <time>2009-06-21T09:55:57Z</time>
      </trkpt>
      <trkpt lat="43.69403" lon="7.00993">
        <ele>239.5</ele>
        <time>2009-06-21T09:55:59Z</time>
      </trkpt>
      <trkpt lat="43.69413" lon="7.00959">
        <ele>239</ele>
        <time>2009-06-21T09:56:02Z</time>
      </trkpt>
      <trkpt lat="43.69421" lon="7.00935">
        <ele>239.5</ele>
        <time>2009-06-21T09:56:05Z</time>
      </trkpt>
      <trkpt lat="43.69429" lon="7.00911">
        <ele>240</ele>
        <time>2009-06-21T09:56:08Z</time>
      </trkpt>
      <trkpt lat="43.69437" lon="7.00885">
        <ele>239.5</ele>
        <time>2009-06-21T09:56:11Z</time>
      </trkpt>
      <trkpt lat="43.69443" lon="7.00858">
        <ele>239</ele>
        <time>2009-06-21T09:56:14Z</time>
      </trkpt>
      <trkpt lat="43.69453" lon="7.00832">
        <ele>239.5</ele>
        <time>2009-06-21T09:56:17Z</time>
      </trkpt>
      <trkpt lat="43.69464" lon="7.00807">
        <ele>239</ele>
        <time>2009-06-21T09:56:20Z</time>
      </trkpt>
      <trkpt lat="43.69479" lon="7.00784">
        <ele>237.1</ele>
        <time>2009-06-21T09:56:23Z</time>
      </trkpt>
      <trkpt lat="43.69496" lon="7.00765">
        <ele>234.7</ele>
        <time>2009-06-21T09:56:26Z</time>
      </trkpt>
      <trkpt lat="43.69515" lon="7.0074">
        <ele>232.3</ele>
        <time>2009-06-21T09:56:29Z</time>
      </trkpt>
      <trkpt lat="43.69531" lon="7.00719">
        <ele>230.9</ele>
        <time>2009-06-21T09:56:31Z</time>
      </trkpt>
      <trkpt lat="43.69543" lon="7.00687">
        <ele>228.9</ele>
        <time>2009-06-21T09:56:33Z</time>
      </trkpt>
      <trkpt lat="43.69555" lon="7.00653">
        <ele>227</ele>
        <time>2009-06-21T09:56:35Z</time>
      </trkpt>
      <trkpt lat="43.69569" lon="7.00622">
        <ele>225.1</ele>
        <time>2009-06-21T09:56:37Z</time>
      </trkpt>
      <trkpt lat="43.69583" lon="7.00586">
        <ele>223.2</ele>
        <time>2009-06-21T09:56:39Z</time>
      </trkpt>
      <trkpt lat="43.69598" lon="7.0055">
        <ele>221.2</ele>
        <time>2009-06-21T09:56:41Z</time>
      </trkpt>
      <trkpt lat="43.69607" lon="7.00518">
        <ele>217.4</ele>
        <time>2009-06-21T09:56:43Z</time>
      </trkpt>
      <trkpt lat="43.69626" lon="7.00485">
        <ele>212.6</ele>
        <time>2009-06-21T09:56:45Z</time>
      </trkpt>
      <trkpt lat="43.69648" lon="7.00452">
        <ele>207.8</ele>
        <time>2009-06-21T09:56:47Z</time>
      </trkpt>
      <trkpt lat="43.69654" lon="7.00412">
        <ele>203.5</ele>
        <time>2009-06-21T09:56:49Z</time>
      </trkpt>
      <trkpt lat="43.69671" lon="7.00375">
        <ele>199.1</ele>
        <time>2009-06-21T09:56:51Z</time>
      </trkpt>
      <trkpt lat="43.69694" lon="7.00334">
        <ele>189.5</ele>
        <time>2009-06-21T09:56:53Z</time>
      </trkpt>
      <trkpt lat="43.69716" lon="7.00293">
        <ele>176.1</ele>
        <time>2009-06-21T09:56:55Z</time>
      </trkpt>
      <trkpt lat="43.69734" lon="7.00255">
        <ele>164.5</ele>
        <time>2009-06-21T09:56:57Z</time>
      </trkpt>
      <trkpt lat="43.69752" lon="7.00217">
        <ele>161.6</ele>
        <time>2009-06-21T09:56:59Z</time>
      </trkpt>
      <trkpt lat="43.69765" lon="7.00178">
        <ele>158.8</ele>
        <time>2009-06-21T09:57:01Z</time>
      </trkpt>
      <trkpt lat="43.69774" lon="7.00141">
        <ele>157.3</ele>
        <time>2009-06-21T09:57:03Z</time>
      </trkpt>
      <trkpt lat="43.6978" lon="7.00108">
        <ele>157.3</ele>
        <time>2009-06-21T09:57:05Z</time>
      </trkpt>
      <trkpt lat="43.69783" lon="7.0008">
        <ele>153.9</ele>
        <time>2009-06-21T09:57:07Z</time>
      </trkpt>
      <trkpt lat="43.69786" lon="7.00053">
        <ele>153.5</ele>
        <time>2009-06-21T09:57:09Z</time>
      </trkpt>
      <trkpt lat="43.69783" lon="7.00026">
        <ele>152</ele>
        <time>2009-06-21T09:57:11Z</time>
      </trkpt>
      <trkpt lat="43.69779" lon="6.99995">
        <ele>151.1</ele>
        <time>2009-06-21T09:57:14Z</time>
      </trkpt>
      <trkpt lat="43.69774" lon="6.9997">
        <ele>149.6</ele>
        <time>2009-06-21T09:57:17Z</time>
      </trkpt>
      <trkpt lat="43.69763" lon="6.99946">
        <ele>149.1</ele>
        <time>2009-06-21T09:57:21Z</time>
      </trkpt>
      <trkpt lat="43.69747" lon="6.99931">
        <ele>146.3</ele>
        <time>2009-06-21T09:57:29Z</time>
      </trkpt>
      <trkpt lat="43.69732" lon="6.99913">
        <ele>144.8</ele>
        <time>2009-06-21T09:57:41Z</time>
      </trkpt>
      <trkpt lat="43.69742" lon="6.99892">
        <ele>147.7</ele>
        <time>2009-06-21T09:57:50Z</time>
      </trkpt>
      <trkpt lat="43.6976" lon="6.99891">
        <ele>146.3</ele>
        <time>2009-06-21T09:57:56Z</time>
      </trkpt>
      <trkpt lat="43.69776" lon="6.99903">
        <ele>143.9</ele>
        <time>2009-06-21T09:57:59Z</time>
      </trkpt>
      <trkpt lat="43.698" lon="6.99915">
        <ele>141.9</ele>
        <time>2009-06-21T09:58:02Z</time>
      </trkpt>
      <trkpt lat="43.69827" lon="6.99926">
        <ele>141</ele>
        <time>2009-06-21T09:58:05Z</time>
      </trkpt>
      <trkpt lat="43.69854" lon="6.99928">
        <ele>140.5</ele>
        <time>2009-06-21T09:58:08Z</time>
      </trkpt>
      <trkpt lat="43.6988" lon="6.99918">
        <ele>140.5</ele>
        <time>2009-06-21T09:58:11Z</time>
      </trkpt>
      <trkpt lat="43.69902" lon="6.99906">
        <ele>140</ele>
        <time>2009-06-21T09:58:14Z</time>
      </trkpt>
      <trkpt lat="43.69926" lon="6.99897">
        <ele>140</ele>
        <time>2009-06-21T09:58:17Z</time>
      </trkpt>
      <trkpt lat="43.69947" lon="6.99889">
        <ele>140.5</ele>
        <time>2009-06-21T09:58:20Z</time>
      </trkpt>
      <trkpt lat="43.69968" lon="6.99887">
        <ele>140</ele>
        <time>2009-06-21T09:58:23Z</time>
      </trkpt>
      <trkpt lat="43.69986" lon="6.99892">
        <ele>140.5</ele>
        <time>2009-06-21T09:58:26Z</time>
      </trkpt>
      <trkpt lat="43.70006" lon="6.99907">
        <ele>140.5</ele>
        <time>2009-06-21T09:58:30Z</time>
      </trkpt>
      <trkpt lat="43.70027" lon="6.99917">
        <ele>140.5</ele>
        <time>2009-06-21T09:58:34Z</time>
      </trkpt>
      <trkpt lat="43.70051" lon="6.99918">
        <ele>140</ele>
        <time>2009-06-21T09:58:38Z</time>
      </trkpt>
      <trkpt lat="43.7007" lon="6.99915">
        <ele>140</ele>
        <time>2009-06-21T09:58:42Z</time>
      </trkpt>
      <trkpt lat="43.7009" lon="6.99904">
        <ele>140</ele>
        <time>2009-06-21T09:58:46Z</time>
      </trkpt>
      <trkpt lat="43.70111" lon="6.99898">
        <ele>139.5</ele>
        <time>2009-06-21T09:58:50Z</time>
      </trkpt>
      <trkpt lat="43.70132" lon="6.99892">
        <ele>138.6</ele>
        <time>2009-06-21T09:58:54Z</time>
      </trkpt>
      <trkpt lat="43.70155" lon="6.99885">
        <ele>139.5</ele>
        <time>2009-06-21T09:58:58Z</time>
      </trkpt>
      <trkpt lat="43.70175" lon="6.9988">
        <ele>139.5</ele>
        <time>2009-06-21T09:59:02Z</time>
      </trkpt>
      <trkpt lat="43.70196" lon="6.99869">
        <ele>141</ele>
        <time>2009-06-21T09:59:06Z</time>
      </trkpt>
      <trkpt lat="43.70212" lon="6.99855">
        <ele>141.5</ele>
        <time>2009-06-21T09:59:10Z</time>
      </trkpt>
      <trkpt lat="43.70228" lon="6.99842">
        <ele>142.4</ele>
        <time>2009-06-21T09:59:14Z</time>
      </trkpt>
      <trkpt lat="43.70251" lon="6.99837">
        <ele>141.9</ele>
        <time>2009-06-21T09:59:19Z</time>
      </trkpt>
      <trkpt lat="43.70261" lon="6.99861">
        <ele>144.8</ele>
        <time>2009-06-21T09:59:24Z</time>
      </trkpt>
      <trkpt lat="43.70273" lon="6.99884">
        <ele>143.9</ele>
        <time>2009-06-21T09:59:29Z</time>
      </trkpt>
      <trkpt lat="43.70286" lon="6.99909">
        <ele>141.5</ele>
        <time>2009-06-21T09:59:33Z</time>
      </trkpt>
      <trkpt lat="43.70304" lon="6.9992">
        <ele>138.1</ele>
        <time>2009-06-21T09:59:36Z</time>
      </trkpt>
      <trkpt lat="43.70323" lon="6.99933">
        <ele>136.2</ele>
        <time>2009-06-21T09:59:39Z</time>
      </trkpt>
      <trkpt lat="43.70332" lon="6.99956">
        <ele>135.7</ele>
        <time>2009-06-21T09:59:42Z</time>
      </trkpt>
      <trkpt lat="43.70329" lon="6.99983">
        <ele>135.2</ele>
        <time>2009-06-21T10:00:02Z</time>
      </trkpt>
      <trkpt lat="43.70341" lon="7.00002">
        <ele>137.6</ele>
        <time>2009-06-21T10:00:09Z</time>
      </trkpt>
      <trkpt lat="43.70356" lon="7.00019">
        <ele>137.6</ele>
        <time>2009-06-21T10:00:17Z</time>
      </trkpt>
      <trkpt lat="43.70372" lon="7.0003">
        <ele>141</ele>
        <time>2009-06-21T10:00:26Z</time>
      </trkpt>
      <trkpt lat="43.70392" lon="7.00034">
        <ele>144.8</ele>
        <time>2009-06-21T10:00:36Z</time>
      </trkpt>
      <trkpt lat="43.7041" lon="7.00041">
        <ele>149.1</ele>
        <time>2009-06-21T10:00:47Z</time>
      </trkpt>
      <trkpt lat="43.70433" lon="7.00047">
        <ele>151.5</ele>
        <time>2009-06-21T10:00:58Z</time>
      </trkpt>
      <trkpt lat="43.70448" lon="7.00058">
        <ele>153.9</ele>
        <time>2009-06-21T10:01:08Z</time>
      </trkpt>
      <trkpt lat="43.70425" lon="7.00057">
        <ele>155.9</ele>
        <time>2009-06-21T10:02:59Z</time>
      </trkpt>
      <trkpt lat="43.704" lon="7.00066">
        <ele>155.9</ele>
        <time>2009-06-21T10:03:10Z</time>
      </trkpt>
      <trkpt lat="43.70382" lon="7.00083">
        <ele>155.4</ele>
        <time>2009-06-21T10:03:19Z</time>
      </trkpt>
      <trkpt lat="43.70366" lon="7.00104">
        <ele>153.5</ele>
        <time>2009-06-21T10:03:24Z</time>
      </trkpt>
      <trkpt lat="43.70354" lon="7.00128">
        <ele>154.4</ele>
        <time>2009-06-21T10:03:28Z</time>
      </trkpt>
      <trkpt lat="43.70344" lon="7.00155">
        <ele>153.9</ele>
        <time>2009-06-21T10:03:32Z</time>
      </trkpt>
      <trkpt lat="43.70338" lon="7.00178">
        <ele>153.9</ele>
        <time>2009-06-21T10:03:35Z</time>
      </trkpt>
      <trkpt lat="43.70331" lon="7.00202">
        <ele>153.9</ele>
        <time>2009-06-21T10:03:38Z</time>
      </trkpt>
      <trkpt lat="43.70322" lon="7.00226">
        <ele>153.5</ele>
        <time>2009-06-21T10:03:41Z</time>
      </trkpt>
      <trkpt lat="43.70307" lon="7.00242">
        <ele>153.9</ele>
        <time>2009-06-21T10:03:44Z</time>
      </trkpt>
      <trkpt lat="43.70284" lon="7.00255">
        <ele>153.9</ele>
        <time>2009-06-21T10:03:48Z</time>
      </trkpt>
      <trkpt lat="43.70266" lon="7.00269">
        <ele>153.5</ele>
        <time>2009-06-21T10:03:52Z</time>
      </trkpt>
      <trkpt lat="43.7025" lon="7.00289">
        <ele>154.4</ele>
        <time>2009-06-21T10:03:56Z</time>
      </trkpt>
      <trkpt lat="43.70242" lon="7.00316">
        <ele>155.9</ele>
        <time>2009-06-21T10:04:01Z</time>
      </trkpt>
      <trkpt lat="43.70239" lon="7.00342">
        <ele>156.8</ele>
        <time>2009-06-21T10:04:13Z</time>
      </trkpt>
      <trkpt lat="43.70237" lon="7.00367">
        <ele>161.2</ele>
        <time>2009-06-21T10:04:26Z</time>
      </trkpt>
      <trkpt lat="43.70238" lon="7.00399">
        <ele>164</ele>
        <time>2009-06-21T10:04:41Z</time>
      </trkpt>
      <trkpt lat="43.70241" lon="7.00424">
        <ele>166.9</ele>
        <time>2009-06-21T10:04:55Z</time>
      </trkpt>
      <trkpt lat="43.7025" lon="7.00448">
        <ele>169.3</ele>
        <time>2009-06-21T10:05:11Z</time>
      </trkpt>
      <trkpt lat="43.70263" lon="7.00478">
        <ele>175.6</ele>
        <time>2009-06-21T10:05:40Z</time>
      </trkpt>
      <trkpt lat="43.7025" lon="7.00499">
        <ele>179.9</ele>
        <time>2009-06-21T10:06:05Z</time>
      </trkpt>
      <trkpt lat="43.70235" lon="7.00519">
        <ele>182.8</ele>
        <time>2009-06-21T10:06:24Z</time>
      </trkpt>
      <trkpt lat="43.70225" lon="7.00545">
        <ele>187.6</ele>
        <time>2009-06-21T10:06:44Z</time>
      </trkpt>
      <trkpt lat="43.70219" lon="7.0057">
        <ele>191.4</ele>
        <time>2009-06-21T10:07:06Z</time>
      </trkpt>
      <trkpt lat="43.70213" lon="7.00604">
        <ele>194.8</ele>
        <time>2009-06-21T10:07:31Z</time>
      </trkpt>
      <trkpt lat="43.70213" lon="7.00644">
        <ele>198.6</ele>
        <time>2009-06-21T10:07:57Z</time>
      </trkpt>
      <trkpt lat="43.70212" lon="7.00678">
        <ele>201.1</ele>
        <time>2009-06-21T10:08:18Z</time>
      </trkpt>
      <trkpt lat="43.70213" lon="7.00707">
        <ele>204.9</ele>
        <time>2009-06-21T10:08:35Z</time>
      </trkpt>
      <trkpt lat="43.70214" lon="7.00733">
        <ele>209.7</ele>
        <time>2009-06-21T10:08:52Z</time>
      </trkpt>
      <trkpt lat="43.70215" lon="7.0076">
        <ele>212.1</ele>
        <time>2009-06-21T10:09:11Z</time>
      </trkpt>
      <trkpt lat="43.70215" lon="7.00785">
        <ele>213.6</ele>
        <time>2009-06-21T10:09:29Z</time>
      </trkpt>
      <trkpt lat="43.70219" lon="7.00813">
        <ele>217.4</ele>
        <time>2009-06-21T10:09:48Z</time>
      </trkpt>
      <trkpt lat="43.70228" lon="7.00836">
        <ele>224.1</ele>
        <time>2009-06-21T10:10:07Z</time>
      </trkpt>
      <trkpt lat="43.7024" lon="7.0086">
        <ele>229.4</ele>
        <time>2009-06-21T10:10:27Z</time>
      </trkpt>
      <trkpt lat="43.70246" lon="7.00886">
        <ele>230.4</ele>
        <time>2009-06-21T10:10:41Z</time>
      </trkpt>
      <trkpt lat="43.70251" lon="7.00913">
        <ele>231.3</ele>
        <time>2009-06-21T10:10:51Z</time>
      </trkpt>
      <trkpt lat="43.70262" lon="7.0094">
        <ele>232.3</ele>
        <time>2009-06-21T10:11:00Z</time>
      </trkpt>
      <trkpt lat="43.70275" lon="7.00959">
        <ele>231.8</ele>
        <time>2009-06-21T10:11:07Z</time>
      </trkpt>
      <trkpt lat="43.7029" lon="7.00979">
        <ele>231.8</ele>
        <time>2009-06-21T10:11:13Z</time>
      </trkpt>
      <trkpt lat="43.70306" lon="7.00993">
        <ele>231.3</ele>
        <time>2009-06-21T10:11:19Z</time>
      </trkpt>
      <trkpt lat="43.70317" lon="7.01013">
        <ele>230.9</ele>
        <time>2009-06-21T10:11:25Z</time>
      </trkpt>
      <trkpt lat="43.70308" lon="7.01042">
        <ele>231.3</ele>
        <time>2009-06-21T10:11:31Z</time>
      </trkpt>
      <trkpt lat="43.70297" lon="7.01065">
        <ele>232.3</ele>
        <time>2009-06-21T10:11:36Z</time>
      </trkpt>
      <trkpt lat="43.70279" lon="7.01081">
        <ele>232.8</ele>
        <time>2009-06-21T10:11:42Z</time>
      </trkpt>
      <trkpt lat="43.70266" lon="7.01102">
        <ele>231.8</ele>
        <time>2009-06-21T10:11:50Z</time>
      </trkpt>
      <trkpt lat="43.70259" lon="7.01128">
        <ele>234.7</ele>
        <time>2009-06-21T10:12:00Z</time>
      </trkpt>
      <trkpt lat="43.70249" lon="7.01152">
        <ele>237.6</ele>
        <time>2009-06-21T10:12:14Z</time>
      </trkpt>
      <trkpt lat="43.70239" lon="7.01178">
        <ele>240</ele>
        <time>2009-06-21T10:12:27Z</time>
      </trkpt>
      <trkpt lat="43.70231" lon="7.01203">
        <ele>241.9</ele>
        <time>2009-06-21T10:12:36Z</time>
      </trkpt>
      <trkpt lat="43.70224" lon="7.01229">
        <ele>242.4</ele>
        <time>2009-06-21T10:12:44Z</time>
      </trkpt>
      <trkpt lat="43.7022" lon="7.01255">
        <ele>243.4</ele>
        <time>2009-06-21T10:12:52Z</time>
      </trkpt>
      <trkpt lat="43.70222" lon="7.01289">
        <ele>243.8</ele>
        <time>2009-06-21T10:13:00Z</time>
      </trkpt>
      <trkpt lat="43.70223" lon="7.01319">
        <ele>245.3</ele>
        <time>2009-06-21T10:13:07Z</time>
      </trkpt>
      <trkpt lat="43.70224" lon="7.01348">
        <ele>244.8</ele>
        <time>2009-06-21T10:13:13Z</time>
      </trkpt>
      <trkpt lat="43.70228" lon="7.01376">
        <ele>243.4</ele>
        <time>2009-06-21T10:13:17Z</time>
      </trkpt>
      <trkpt lat="43.70232" lon="7.01401">
        <ele>244.3</ele>
        <time>2009-06-21T10:13:20Z</time>
      </trkpt>
      <trkpt lat="43.70234" lon="7.01429">
        <ele>244.3</ele>
        <time>2009-06-21T10:13:24Z</time>
      </trkpt>
      <trkpt lat="43.70234" lon="7.01453">
        <ele>247.2</ele>
        <time>2009-06-21T10:13:33Z</time>
      </trkpt>
      <trkpt lat="43.70241" lon="7.01481">
        <ele>249.1</ele>
        <time>2009-06-21T10:13:48Z</time>
      </trkpt>
      <trkpt lat="43.70236" lon="7.01512">
        <ele>253.4</ele>
        <time>2009-06-21T10:14:08Z</time>
      </trkpt>
      <trkpt lat="43.70224" lon="7.01544">
        <ele>258.7</ele>
        <time>2009-06-21T10:14:28Z</time>
      </trkpt>
      <trkpt lat="43.70219" lon="7.01573">
        <ele>261.1</ele>
        <time>2009-06-21T10:14:45Z</time>
      </trkpt>
      <trkpt lat="43.7021" lon="7.016">
        <ele>264</ele>
        <time>2009-06-21T10:14:57Z</time>
      </trkpt>
      <trkpt lat="43.702" lon="7.01621">
        <ele>265.5</ele>
        <time>2009-06-21T10:15:11Z</time>
      </trkpt>
      <trkpt lat="43.70186" lon="7.01644">
        <ele>270.3</ele>
        <time>2009-06-21T10:15:28Z</time>
      </trkpt>
      <trkpt lat="43.70179" lon="7.01673">
        <ele>270.7</ele>
        <time>2009-06-21T10:15:44Z</time>
      </trkpt>
      <trkpt lat="43.70184" lon="7.01702">
        <ele>272.7</ele>
        <time>2009-06-21T10:15:56Z</time>
      </trkpt>
      <trkpt lat="43.70201" lon="7.01718">
        <ele>274.6</ele>
        <time>2009-06-21T10:16:07Z</time>
      </trkpt>
      <trkpt lat="43.70211" lon="7.01693">
        <ele>278</ele>
        <time>2009-06-21T10:16:23Z</time>
      </trkpt>
      <trkpt lat="43.70226" lon="7.01676">
        <ele>284.7</ele>
        <time>2009-06-21T10:16:41Z</time>
      </trkpt>
      <trkpt lat="43.70244" lon="7.01665">
        <ele>290.5</ele>
        <time>2009-06-21T10:16:58Z</time>
      </trkpt>
      <trkpt lat="43.70259" lon="7.0168">
        <ele>294.8</ele>
        <time>2009-06-21T10:17:17Z</time>
      </trkpt>
      <trkpt lat="43.70273" lon="7.01706">
        <ele>296.2</ele>
        <time>2009-06-21T10:17:37Z</time>
      </trkpt>
      <trkpt lat="43.70285" lon="7.01689">
        <ele>296.7</ele>
        <time>2009-06-21T10:17:53Z</time>
      </trkpt>
      <trkpt lat="43.70304" lon="7.01679">
        <ele>297.7</ele>
        <time>2009-06-21T10:18:13Z</time>
      </trkpt>
      <trkpt lat="43.7032" lon="7.01697">
        <ele>300.5</ele>
        <time>2009-06-21T10:18:29Z</time>
      </trkpt>
      <trkpt lat="43.70321" lon="7.01723">
        <ele>302.5</ele>
        <time>2009-06-21T10:18:46Z</time>
      </trkpt>
      <trkpt lat="43.70339" lon="7.01732">
        <ele>303.9</ele>
        <time>2009-06-21T10:18:58Z</time>
      </trkpt>
      <trkpt lat="43.7035" lon="7.01748">
        <ele>305.4</ele>
        <time>2009-06-21T10:19:14Z</time>
      </trkpt>
      <trkpt lat="43.70358" lon="7.01776">
        <ele>310.2</ele>
        <time>2009-06-21T10:19:27Z</time>
      </trkpt>
      <trkpt lat="43.70376" lon="7.01768">
        <ele>315</ele>
        <time>2009-06-21T10:19:48Z</time>
      </trkpt>
      <trkpt lat="43.70389" lon="7.01744">
        <ele>317.4</ele>
        <time>2009-06-21T10:20:07Z</time>
      </trkpt>
      <trkpt lat="43.70405" lon="7.01724">
        <ele>316.4</ele>
        <time>2009-06-21T10:20:20Z</time>
      </trkpt>
      <trkpt lat="43.7042" lon="7.01713">
        <ele>320.3</ele>
        <time>2009-06-21T10:20:33Z</time>
      </trkpt>
      <trkpt lat="43.70438" lon="7.01715">
        <ele>323.6</ele>
        <time>2009-06-21T10:20:46Z</time>
      </trkpt>
      <trkpt lat="43.70455" lon="7.01701">
        <ele>325.5</ele>
        <time>2009-06-21T10:20:58Z</time>
      </trkpt>
      <trkpt lat="43.70467" lon="7.0168">
        <ele>326</ele>
        <time>2009-06-21T10:21:14Z</time>
      </trkpt>
      <trkpt lat="43.70481" lon="7.01695">
        <ele>327.9</ele>
        <time>2009-06-21T10:21:31Z</time>
      </trkpt>
      <trkpt lat="43.70492" lon="7.01712">
        <ele>331.3</ele>
        <time>2009-06-21T10:21:47Z</time>
      </trkpt>
      <trkpt lat="43.70506" lon="7.01728">
        <ele>335.6</ele>
        <time>2009-06-21T10:22:02Z</time>
      </trkpt>
      <trkpt lat="43.70519" lon="7.01744">
        <ele>338</ele>
        <time>2009-06-21T10:22:18Z</time>
      </trkpt>
      <trkpt lat="43.70532" lon="7.01759">
        <ele>344.8</ele>
        <time>2009-06-21T10:22:36Z</time>
      </trkpt>
      <trkpt lat="43.70547" lon="7.0178">
        <ele>345.7</ele>
        <time>2009-06-21T10:22:54Z</time>
      </trkpt>
      <trkpt lat="43.7056" lon="7.01795">
        <ele>345.3</ele>
        <time>2009-06-21T10:23:11Z</time>
      </trkpt>
      <trkpt lat="43.7057" lon="7.01817">
        <ele>343.3</ele>
        <time>2009-06-21T10:23:30Z</time>
      </trkpt>
      <trkpt lat="43.70579" lon="7.01837">
        <ele>347.7</ele>
        <time>2009-06-21T10:23:47Z</time>
      </trkpt>
      <trkpt lat="43.70583" lon="7.01862">
        <ele>352</ele>
        <time>2009-06-21T10:24:05Z</time>
      </trkpt>
      <trkpt lat="43.70582" lon="7.01885">
        <ele>357.3</ele>
        <time>2009-06-21T10:24:25Z</time>
      </trkpt>
      <trkpt lat="43.706" lon="7.01885">
        <ele>361.6</ele>
        <time>2009-06-21T10:25:00Z</time>
      </trkpt>
      <trkpt lat="43.70612" lon="7.01867">
        <ele>365.4</ele>
        <time>2009-06-21T10:25:18Z</time>
      </trkpt>
      <trkpt lat="43.70625" lon="7.01841">
        <ele>369.3</ele>
        <time>2009-06-21T10:26:15Z</time>
      </trkpt>
      <trkpt lat="43.70638" lon="7.01819">
        <ele>372.6</ele>
        <time>2009-06-21T10:26:33Z</time>
      </trkpt>
      <trkpt lat="43.70647" lon="7.01797">
        <ele>375.5</ele>
        <time>2009-06-21T10:26:49Z</time>
      </trkpt>
      <trkpt lat="43.70657" lon="7.01775">
        <ele>378.4</ele>
        <time>2009-06-21T10:27:05Z</time>
      </trkpt>
      <trkpt lat="43.70669" lon="7.01754">
        <ele>382.3</ele>
        <time>2009-06-21T10:27:22Z</time>
      </trkpt>
      <trkpt lat="43.70684" lon="7.01733">
        <ele>383.7</ele>
        <time>2009-06-21T10:27:38Z</time>
      </trkpt>
      <trkpt lat="43.70692" lon="7.01707">
        <ele>382.3</ele>
        <time>2009-06-21T10:27:56Z</time>
      </trkpt>
      <trkpt lat="43.70698" lon="7.01683">
        <ele>385.6</ele>
        <time>2009-06-21T10:28:13Z</time>
      </trkpt>
      <trkpt lat="43.70706" lon="7.01654">
        <ele>389.5</ele>
        <time>2009-06-21T10:28:33Z</time>
      </trkpt>
      <trkpt lat="43.70713" lon="7.01598">
        <ele>398.1</ele>
        <time>2009-06-21T10:29:17Z</time>
      </trkpt>
      <trkpt lat="43.70721" lon="7.01569">
        <ele>405.8</ele>
        <time>2009-06-21T10:29:44Z</time>
      </trkpt>
      <trkpt lat="43.70729" lon="7.01543">
        <ele>410.6</ele>
        <time>2009-06-21T10:30:10Z</time>
      </trkpt>
      <trkpt lat="43.7074" lon="7.0151">
        <ele>416.4</ele>
        <time>2009-06-21T10:30:42Z</time>
      </trkpt>
      <trkpt lat="43.70747" lon="7.01481">
        <ele>420.2</ele>
        <time>2009-06-21T10:31:08Z</time>
      </trkpt>
      <trkpt lat="43.70755" lon="7.01458">
        <ele>423.1</ele>
        <time>2009-06-21T10:31:29Z</time>
      </trkpt>
      <trkpt lat="43.70769" lon="7.01436">
        <ele>424.1</ele>
        <time>2009-06-21T10:31:50Z</time>
      </trkpt>
      <trkpt lat="43.70784" lon="7.01413">
        <ele>424.1</ele>
        <time>2009-06-21T10:32:06Z</time>
      </trkpt>
      <trkpt lat="43.70797" lon="7.01394">
        <ele>429.8</ele>
        <time>2009-06-21T10:32:22Z</time>
      </trkpt>
      <trkpt lat="43.70799" lon="7.0142">
        <ele>430.3</ele>
        <time>2009-06-21T10:32:39Z</time>
      </trkpt>
      <trkpt lat="43.70801" lon="7.01449">
        <ele>432.7</ele>
        <time>2009-06-21T10:32:54Z</time>
      </trkpt>
      <trkpt lat="43.70803" lon="7.01475">
        <ele>437.5</ele>
        <time>2009-06-21T10:33:10Z</time>
      </trkpt>
      <trkpt lat="43.70807" lon="7.01502">
        <ele>443.3</ele>
        <time>2009-06-21T10:33:27Z</time>
      </trkpt>
      <trkpt lat="43.70815" lon="7.01533">
        <ele>442.8</ele>
        <time>2009-06-21T10:33:44Z</time>
      </trkpt>
      <trkpt lat="43.70816" lon="7.0156">
        <ele>442.3</ele>
        <time>2009-06-21T10:34:00Z</time>
      </trkpt>
      <trkpt lat="43.70823" lon="7.01589">
        <ele>442.8</ele>
        <time>2009-06-21T10:34:15Z</time>
      </trkpt>
      <trkpt lat="43.70834" lon="7.01611">
        <ele>445.7</ele>
        <time>2009-06-21T10:34:28Z</time>
      </trkpt>
      <trkpt lat="43.70848" lon="7.01628">
        <ele>447.6</ele>
        <time>2009-06-21T10:34:39Z</time>
      </trkpt>
      <trkpt lat="43.70861" lon="7.01645">
        <ele>450.5</ele>
        <time>2009-06-21T10:34:50Z</time>
      </trkpt>
      <trkpt lat="43.70875" lon="7.01663">
        <ele>451</ele>
        <time>2009-06-21T10:35:02Z</time>
      </trkpt>
      <trkpt lat="43.70888" lon="7.01682">
        <ele>453.4</ele>
        <time>2009-06-21T10:35:17Z</time>
      </trkpt>
      <trkpt lat="43.70899" lon="7.01701">
        <ele>456.3</ele>
        <time>2009-06-21T10:35:38Z</time>
      </trkpt>
      <trkpt lat="43.70905" lon="7.01726">
        <ele>459.2</ele>
        <time>2009-06-21T10:35:57Z</time>
      </trkpt>
      <trkpt lat="43.70916" lon="7.01721">
        <ele>463</ele>
        <time>2009-06-21T10:36:13Z</time>
      </trkpt>
      <trkpt lat="43.70913" lon="7.01696">
        <ele>464.5</ele>
        <time>2009-06-21T10:36:29Z</time>
      </trkpt>
      <trkpt lat="43.70913" lon="7.01669">
        <ele>466.9</ele>
        <time>2009-06-21T10:36:48Z</time>
      </trkpt>
      <trkpt lat="43.70916" lon="7.01644">
        <ele>467.3</ele>
        <time>2009-06-21T10:37:06Z</time>
      </trkpt>
      <trkpt lat="43.70914" lon="7.01618">
        <ele>469.3</ele>
        <time>2009-06-21T10:37:23Z</time>
      </trkpt>
      <trkpt lat="43.70905" lon="7.01593">
        <ele>471.2</ele>
        <time>2009-06-21T10:37:42Z</time>
      </trkpt>
      <trkpt lat="43.70919" lon="7.01591">
        <ele>475.5</ele>
        <time>2009-06-21T10:37:57Z</time>
      </trkpt>
      <trkpt lat="43.70927" lon="7.01618">
        <ele>479.8</ele>
        <time>2009-06-21T10:38:43Z</time>
      </trkpt>
      <trkpt lat="43.70936" lon="7.0164">
        <ele>481.8</ele>
        <time>2009-06-21T10:38:59Z</time>
      </trkpt>
      <trkpt lat="43.70944" lon="7.01663">
        <ele>485.1</ele>
        <time>2009-06-21T10:39:14Z</time>
      </trkpt>
      <trkpt lat="43.70955" lon="7.01682">
        <ele>487</ele>
        <time>2009-06-21T10:39:33Z</time>
      </trkpt>
      <trkpt lat="43.70967" lon="7.01706">
        <ele>491.9</ele>
        <time>2009-06-21T10:40:01Z</time>
      </trkpt>
      <trkpt lat="43.70973" lon="7.01731">
        <ele>495.2</ele>
        <time>2009-06-21T10:40:23Z</time>
      </trkpt>
      <trkpt lat="43.70984" lon="7.01731">
        <ele>496.2</ele>
        <time>2009-06-21T10:40:41Z</time>
      </trkpt>
      <trkpt lat="43.70978" lon="7.01706">
        <ele>496.7</ele>
        <time>2009-06-21T10:40:54Z</time>
      </trkpt>
      <trkpt lat="43.70979" lon="7.01682">
        <ele>503.4</ele>
        <time>2009-06-21T10:41:09Z</time>
      </trkpt>
      <trkpt lat="43.70976" lon="7.01656">
        <ele>508.2</ele>
        <time>2009-06-21T10:41:24Z</time>
      </trkpt>
      <trkpt lat="43.70972" lon="7.01627">
        <ele>512</ele>
        <time>2009-06-21T10:41:39Z</time>
      </trkpt>
      <trkpt lat="43.70971" lon="7.01595">
        <ele>514.4</ele>
        <time>2009-06-21T10:41:56Z</time>
      </trkpt>
      <trkpt lat="43.70969" lon="7.01564">
        <ele>512.5</ele>
        <time>2009-06-21T10:42:20Z</time>
      </trkpt>
      <trkpt lat="43.70968" lon="7.01536">
        <ele>513.5</ele>
        <time>2009-06-21T10:42:43Z</time>
      </trkpt>
      <trkpt lat="43.70966" lon="7.01507">
        <ele>518.3</ele>
        <time>2009-06-21T10:43:06Z</time>
      </trkpt>
      <trkpt lat="43.70972" lon="7.01487">
        <ele>526.5</ele>
        <time>2009-06-21T10:43:27Z</time>
      </trkpt>
      <trkpt lat="43.70982" lon="7.01508">
        <ele>530.3</ele>
        <time>2009-06-21T10:43:43Z</time>
      </trkpt>
      <trkpt lat="43.70988" lon="7.01531">
        <ele>530.8</ele>
        <time>2009-06-21T10:44:03Z</time>
      </trkpt>
      <trkpt lat="43.70998" lon="7.01553">
        <ele>533.7</ele>
        <time>2009-06-21T10:44:23Z</time>
      </trkpt>
      <trkpt lat="43.71006" lon="7.01578">
        <ele>535.6</ele>
        <time>2009-06-21T10:44:45Z</time>
      </trkpt>
      <trkpt lat="43.71018" lon="7.01598">
        <ele>536.6</ele>
        <time>2009-06-21T10:45:06Z</time>
      </trkpt>
      <trkpt lat="43.7103" lon="7.0162">
        <ele>540.9</ele>
        <time>2009-06-21T10:45:25Z</time>
      </trkpt>
      <trkpt lat="43.71041" lon="7.01639">
        <ele>543.8</ele>
        <time>2009-06-21T10:45:44Z</time>
      </trkpt>
      <trkpt lat="43.71048" lon="7.01664">
        <ele>548.6</ele>
        <time>2009-06-21T10:46:04Z</time>
      </trkpt>
      <trkpt lat="43.71053" lon="7.01689">
        <ele>552.4</ele>
        <time>2009-06-21T10:46:24Z</time>
      </trkpt>
      <trkpt lat="43.71056" lon="7.01715">
        <ele>553.9</ele>
        <time>2009-06-21T10:46:44Z</time>
      </trkpt>
      <trkpt lat="43.71065" lon="7.01704">
        <ele>554.8</ele>
        <time>2009-06-21T10:47:00Z</time>
      </trkpt>
      <trkpt lat="43.71062" lon="7.01677">
        <ele>556.7</ele>
        <time>2009-06-21T10:47:13Z</time>
      </trkpt>
      <trkpt lat="43.71064" lon="7.01653">
        <ele>560.6</ele>
        <time>2009-06-21T10:47:29Z</time>
      </trkpt>
      <trkpt lat="43.71063" lon="7.01625">
        <ele>561.5</ele>
        <time>2009-06-21T10:47:50Z</time>
      </trkpt>
      <trkpt lat="43.71063" lon="7.01594">
        <ele>564.4</ele>
        <time>2009-06-21T10:48:15Z</time>
      </trkpt>
      <trkpt lat="43.71056" lon="7.0156">
        <ele>569.2</ele>
        <time>2009-06-21T10:48:44Z</time>
      </trkpt>
      <trkpt lat="43.71058" lon="7.0153">
        <ele>569.2</ele>
        <time>2009-06-21T10:49:04Z</time>
      </trkpt>
      <trkpt lat="43.71062" lon="7.01499">
        <ele>572.6</ele>
        <time>2009-06-21T10:49:29Z</time>
      </trkpt>
      <trkpt lat="43.71061" lon="7.01473">
        <ele>578.4</ele>
        <time>2009-06-21T10:49:47Z</time>
      </trkpt>
      <trkpt lat="43.71068" lon="7.01446">
        <ele>584.6</ele>
        <time>2009-06-21T10:50:08Z</time>
      </trkpt>
      <trkpt lat="43.71076" lon="7.01424">
        <ele>586.1</ele>
        <time>2009-06-21T10:50:26Z</time>
      </trkpt>
      <trkpt lat="43.71083" lon="7.014">
        <ele>588</ele>
        <time>2009-06-21T10:50:42Z</time>
      </trkpt>
      <trkpt lat="43.71093" lon="7.01377">
        <ele>590.4</ele>
        <time>2009-06-21T10:50:56Z</time>
      </trkpt>
      <trkpt lat="43.71103" lon="7.01354">
        <ele>592.3</ele>
        <time>2009-06-21T10:51:12Z</time>
      </trkpt>
      <trkpt lat="43.71112" lon="7.01326">
        <ele>593.8</ele>
        <time>2009-06-21T10:51:32Z</time>
      </trkpt>
      <trkpt lat="43.71119" lon="7.01298">
        <ele>601</ele>
        <time>2009-06-21T10:51:57Z</time>
      </trkpt>
      <trkpt lat="43.7113" lon="7.0127">
        <ele>604.3</ele>
        <time>2009-06-21T10:52:22Z</time>
      </trkpt>
      <trkpt lat="43.71146" lon="7.01257">
        <ele>611.5</ele>
        <time>2009-06-21T10:52:42Z</time>
      </trkpt>
      <trkpt lat="43.71161" lon="7.01239">
        <ele>618.3</ele>
        <time>2009-06-21T10:53:02Z</time>
      </trkpt>
      <trkpt lat="43.71167" lon="7.01216">
        <ele>622.1</ele>
        <time>2009-06-21T10:53:19Z</time>
      </trkpt>
      <trkpt lat="43.71166" lon="7.01193">
        <ele>617.3</ele>
        <time>2009-06-21T10:53:33Z</time>
      </trkpt>
      <trkpt lat="43.71158" lon="7.01171">
        <ele>617.3</ele>
        <time>2009-06-21T10:53:47Z</time>
      </trkpt>
      <trkpt lat="43.71162" lon="7.01144">
        <ele>621.1</ele>
        <time>2009-06-21T10:55:20Z</time>
      </trkpt>
      <trkpt lat="43.71173" lon="7.01146">
        <ele>625</ele>
        <time>2009-06-21T10:55:34Z</time>
      </trkpt>
      <trkpt lat="43.71181" lon="7.01168">
        <ele>627.9</ele>
        <time>2009-06-21T10:55:53Z</time>
      </trkpt>
      <trkpt lat="43.71197" lon="7.01183">
        <ele>628.8</ele>
        <time>2009-06-21T10:56:14Z</time>
      </trkpt>
      <trkpt lat="43.7121" lon="7.01205">
        <ele>633.2</ele>
        <time>2009-06-21T10:56:37Z</time>
      </trkpt>
      <trkpt lat="43.71205" lon="7.01232">
        <ele>637</ele>
        <time>2009-06-21T10:56:59Z</time>
      </trkpt>
      <trkpt lat="43.712" lon="7.01255">
        <ele>638</ele>
        <time>2009-06-21T10:57:19Z</time>
      </trkpt>
      <trkpt lat="43.71198" lon="7.01281">
        <ele>640.4</ele>
        <time>2009-06-21T10:57:35Z</time>
      </trkpt>
      <trkpt lat="43.71195" lon="7.01304">
        <ele>643.7</ele>
        <time>2009-06-21T10:57:49Z</time>
      </trkpt>
      <trkpt lat="43.71195" lon="7.01331">
        <ele>645.2</ele>
        <time>2009-06-21T10:58:03Z</time>
      </trkpt>
      <trkpt lat="43.71192" lon="7.01356">
        <ele>646.1</ele>
        <time>2009-06-21T10:58:18Z</time>
      </trkpt>
      <trkpt lat="43.71198" lon="7.01368">
        <ele>649</ele>
        <time>2009-06-21T10:58:33Z</time>
      </trkpt>
      <trkpt lat="43.71208" lon="7.01344">
        <ele>649</ele>
        <time>2009-06-21T10:58:48Z</time>
      </trkpt>
      <trkpt lat="43.71217" lon="7.01319">
        <ele>652.4</ele>
        <time>2009-06-21T10:59:03Z</time>
      </trkpt>
      <trkpt lat="43.71228" lon="7.01298">
        <ele>655.3</ele>
        <time>2009-06-21T10:59:18Z</time>
      </trkpt>
      <trkpt lat="43.71242" lon="7.0128">
        <ele>657.2</ele>
        <time>2009-06-21T10:59:33Z</time>
      </trkpt>
      <trkpt lat="43.71256" lon="7.01271">
        <ele>664.4</ele>
        <time>2009-06-21T10:59:49Z</time>
      </trkpt>
      <trkpt lat="43.71276" lon="7.01256">
        <ele>674</ele>
        <time>2009-06-21T11:00:10Z</time>
      </trkpt>
      <trkpt lat="43.7129" lon="7.01236">
        <ele>679.8</ele>
        <time>2009-06-21T11:00:26Z</time>
      </trkpt>
      <trkpt lat="43.71302" lon="7.01217">
        <ele>683.2</ele>
        <time>2009-06-21T11:00:42Z</time>
      </trkpt>
      <trkpt lat="43.71299" lon="7.01185">
        <ele>682.2</ele>
        <time>2009-06-21T11:00:59Z</time>
      </trkpt>
      <trkpt lat="43.71298" lon="7.01161">
        <ele>681.7</ele>
        <time>2009-06-21T11:01:13Z</time>
      </trkpt>
      <trkpt lat="43.7131" lon="7.01174">
        <ele>683.2</ele>
        <time>2009-06-21T11:01:27Z</time>
      </trkpt>
      <trkpt lat="43.71321" lon="7.01201">
        <ele>685.1</ele>
        <time>2009-06-21T11:01:50Z</time>
      </trkpt>
      <trkpt lat="43.71329" lon="7.01233">
        <ele>688</ele>
        <time>2009-06-21T11:02:10Z</time>
      </trkpt>
      <trkpt lat="43.71334" lon="7.01262">
        <ele>691.3</ele>
        <time>2009-06-21T11:02:36Z</time>
      </trkpt>
      <trkpt lat="43.71329" lon="7.01287">
        <ele>692.3</ele>
        <time>2009-06-21T11:02:58Z</time>
      </trkpt>
      <trkpt lat="43.71315" lon="7.01306">
        <ele>693.7</ele>
        <time>2009-06-21T11:03:18Z</time>
      </trkpt>
      <trkpt lat="43.71299" lon="7.01318">
        <ele>700</ele>
        <time>2009-06-21T11:03:33Z</time>
      </trkpt>
      <trkpt lat="43.71292" lon="7.01338">
        <ele>702.4</ele>
        <time>2009-06-21T11:03:45Z</time>
      </trkpt>
      <trkpt lat="43.71293" lon="7.01363">
        <ele>706.2</ele>
        <time>2009-06-21T11:03:59Z</time>
      </trkpt>
      <trkpt lat="43.71293" lon="7.0139">
        <ele>707.7</ele>
        <time>2009-06-21T11:04:12Z</time>
      </trkpt>
      <trkpt lat="43.71301" lon="7.01403">
        <ele>710.6</ele>
        <time>2009-06-21T11:04:25Z</time>
      </trkpt>
      <trkpt lat="43.71312" lon="7.01382">
        <ele>711</ele>
        <time>2009-06-21T11:04:39Z</time>
      </trkpt>
      <trkpt lat="43.71318" lon="7.01357">
        <ele>713.4</ele>
        <time>2009-06-21T11:04:53Z</time>
      </trkpt>
      <trkpt lat="43.71328" lon="7.01339">
        <ele>716.8</ele>
        <time>2009-06-21T11:05:09Z</time>
      </trkpt>
      <trkpt lat="43.71345" lon="7.01326">
        <ele>720.6</ele>
        <time>2009-06-21T11:05:28Z</time>
      </trkpt>
      <trkpt lat="43.7136" lon="7.01305">
        <ele>725</ele>
        <time>2009-06-21T11:05:47Z</time>
      </trkpt>
      <trkpt lat="43.7137" lon="7.01287">
        <ele>725.9</ele>
        <time>2009-06-21T11:06:05Z</time>
      </trkpt>
      <trkpt lat="43.71377" lon="7.01264">
        <ele>725.9</ele>
        <time>2009-06-21T11:06:22Z</time>
      </trkpt>
      <trkpt lat="43.71383" lon="7.01236">
        <ele>731.2</ele>
        <time>2009-06-21T11:06:40Z</time>
      </trkpt>
      <trkpt lat="43.71391" lon="7.01208">
        <ele>736.5</ele>
        <time>2009-06-21T11:07:01Z</time>
      </trkpt>
      <trkpt lat="43.71399" lon="7.01187">
        <ele>740.4</ele>
        <time>2009-06-21T11:07:18Z</time>
      </trkpt>
      <trkpt lat="43.71412" lon="7.01175">
        <ele>745.6</ele>
        <time>2009-06-21T11:07:35Z</time>
      </trkpt>
      <trkpt lat="43.71431" lon="7.01183">
        <ele>748.5</ele>
        <time>2009-06-21T11:07:50Z</time>
      </trkpt>
      <trkpt lat="43.71449" lon="7.01188">
        <ele>750</ele>
        <time>2009-06-21T11:08:04Z</time>
      </trkpt>
      <trkpt lat="43.71466" lon="7.01182">
        <ele>752.8</ele>
        <time>2009-06-21T11:08:19Z</time>
      </trkpt>
      <trkpt lat="43.71487" lon="7.01175">
        <ele>752.4</ele>
        <time>2009-06-21T11:08:39Z</time>
      </trkpt>
      <trkpt lat="43.71502" lon="7.0117">
        <ele>758.1</ele>
        <time>2009-06-21T11:08:59Z</time>
      </trkpt>
      <trkpt lat="43.7152" lon="7.01166">
        <ele>760.5</ele>
        <time>2009-06-21T11:09:21Z</time>
      </trkpt>
      <trkpt lat="43.71536" lon="7.01179">
        <ele>763.4</ele>
        <time>2009-06-21T11:09:38Z</time>
      </trkpt>
      <trkpt lat="43.7155" lon="7.01197">
        <ele>763.9</ele>
        <time>2009-06-21T11:09:55Z</time>
      </trkpt>
      <trkpt lat="43.71567" lon="7.01208">
        <ele>767.8</ele>
        <time>2009-06-21T11:10:12Z</time>
      </trkpt>
      <trkpt lat="43.71599" lon="7.012">
        <ele>775.9</ele>
        <time>2009-06-21T11:10:49Z</time>
      </trkpt>
      <trkpt lat="43.71612" lon="7.01214">
        <ele>776.9</ele>
        <time>2009-06-21T11:11:11Z</time>
      </trkpt>
      <trkpt lat="43.71615" lon="7.01239">
        <ele>778.3</ele>
        <time>2009-06-21T11:11:28Z</time>
      </trkpt>
      <trkpt lat="43.71619" lon="7.01265">
        <ele>780.7</ele>
        <time>2009-06-21T11:11:43Z</time>
      </trkpt>
      <trkpt lat="43.71623" lon="7.0129">
        <ele>782.2</ele>
        <time>2009-06-21T11:11:57Z</time>
      </trkpt>
      <trkpt lat="43.71626" lon="7.01317">
        <ele>785.5</ele>
        <time>2009-06-21T11:12:12Z</time>
      </trkpt>
      <trkpt lat="43.7163" lon="7.01344">
        <ele>786.5</ele>
        <time>2009-06-21T11:12:27Z</time>
      </trkpt>
      <trkpt lat="43.71629" lon="7.0137">
        <ele>796.6</ele>
        <time>2009-06-21T11:12:51Z</time>
      </trkpt>
      <trkpt lat="43.7163" lon="7.014">
        <ele>799.5</ele>
        <time>2009-06-21T11:13:13Z</time>
      </trkpt>
      <trkpt lat="43.7164" lon="7.01424">
        <ele>797.6</ele>
        <time>2009-06-21T11:13:30Z</time>
      </trkpt>
      <trkpt lat="43.7165" lon="7.01445">
        <ele>799</ele>
        <time>2009-06-21T11:13:44Z</time>
      </trkpt>
      <trkpt lat="43.71664" lon="7.01466">
        <ele>800</ele>
        <time>2009-06-21T11:13:58Z</time>
      </trkpt>
      <trkpt lat="43.71676" lon="7.0149">
        <ele>800.4</ele>
        <time>2009-06-21T11:14:12Z</time>
      </trkpt>
      <trkpt lat="43.71687" lon="7.01513">
        <ele>800</ele>
        <time>2009-06-21T11:14:26Z</time>
      </trkpt>
      <trkpt lat="43.71675" lon="7.01513">
        <ele>814.4</ele>
        <time>2009-06-21T11:20:48Z</time>
      </trkpt>
      <trkpt lat="43.71676" lon="7.01513">
        <ele>817.3</ele>
        <time>2009-06-21T11:21:10Z</time>
      </trkpt>
      <trkpt lat="43.71677" lon="7.0152">
        <ele>819.7</ele>
        <time>2009-06-21T11:21:37Z</time>
      </trkpt>
      <trkpt lat="43.71677" lon="7.01518">
        <ele>819.2</ele>
        <time>2009-06-21T11:22:02Z</time>
      </trkpt>
      <trkpt lat="43.71676" lon="7.01513">
        <ele>811</ele>
        <time>2009-06-21T11:22:36Z</time>
      </trkpt>
      <trkpt lat="43.71709" lon="7.01548">
        <ele>809.1</ele>
        <time>2009-06-21T11:24:07Z</time>
      </trkpt>
      <trkpt lat="43.71733" lon="7.0156">
        <ele>812.9</ele>
        <time>2009-06-21T11:24:28Z</time>
      </trkpt>
      <trkpt lat="43.71752" lon="7.01569">
        <ele>817.3</ele>
        <time>2009-06-21T11:24:44Z</time>
      </trkpt>
      <trkpt lat="43.7177" lon="7.01575">
        <ele>817.3</ele>
        <time>2009-06-21T11:25:00Z</time>
      </trkpt>
      <trkpt lat="43.71788" lon="7.01581">
        <ele>821.6</ele>
        <time>2009-06-21T11:25:19Z</time>
      </trkpt>
      <trkpt lat="43.71816" lon="7.01596">
        <ele>825.9</ele>
        <time>2009-06-21T11:25:51Z</time>
      </trkpt>
      <trkpt lat="43.71835" lon="7.01609">
        <ele>832.2</ele>
        <time>2009-06-21T11:26:15Z</time>
      </trkpt>
      <trkpt lat="43.71855" lon="7.01622">
        <ele>834.1</ele>
        <time>2009-06-21T11:26:43Z</time>
      </trkpt>
      <trkpt lat="43.71871" lon="7.01633">
        <ele>835.5</ele>
        <time>2009-06-21T11:27:00Z</time>
      </trkpt>
      <trkpt lat="43.7189" lon="7.01646">
        <ele>837.9</ele>
        <time>2009-06-21T11:27:16Z</time>
      </trkpt>
      <trkpt lat="43.71906" lon="7.0166">
        <ele>840.3</ele>
        <time>2009-06-21T11:27:32Z</time>
      </trkpt>
      <trkpt lat="43.71921" lon="7.01673">
        <ele>844.2</ele>
        <time>2009-06-21T11:27:48Z</time>
      </trkpt>
      <trkpt lat="43.71934" lon="7.01667">
        <ele>846.1</ele>
        <time>2009-06-21T11:28:03Z</time>
      </trkpt>
      <trkpt lat="43.71937" lon="7.01641">
        <ele>848</ele>
        <time>2009-06-21T11:28:18Z</time>
      </trkpt>
      <trkpt lat="43.71934" lon="7.01616">
        <ele>847.5</ele>
        <time>2009-06-21T11:28:31Z</time>
      </trkpt>
      <trkpt lat="43.71931" lon="7.0159">
        <ele>849.5</ele>
        <time>2009-06-21T11:28:46Z</time>
      </trkpt>
      <trkpt lat="43.71928" lon="7.01565">
        <ele>850.4</ele>
        <time>2009-06-21T11:29:02Z</time>
      </trkpt>
      <trkpt lat="43.71926" lon="7.01538">
        <ele>852.8</ele>
        <time>2009-06-21T11:29:17Z</time>
      </trkpt>
      <trkpt lat="43.71933" lon="7.01517">
        <ele>858.1</ele>
        <time>2009-06-21T11:29:32Z</time>
      </trkpt>
      <trkpt lat="43.71949" lon="7.01519">
        <ele>860.5</ele>
        <time>2009-06-21T11:29:46Z</time>
      </trkpt>
      <trkpt lat="43.71965" lon="7.01509">
        <ele>861.5</ele>
        <time>2009-06-21T11:29:58Z</time>
      </trkpt>
      <trkpt lat="43.71974" lon="7.01485">
        <ele>865.3</ele>
        <time>2009-06-21T11:30:07Z</time>
      </trkpt>
      <trkpt lat="43.71983" lon="7.0146">
        <ele>865.3</ele>
        <time>2009-06-21T11:30:15Z</time>
      </trkpt>
      <trkpt lat="43.7199" lon="7.01433">
        <ele>865.8</ele>
        <time>2009-06-21T11:30:22Z</time>
      </trkpt>
      <trkpt lat="43.71993" lon="7.01407">
        <ele>865.8</ele>
        <time>2009-06-21T11:30:29Z</time>
      </trkpt>
      <trkpt lat="43.71992" lon="7.0138">
        <ele>863.9</ele>
        <time>2009-06-21T11:30:37Z</time>
      </trkpt>
      <trkpt lat="43.71989" lon="7.01353">
        <ele>862.9</ele>
        <time>2009-06-21T11:30:45Z</time>
      </trkpt>
      <trkpt lat="43.71985" lon="7.01326">
        <ele>862.4</ele>
        <time>2009-06-21T11:30:53Z</time>
      </trkpt>
      <trkpt lat="43.71977" lon="7.01302">
        <ele>863.4</ele>
        <time>2009-06-21T11:31:01Z</time>
      </trkpt>
      <trkpt lat="43.71972" lon="7.01278">
        <ele>862.4</ele>
        <time>2009-06-21T11:31:11Z</time>
      </trkpt>
      <trkpt lat="43.71979" lon="7.01252">
        <ele>866.8</ele>
        <time>2009-06-21T11:31:20Z</time>
      </trkpt>
      <trkpt lat="43.71989" lon="7.01231">
        <ele>870.6</ele>
        <time>2009-06-21T11:31:28Z</time>
      </trkpt>
      <trkpt lat="43.71996" lon="7.01208">
        <ele>871.1</ele>
        <time>2009-06-21T11:31:36Z</time>
      </trkpt>
      <trkpt lat="43.72004" lon="7.01185">
        <ele>871.1</ele>
        <time>2009-06-21T11:31:44Z</time>
      </trkpt>
      <trkpt lat="43.7201" lon="7.0116">
        <ele>871.6</ele>
        <time>2009-06-21T11:31:51Z</time>
      </trkpt>
      <trkpt lat="43.72016" lon="7.01134">
        <ele>870.6</ele>
        <time>2009-06-21T11:31:58Z</time>
      </trkpt>
      <trkpt lat="43.72023" lon="7.01109">
        <ele>872.1</ele>
        <time>2009-06-21T11:32:04Z</time>
      </trkpt>
      <trkpt lat="43.72027" lon="7.01085">
        <ele>872.5</ele>
        <time>2009-06-21T11:32:11Z</time>
      </trkpt>
      <trkpt lat="43.72043" lon="7.01074">
        <ele>873</ele>
        <time>2009-06-21T11:32:19Z</time>
      </trkpt>
      <trkpt lat="43.72054" lon="7.01093">
        <ele>872.5</ele>
        <time>2009-06-21T11:32:25Z</time>
      </trkpt>
      <trkpt lat="43.72059" lon="7.01118">
        <ele>873.5</ele>
        <time>2009-06-21T11:32:32Z</time>
      </trkpt>
      <trkpt lat="43.72066" lon="7.01145">
        <ele>874.9</ele>
        <time>2009-06-21T11:32:42Z</time>
      </trkpt>
      <trkpt lat="43.72079" lon="7.01164">
        <ele>876.4</ele>
        <time>2009-06-21T11:32:53Z</time>
      </trkpt>
      <trkpt lat="43.72093" lon="7.01184">
        <ele>876.9</ele>
        <time>2009-06-21T11:33:04Z</time>
      </trkpt>
      <trkpt lat="43.72108" lon="7.01201">
        <ele>879.3</ele>
        <time>2009-06-21T11:33:15Z</time>
      </trkpt>
      <trkpt lat="43.72124" lon="7.01217">
        <ele>880.7</ele>
        <time>2009-06-21T11:33:25Z</time>
      </trkpt>
      <trkpt lat="43.72141" lon="7.01226">
        <ele>881.7</ele>
        <time>2009-06-21T11:33:34Z</time>
      </trkpt>
      <trkpt lat="43.72159" lon="7.01223">
        <ele>882.6</ele>
        <time>2009-06-21T11:33:42Z</time>
      </trkpt>
      <trkpt lat="43.72178" lon="7.01216">
        <ele>883.1</ele>
        <time>2009-06-21T11:33:49Z</time>
      </trkpt>
      <trkpt lat="43.72195" lon="7.01215">
        <ele>884.1</ele>
        <time>2009-06-21T11:33:55Z</time>
      </trkpt>
      <trkpt lat="43.72215" lon="7.0122">
        <ele>884.1</ele>
        <time>2009-06-21T11:34:02Z</time>
      </trkpt>
      <trkpt lat="43.72226" lon="7.01237">
        <ele>884.6</ele>
        <time>2009-06-21T11:34:11Z</time>
      </trkpt>
      <trkpt lat="43.72224" lon="7.01262">
        <ele>887.9</ele>
        <time>2009-06-21T11:34:22Z</time>
      </trkpt>
      <trkpt lat="43.72219" lon="7.01288">
        <ele>889.8</ele>
        <time>2009-06-21T11:34:33Z</time>
      </trkpt>
      <trkpt lat="43.72216" lon="7.01312">
        <ele>890.3</ele>
        <time>2009-06-21T11:34:43Z</time>
      </trkpt>
      <trkpt lat="43.72214" lon="7.01338">
        <ele>893.7</ele>
        <time>2009-06-21T11:34:53Z</time>
      </trkpt>
      <trkpt lat="43.72213" lon="7.01363">
        <ele>894.6</ele>
        <time>2009-06-21T11:35:03Z</time>
      </trkpt>
      <trkpt lat="43.72212" lon="7.01391">
        <ele>895.1</ele>
        <time>2009-06-21T11:35:14Z</time>
      </trkpt>
      <trkpt lat="43.72213" lon="7.01416">
        <ele>895.1</ele>
        <time>2009-06-21T11:35:24Z</time>
      </trkpt>
      <trkpt lat="43.72218" lon="7.01443">
        <ele>899</ele>
        <time>2009-06-21T11:35:35Z</time>
      </trkpt>
      <trkpt lat="43.72223" lon="7.01467">
        <ele>900.9</ele>
        <time>2009-06-21T11:35:47Z</time>
      </trkpt>
      <trkpt lat="43.72238" lon="7.01455">
        <ele>906.2</ele>
        <time>2009-06-21T11:36:01Z</time>
      </trkpt>
      <trkpt lat="43.72248" lon="7.01433">
        <ele>908.6</ele>
        <time>2009-06-21T11:36:13Z</time>
      </trkpt>
      <trkpt lat="43.72264" lon="7.01419">
        <ele>910.5</ele>
        <time>2009-06-21T11:36:25Z</time>
      </trkpt>
      <trkpt lat="43.7228" lon="7.01411">
        <ele>912.4</ele>
        <time>2009-06-21T11:36:35Z</time>
      </trkpt>
      <trkpt lat="43.72299" lon="7.01404">
        <ele>913.9</ele>
        <time>2009-06-21T11:36:45Z</time>
      </trkpt>
      <trkpt lat="43.72319" lon="7.01402">
        <ele>913.4</ele>
        <time>2009-06-21T11:36:54Z</time>
      </trkpt>
      <trkpt lat="43.72338" lon="7.01401">
        <ele>913.9</ele>
        <time>2009-06-21T11:37:04Z</time>
      </trkpt>
      <trkpt lat="43.72356" lon="7.014">
        <ele>915.8</ele>
        <time>2009-06-21T11:37:15Z</time>
      </trkpt>
      <trkpt lat="43.72375" lon="7.0139">
        <ele>917.7</ele>
        <time>2009-06-21T11:37:25Z</time>
      </trkpt>
      <trkpt lat="43.72392" lon="7.01382">
        <ele>920.1</ele>
        <time>2009-06-21T11:37:34Z</time>
      </trkpt>
      <trkpt lat="43.72411" lon="7.01375">
        <ele>921.6</ele>
        <time>2009-06-21T11:37:42Z</time>
      </trkpt>
      <trkpt lat="43.72428" lon="7.01362">
        <ele>921.6</ele>
        <time>2009-06-21T11:37:50Z</time>
      </trkpt>
      <trkpt lat="43.72443" lon="7.01351">
        <ele>923</ele>
        <time>2009-06-21T11:37:57Z</time>
      </trkpt>
      <trkpt lat="43.7246" lon="7.0134">
        <ele>923</ele>
        <time>2009-06-21T11:38:04Z</time>
      </trkpt>
      <trkpt lat="43.72479" lon="7.01329">
        <ele>923</ele>
        <time>2009-06-21T11:38:11Z</time>
      </trkpt>
      <trkpt lat="43.72495" lon="7.01317">
        <ele>924</ele>
        <time>2009-06-21T11:38:18Z</time>
      </trkpt>
      <trkpt lat="43.72512" lon="7.01306">
        <ele>924.4</ele>
        <time>2009-06-21T11:38:26Z</time>
      </trkpt>
      <trkpt lat="43.72529" lon="7.01294">
        <ele>925.4</ele>
        <time>2009-06-21T11:38:34Z</time>
      </trkpt>
      <trkpt lat="43.72544" lon="7.01279">
        <ele>924.4</ele>
        <time>2009-06-21T11:38:43Z</time>
      </trkpt>
      <trkpt lat="43.72559" lon="7.01262">
        <ele>924.9</ele>
        <time>2009-06-21T11:38:52Z</time>
      </trkpt>
      <trkpt lat="43.72575" lon="7.01248">
        <ele>927.8</ele>
        <time>2009-06-21T11:39:01Z</time>
      </trkpt>
      <trkpt lat="43.72592" lon="7.01241">
        <ele>929.7</ele>
        <time>2009-06-21T11:39:10Z</time>
      </trkpt>
      <trkpt lat="43.72609" lon="7.0123">
        <ele>931.7</ele>
        <time>2009-06-21T11:39:19Z</time>
      </trkpt>
      <trkpt lat="43.72627" lon="7.01219">
        <ele>932.1</ele>
        <time>2009-06-21T11:39:28Z</time>
      </trkpt>
      <trkpt lat="43.72642" lon="7.01205">
        <ele>936</ele>
        <time>2009-06-21T11:39:37Z</time>
      </trkpt>
      <trkpt lat="43.7266" lon="7.01202">
        <ele>937.4</ele>
        <time>2009-06-21T11:39:48Z</time>
      </trkpt>
      <trkpt lat="43.72679" lon="7.01202">
        <ele>937.9</ele>
        <time>2009-06-21T11:39:59Z</time>
      </trkpt>
      <trkpt lat="43.72697" lon="7.01208">
        <ele>938.4</ele>
        <time>2009-06-21T11:40:07Z</time>
      </trkpt>
      <trkpt lat="43.72713" lon="7.01229">
        <ele>936.5</ele>
        <time>2009-06-21T11:40:54Z</time>
      </trkpt>
      <trkpt lat="43.72727" lon="7.01247">
        <ele>934.1</ele>
        <time>2009-06-21T11:40:58Z</time>
      </trkpt>
      <trkpt lat="43.72744" lon="7.01268">
        <ele>930.2</ele>
        <time>2009-06-21T11:41:03Z</time>
      </trkpt>
      <trkpt lat="43.72756" lon="7.01291">
        <ele>926.4</ele>
        <time>2009-06-21T11:41:07Z</time>
      </trkpt>
      <trkpt lat="43.7277" lon="7.01316">
        <ele>923.5</ele>
        <time>2009-06-21T11:41:11Z</time>
      </trkpt>
      <trkpt lat="43.72784" lon="7.01335">
        <ele>922</ele>
        <time>2009-06-21T11:41:14Z</time>
      </trkpt>
      <trkpt lat="43.728" lon="7.01349">
        <ele>920.6</ele>
        <time>2009-06-21T11:41:17Z</time>
      </trkpt>
      <trkpt lat="43.72822" lon="7.0136">
        <ele>917.2</ele>
        <time>2009-06-21T11:41:21Z</time>
      </trkpt>
      <trkpt lat="43.72835" lon="7.01383">
        <ele>914.4</ele>
        <time>2009-06-21T11:41:27Z</time>
      </trkpt>
      <trkpt lat="43.72842" lon="7.01368">
        <ele>911.9</ele>
        <time>2009-06-21T11:41:34Z</time>
      </trkpt>
      <trkpt lat="43.72847" lon="7.01336">
        <ele>910.5</ele>
        <time>2009-06-21T11:41:38Z</time>
      </trkpt>
      <trkpt lat="43.72852" lon="7.01302">
        <ele>908.6</ele>
        <time>2009-06-21T11:41:41Z</time>
      </trkpt>
      <trkpt lat="43.7285" lon="7.01269">
        <ele>905.7</ele>
        <time>2009-06-21T11:41:44Z</time>
      </trkpt>
      <trkpt lat="43.7284" lon="7.01233">
        <ele>902.8</ele>
        <time>2009-06-21T11:41:47Z</time>
      </trkpt>
      <trkpt lat="43.7284" lon="7.01201">
        <ele>900.4</ele>
        <time>2009-06-21T11:41:50Z</time>
      </trkpt>
      <trkpt lat="43.72852" lon="7.01169">
        <ele>898.5</ele>
        <time>2009-06-21T11:41:53Z</time>
      </trkpt>
      <trkpt lat="43.72872" lon="7.01142">
        <ele>896.1</ele>
        <time>2009-06-21T11:41:56Z</time>
      </trkpt>
      <trkpt lat="43.72886" lon="7.01127">
        <ele>893.7</ele>
        <time>2009-06-21T11:41:58Z</time>
      </trkpt>
      <trkpt lat="43.72897" lon="7.01109">
        <ele>890.8</ele>
        <time>2009-06-21T11:42:00Z</time>
      </trkpt>
      <trkpt lat="43.72909" lon="7.01078">
        <ele>888.4</ele>
        <time>2009-06-21T11:42:03Z</time>
      </trkpt>
      <trkpt lat="43.72919" lon="7.01047">
        <ele>886.5</ele>
        <time>2009-06-21T11:42:06Z</time>
      </trkpt>
      <trkpt lat="43.72931" lon="7.01015">
        <ele>885.5</ele>
        <time>2009-06-21T11:42:09Z</time>
      </trkpt>
      <trkpt lat="43.72946" lon="7.00989">
        <ele>883.1</ele>
        <time>2009-06-21T11:42:12Z</time>
      </trkpt>
      <trkpt lat="43.72958" lon="7.00967">
        <ele>880.7</ele>
        <time>2009-06-21T11:42:15Z</time>
      </trkpt>
      <trkpt lat="43.72967" lon="7.00944">
        <ele>878.8</ele>
        <time>2009-06-21T11:42:19Z</time>
      </trkpt>
      <trkpt lat="43.72986" lon="7.00943">
        <ele>875.9</ele>
        <time>2009-06-21T11:42:25Z</time>
      </trkpt>
      <trkpt lat="43.72992" lon="7.0097">
        <ele>873.5</ele>
        <time>2009-06-21T11:42:43Z</time>
      </trkpt>
      <trkpt lat="43.73003" lon="7.01002">
        <ele>872.1</ele>
        <time>2009-06-21T11:42:48Z</time>
      </trkpt>
      <trkpt lat="43.73011" lon="7.01032">
        <ele>870.6</ele>
        <time>2009-06-21T11:42:52Z</time>
      </trkpt>
      <trkpt lat="43.73019" lon="7.01059">
        <ele>868.2</ele>
        <time>2009-06-21T11:42:55Z</time>
      </trkpt>
      <trkpt lat="43.73027" lon="7.01083">
        <ele>866.3</ele>
        <time>2009-06-21T11:42:59Z</time>
      </trkpt>
      <trkpt lat="43.73027" lon="7.01111">
        <ele>864.8</ele>
        <time>2009-06-21T11:43:09Z</time>
      </trkpt>
      <trkpt lat="43.73014" lon="7.01131">
        <ele>862</ele>
        <time>2009-06-21T11:43:17Z</time>
      </trkpt>
      <trkpt lat="43.73004" lon="7.01162">
        <ele>859.1</ele>
        <time>2009-06-21T11:43:23Z</time>
      </trkpt>
      <trkpt lat="43.73018" lon="7.01183">
        <ele>860</ele>
        <time>2009-06-21T11:43:34Z</time>
      </trkpt>
      <trkpt lat="43.73038" lon="7.01196">
        <ele>862</ele>
        <time>2009-06-21T11:43:45Z</time>
      </trkpt>
      <trkpt lat="43.73057" lon="7.01208">
        <ele>862</ele>
        <time>2009-06-21T11:43:54Z</time>
      </trkpt>
      <trkpt lat="43.73069" lon="7.01231">
        <ele>859.1</ele>
        <time>2009-06-21T11:44:02Z</time>
      </trkpt>
      <trkpt lat="43.73081" lon="7.01258">
        <ele>857.2</ele>
        <time>2009-06-21T11:44:09Z</time>
      </trkpt>
      <trkpt lat="43.7309" lon="7.01293">
        <ele>854.3</ele>
        <time>2009-06-21T11:44:17Z</time>
      </trkpt>
      <trkpt lat="43.73115" lon="7.01302">
        <ele>859.1</ele>
        <time>2009-06-21T11:44:24Z</time>
      </trkpt>
      <trkpt lat="43.73143" lon="7.0131">
        <ele>851.9</ele>
        <time>2009-06-21T11:44:30Z</time>
      </trkpt>
      <trkpt lat="43.73166" lon="7.0132">
        <ele>852.3</ele>
        <time>2009-06-21T11:44:35Z</time>
      </trkpt>
      <trkpt lat="43.73182" lon="7.01336">
        <ele>849.9</ele>
        <time>2009-06-21T11:44:42Z</time>
      </trkpt>
      <trkpt lat="43.73196" lon="7.01355">
        <ele>846.6</ele>
        <time>2009-06-21T11:44:50Z</time>
      </trkpt>
      <trkpt lat="43.73211" lon="7.01374">
        <ele>843.7</ele>
        <time>2009-06-21T11:44:57Z</time>
      </trkpt>
      <trkpt lat="43.73227" lon="7.01399">
        <ele>840.8</ele>
        <time>2009-06-21T11:45:03Z</time>
      </trkpt>
      <trkpt lat="43.73245" lon="7.0142">
        <ele>838.4</ele>
        <time>2009-06-21T11:45:07Z</time>
      </trkpt>
      <trkpt lat="43.73265" lon="7.01436">
        <ele>839.4</ele>
        <time>2009-06-21T11:45:11Z</time>
      </trkpt>
      <trkpt lat="43.73285" lon="7.01449">
        <ele>840.8</ele>
        <time>2009-06-21T11:45:17Z</time>
      </trkpt>
      <trkpt lat="43.73301" lon="7.01467">
        <ele>840.8</ele>
        <time>2009-06-21T11:45:23Z</time>
      </trkpt>
      <trkpt lat="43.73316" lon="7.01481">
        <ele>840.8</ele>
        <time>2009-06-21T11:45:28Z</time>
      </trkpt>
      <trkpt lat="43.73329" lon="7.015">
        <ele>838.9</ele>
        <time>2009-06-21T11:45:32Z</time>
      </trkpt>
      <trkpt lat="43.73343" lon="7.01522">
        <ele>836.5</ele>
        <time>2009-06-21T11:45:36Z</time>
      </trkpt>
      <trkpt lat="43.73361" lon="7.01545">
        <ele>836.5</ele>
        <time>2009-06-21T11:45:40Z</time>
      </trkpt>
      <trkpt lat="43.73381" lon="7.01561">
        <ele>837.4</ele>
        <time>2009-06-21T11:45:44Z</time>
      </trkpt>
      <trkpt lat="43.73398" lon="7.01573">
        <ele>839.4</ele>
        <time>2009-06-21T11:45:49Z</time>
      </trkpt>
      <trkpt lat="43.73416" lon="7.01591">
        <ele>835</ele>
        <time>2009-06-21T11:45:55Z</time>
      </trkpt>
      <trkpt lat="43.73433" lon="7.01606">
        <ele>834.1</ele>
        <time>2009-06-21T11:45:59Z</time>
      </trkpt>
      <trkpt lat="43.73452" lon="7.01622">
        <ele>836</ele>
        <time>2009-06-21T11:46:03Z</time>
      </trkpt>
      <trkpt lat="43.73469" lon="7.01635">
        <ele>836</ele>
        <time>2009-06-21T11:46:07Z</time>
      </trkpt>
      <trkpt lat="43.73488" lon="7.01649">
        <ele>837.4</ele>
        <time>2009-06-21T11:46:12Z</time>
      </trkpt>
      <trkpt lat="43.73503" lon="7.01665">
        <ele>837.9</ele>
        <time>2009-06-21T11:46:18Z</time>
      </trkpt>
      <trkpt lat="43.73518" lon="7.01685">
        <ele>836.5</ele>
        <time>2009-06-21T11:46:25Z</time>
      </trkpt>
      <trkpt lat="43.73533" lon="7.01703">
        <ele>838.4</ele>
        <time>2009-06-21T11:46:33Z</time>
      </trkpt>
      <trkpt lat="43.73543" lon="7.01725">
        <ele>836.5</ele>
        <time>2009-06-21T11:46:40Z</time>
      </trkpt>
      <trkpt lat="43.73544" lon="7.01754">
        <ele>831.7</ele>
        <time>2009-06-21T11:46:45Z</time>
      </trkpt>
      <trkpt lat="43.73554" lon="7.01779">
        <ele>828.3</ele>
        <time>2009-06-21T11:46:51Z</time>
      </trkpt>
      <trkpt lat="43.73574" lon="7.01793">
        <ele>828.8</ele>
        <time>2009-06-21T11:49:21Z</time>
      </trkpt>
      <trkpt lat="43.73591" lon="7.01772">
        <ele>831.2</ele>
        <time>2009-06-21T11:49:30Z</time>
      </trkpt>
      <trkpt lat="43.73609" lon="7.01776">
        <ele>833.6</ele>
        <time>2009-06-21T11:49:38Z</time>
      </trkpt>
      <trkpt lat="43.73626" lon="7.01786">
        <ele>832.6</ele>
        <time>2009-06-21T11:49:44Z</time>
      </trkpt>
      <trkpt lat="43.73644" lon="7.01798">
        <ele>835</ele>
        <time>2009-06-21T11:49:50Z</time>
      </trkpt>
      <trkpt lat="43.73665" lon="7.01802">
        <ele>834.6</ele>
        <time>2009-06-21T11:49:55Z</time>
      </trkpt>
      <trkpt lat="43.73686" lon="7.018">
        <ele>833.1</ele>
        <time>2009-06-21T11:50:00Z</time>
      </trkpt>
      <trkpt lat="43.73706" lon="7.01795">
        <ele>834.1</ele>
        <time>2009-06-21T11:50:06Z</time>
      </trkpt>
      <trkpt lat="43.7373" lon="7.0179">
        <ele>836</ele>
        <time>2009-06-21T11:50:14Z</time>
      </trkpt>
      <trkpt lat="43.73748" lon="7.01791">
        <ele>836.5</ele>
        <time>2009-06-21T11:50:21Z</time>
      </trkpt>
      <trkpt lat="43.73767" lon="7.01789">
        <ele>837.9</ele>
        <time>2009-06-21T11:50:30Z</time>
      </trkpt>
      <trkpt lat="43.73793" lon="7.01789">
        <ele>840.3</ele>
        <time>2009-06-21T11:50:38Z</time>
      </trkpt>
      <trkpt lat="43.73815" lon="7.01782">
        <ele>844.2</ele>
        <time>2009-06-21T11:50:45Z</time>
      </trkpt>
      <trkpt lat="43.73833" lon="7.01781">
        <ele>838.9</ele>
        <time>2009-06-21T11:50:51Z</time>
      </trkpt>
      <trkpt lat="43.73852" lon="7.01781">
        <ele>839.4</ele>
        <time>2009-06-21T11:50:58Z</time>
      </trkpt>
      <trkpt lat="43.73871" lon="7.01784">
        <ele>837.4</ele>
        <time>2009-06-21T11:51:07Z</time>
      </trkpt>
      <trkpt lat="43.73892" lon="7.01782">
        <ele>836</ele>
        <time>2009-06-21T11:51:21Z</time>
      </trkpt>
      <trkpt lat="43.73921" lon="7.01775">
        <ele>840.8</ele>
        <time>2009-06-21T11:51:35Z</time>
      </trkpt>
      <trkpt lat="43.73941" lon="7.01772">
        <ele>842.3</ele>
        <time>2009-06-21T11:51:44Z</time>
      </trkpt>
      <trkpt lat="43.73961" lon="7.01772">
        <ele>844.7</ele>
        <time>2009-06-21T11:51:52Z</time>
      </trkpt>
      <trkpt lat="43.73979" lon="7.01779">
        <ele>842.7</ele>
        <time>2009-06-21T11:51:59Z</time>
      </trkpt>
      <trkpt lat="43.73998" lon="7.01786">
        <ele>842.3</ele>
        <time>2009-06-21T11:52:06Z</time>
      </trkpt>
      <trkpt lat="43.74018" lon="7.01791">
        <ele>844.2</ele>
        <time>2009-06-21T11:52:13Z</time>
      </trkpt>
      <trkpt lat="43.74037" lon="7.01795">
        <ele>847.5</ele>
        <time>2009-06-21T11:52:21Z</time>
      </trkpt>
      <trkpt lat="43.74057" lon="7.01802">
        <ele>849.5</ele>
        <time>2009-06-21T11:52:30Z</time>
      </trkpt>
      <trkpt lat="43.74075" lon="7.01809">
        <ele>849.5</ele>
        <time>2009-06-21T11:52:38Z</time>
      </trkpt>
      <trkpt lat="43.74095" lon="7.01816">
        <ele>849.5</ele>
        <time>2009-06-21T11:52:45Z</time>
      </trkpt>
      <trkpt lat="43.74114" lon="7.0182">
        <ele>849</ele>
        <time>2009-06-21T11:52:52Z</time>
      </trkpt>
      <trkpt lat="43.74136" lon="7.01818">
        <ele>849.5</ele>
        <time>2009-06-21T11:52:59Z</time>
      </trkpt>
      <trkpt lat="43.74157" lon="7.01809">
        <ele>848.5</ele>
        <time>2009-06-21T11:53:07Z</time>
      </trkpt>
      <trkpt lat="43.74175" lon="7.01803">
        <ele>850.9</ele>
        <time>2009-06-21T11:53:15Z</time>
      </trkpt>
      <trkpt lat="43.74197" lon="7.01797">
        <ele>854.7</ele>
        <time>2009-06-21T11:53:23Z</time>
      </trkpt>
      <trkpt lat="43.74216" lon="7.01791">
        <ele>857.6</ele>
        <time>2009-06-21T11:53:33Z</time>
      </trkpt>
      <trkpt lat="43.74237" lon="7.01783">
        <ele>859.1</ele>
        <time>2009-06-21T11:53:43Z</time>
      </trkpt>
      <trkpt lat="43.74253" lon="7.01778">
        <ele>860</ele>
        <time>2009-06-21T11:53:52Z</time>
      </trkpt>
      <trkpt lat="43.74272" lon="7.01773">
        <ele>860.5</ele>
        <time>2009-06-21T11:53:59Z</time>
      </trkpt>
      <trkpt lat="43.74292" lon="7.01769">
        <ele>859.6</ele>
        <time>2009-06-21T11:54:07Z</time>
      </trkpt>
      <trkpt lat="43.74317" lon="7.01757">
        <ele>861.5</ele>
        <time>2009-06-21T11:54:15Z</time>
      </trkpt>
      <trkpt lat="43.74334" lon="7.01749">
        <ele>860.5</ele>
        <time>2009-06-21T11:54:21Z</time>
      </trkpt>
      <trkpt lat="43.74354" lon="7.01732">
        <ele>866.8</ele>
        <time>2009-06-21T11:54:30Z</time>
      </trkpt>
      <trkpt lat="43.74372" lon="7.01715">
        <ele>870.6</ele>
        <time>2009-06-21T11:54:40Z</time>
      </trkpt>
      <trkpt lat="43.74389" lon="7.01699">
        <ele>873</ele>
        <time>2009-06-21T11:54:49Z</time>
      </trkpt>
      <trkpt lat="43.74409" lon="7.01684">
        <ele>873</ele>
        <time>2009-06-21T11:54:56Z</time>
      </trkpt>
      <trkpt lat="43.74425" lon="7.0167">
        <ele>874.5</ele>
        <time>2009-06-21T11:55:03Z</time>
      </trkpt>
      <trkpt lat="43.74441" lon="7.01655">
        <ele>875.4</ele>
        <time>2009-06-21T11:55:11Z</time>
      </trkpt>
      <trkpt lat="43.74456" lon="7.01637">
        <ele>877.8</ele>
        <time>2009-06-21T11:55:18Z</time>
      </trkpt>
      <trkpt lat="43.74473" lon="7.01621">
        <ele>877.3</ele>
        <time>2009-06-21T11:55:24Z</time>
      </trkpt>
      <trkpt lat="43.74489" lon="7.01606">
        <ele>877.8</ele>
        <time>2009-06-21T11:55:32Z</time>
      </trkpt>
      <trkpt lat="43.74503" lon="7.01592">
        <ele>879.7</ele>
        <time>2009-06-21T11:55:41Z</time>
      </trkpt>
      <trkpt lat="43.74518" lon="7.01576">
        <ele>881.2</ele>
        <time>2009-06-21T11:55:49Z</time>
      </trkpt>
      <trkpt lat="43.74531" lon="7.01559">
        <ele>883.1</ele>
        <time>2009-06-21T11:55:55Z</time>
      </trkpt>
      <trkpt lat="43.74549" lon="7.01545">
        <ele>887.4</ele>
        <time>2009-06-21T11:56:02Z</time>
      </trkpt>
      <trkpt lat="43.74569" lon="7.0154">
        <ele>887.9</ele>
        <time>2009-06-21T11:56:09Z</time>
      </trkpt>
      <trkpt lat="43.74587" lon="7.01532">
        <ele>887</ele>
        <time>2009-06-21T11:56:16Z</time>
      </trkpt>
      <trkpt lat="43.74604" lon="7.01529">
        <ele>883.6</ele>
        <time>2009-06-21T11:56:23Z</time>
      </trkpt>
      <trkpt lat="43.74622" lon="7.01528">
        <ele>882.6</ele>
        <time>2009-06-21T11:56:31Z</time>
      </trkpt>
      <trkpt lat="43.7464" lon="7.01522">
        <ele>882.1</ele>
        <time>2009-06-21T11:56:42Z</time>
      </trkpt>
      <trkpt lat="43.74659" lon="7.01512">
        <ele>881.7</ele>
        <time>2009-06-21T11:56:53Z</time>
      </trkpt>
      <trkpt lat="43.74673" lon="7.01494">
        <ele>887.4</ele>
        <time>2009-06-21T11:57:03Z</time>
      </trkpt>
      <trkpt lat="43.74688" lon="7.01477">
        <ele>894.2</ele>
        <time>2009-06-21T11:57:12Z</time>
      </trkpt>
      <trkpt lat="43.74701" lon="7.01458">
        <ele>892.7</ele>
        <time>2009-06-21T11:57:21Z</time>
      </trkpt>
      <trkpt lat="43.74712" lon="7.01436">
        <ele>891.8</ele>
        <time>2009-06-21T11:57:30Z</time>
      </trkpt>
      <trkpt lat="43.74723" lon="7.01415">
        <ele>893.2</ele>
        <time>2009-06-21T11:57:39Z</time>
      </trkpt>
      <trkpt lat="43.74736" lon="7.01397">
        <ele>896.1</ele>
        <time>2009-06-21T11:57:47Z</time>
      </trkpt>
      <trkpt lat="43.74752" lon="7.014">
        <ele>897.5</ele>
        <time>2009-06-21T11:57:55Z</time>
      </trkpt>
      <trkpt lat="43.74767" lon="7.01421">
        <ele>894.6</ele>
        <time>2009-06-21T11:58:13Z</time>
      </trkpt>
      <trkpt lat="43.74781" lon="7.01439">
        <ele>894.6</ele>
        <time>2009-06-21T11:58:20Z</time>
      </trkpt>
      <trkpt lat="43.74797" lon="7.01456">
        <ele>893.7</ele>
        <time>2009-06-21T11:58:28Z</time>
      </trkpt>
      <trkpt lat="43.74812" lon="7.01471">
        <ele>893.2</ele>
        <time>2009-06-21T11:58:36Z</time>
      </trkpt>
      <trkpt lat="43.74826" lon="7.01493">
        <ele>893.2</ele>
        <time>2009-06-21T11:58:42Z</time>
      </trkpt>
      <trkpt lat="43.74839" lon="7.01514">
        <ele>892.7</ele>
        <time>2009-06-21T11:58:48Z</time>
      </trkpt>
      <trkpt lat="43.74851" lon="7.01536">
        <ele>894.6</ele>
        <time>2009-06-21T11:58:56Z</time>
      </trkpt>
      <trkpt lat="43.74866" lon="7.01555">
        <ele>897</ele>
        <time>2009-06-21T11:59:06Z</time>
      </trkpt>
      <trkpt lat="43.74882" lon="7.01567">
        <ele>899.5</ele>
        <time>2009-06-21T11:59:15Z</time>
      </trkpt>
      <trkpt lat="43.74899" lon="7.01574">
        <ele>901.9</ele>
        <time>2009-06-21T11:59:24Z</time>
      </trkpt>
      <trkpt lat="43.74917" lon="7.01581">
        <ele>904.3</ele>
        <time>2009-06-21T11:59:41Z</time>
      </trkpt>
      <trkpt lat="43.7494" lon="7.01592">
        <ele>907.6</ele>
        <time>2009-06-21T12:00:14Z</time>
      </trkpt>
      <trkpt lat="43.74958" lon="7.01599">
        <ele>911.5</ele>
        <time>2009-06-21T12:00:58Z</time>
      </trkpt>
      <trkpt lat="43.74979" lon="7.01608">
        <ele>916.3</ele>
        <time>2009-06-21T12:01:35Z</time>
      </trkpt>
      <trkpt lat="43.75001" lon="7.01611">
        <ele>923</ele>
        <time>2009-06-21T12:02:08Z</time>
      </trkpt>
      <trkpt lat="43.75019" lon="7.01618">
        <ele>922.5</ele>
        <time>2009-06-21T12:02:55Z</time>
      </trkpt>
      <trkpt lat="43.75041" lon="7.0162">
        <ele>923.5</ele>
        <time>2009-06-21T12:03:34Z</time>
      </trkpt>
      <trkpt lat="43.7506" lon="7.01622">
        <ele>927.3</ele>
        <time>2009-06-21T12:03:55Z</time>
      </trkpt>
      <trkpt lat="43.75086" lon="7.01626">
        <ele>933.6</ele>
        <time>2009-06-21T12:04:52Z</time>
      </trkpt>
      <trkpt lat="43.75098" lon="7.01612">
        <ele>939.8</ele>
        <time>2009-06-21T12:05:21Z</time>
      </trkpt>
      <trkpt lat="43.75116" lon="7.01606">
        <ele>940.3</ele>
        <time>2009-06-21T12:06:05Z</time>
      </trkpt>
      <trkpt lat="43.75133" lon="7.01611">
        <ele>938.4</ele>
        <time>2009-06-21T12:06:14Z</time>
      </trkpt>
      <trkpt lat="43.75153" lon="7.01621">
        <ele>936.9</ele>
        <time>2009-06-21T12:06:20Z</time>
      </trkpt>
      <trkpt lat="43.75171" lon="7.0163">
        <ele>937.4</ele>
        <time>2009-06-21T12:06:25Z</time>
      </trkpt>
      <trkpt lat="43.75187" lon="7.01645">
        <ele>935</ele>
        <time>2009-06-21T12:06:31Z</time>
      </trkpt>
      <trkpt lat="43.75201" lon="7.01661">
        <ele>935</ele>
        <time>2009-06-21T12:06:36Z</time>
      </trkpt>
      <trkpt lat="43.75216" lon="7.01677">
        <ele>934.1</ele>
        <time>2009-06-21T12:06:41Z</time>
      </trkpt>
      <trkpt lat="43.75233" lon="7.01691">
        <ele>933.6</ele>
        <time>2009-06-21T12:06:46Z</time>
      </trkpt>
      <trkpt lat="43.75249" lon="7.01704">
        <ele>933.6</ele>
        <time>2009-06-21T12:06:51Z</time>
      </trkpt>
      <trkpt lat="43.75264" lon="7.01717">
        <ele>933.6</ele>
        <time>2009-06-21T12:06:56Z</time>
      </trkpt>
      <trkpt lat="43.75279" lon="7.01733">
        <ele>933.6</ele>
        <time>2009-06-21T12:07:02Z</time>
      </trkpt>
      <trkpt lat="43.75296" lon="7.01747">
        <ele>936.9</ele>
        <time>2009-06-21T12:07:10Z</time>
      </trkpt>
      <trkpt lat="43.75312" lon="7.01759">
        <ele>938.9</ele>
        <time>2009-06-21T12:07:18Z</time>
      </trkpt>
      <trkpt lat="43.7533" lon="7.01773">
        <ele>941.3</ele>
        <time>2009-06-21T12:07:28Z</time>
      </trkpt>
      <trkpt lat="43.7534" lon="7.01788">
        <ele>941.3</ele>
        <time>2009-06-21T12:07:49Z</time>
      </trkpt>
      <trkpt lat="43.75333" lon="7.01813">
        <ele>945.6</ele>
        <time>2009-06-21T12:08:18Z</time>
      </trkpt>
      <trkpt lat="43.75321" lon="7.01832">
        <ele>949.4</ele>
        <time>2009-06-21T12:08:38Z</time>
      </trkpt>
      <trkpt lat="43.75306" lon="7.01841">
        <ele>951.4</ele>
        <time>2009-06-21T12:09:01Z</time>
      </trkpt>
      <trkpt lat="43.75288" lon="7.01838">
        <ele>951.4</ele>
        <time>2009-06-21T12:09:12Z</time>
      </trkpt>
      <trkpt lat="43.75269" lon="7.01835">
        <ele>953.8</ele>
        <time>2009-06-21T12:09:23Z</time>
      </trkpt>
      <trkpt lat="43.75252" lon="7.01832">
        <ele>959.5</ele>
        <time>2009-06-21T12:09:35Z</time>
      </trkpt>
      <trkpt lat="43.75231" lon="7.01822">
        <ele>964.8</ele>
        <time>2009-06-21T12:10:13Z</time>
      </trkpt>
      <trkpt lat="43.75214" lon="7.01815">
        <ele>969.1</ele>
        <time>2009-06-21T12:10:41Z</time>
      </trkpt>
      <trkpt lat="43.75195" lon="7.01807">
        <ele>970.6</ele>
        <time>2009-06-21T12:11:04Z</time>
      </trkpt>
      <trkpt lat="43.75177" lon="7.01802">
        <ele>971.1</ele>
        <time>2009-06-21T12:11:25Z</time>
      </trkpt>
      <trkpt lat="43.75161" lon="7.01799">
        <ele>974</ele>
        <time>2009-06-21T12:11:37Z</time>
      </trkpt>
      <trkpt lat="43.75143" lon="7.01795">
        <ele>975.9</ele>
        <time>2009-06-21T12:11:49Z</time>
      </trkpt>
      <trkpt lat="43.75125" lon="7.01793">
        <ele>978.8</ele>
        <time>2009-06-21T12:12:01Z</time>
      </trkpt>
      <trkpt lat="43.75108" lon="7.01797">
        <ele>979.2</ele>
        <time>2009-06-21T12:12:13Z</time>
      </trkpt>
      <trkpt lat="43.75091" lon="7.01807">
        <ele>979.2</ele>
        <time>2009-06-21T12:12:25Z</time>
      </trkpt>
      <trkpt lat="43.75081" lon="7.01823">
        <ele>982.6</ele>
        <time>2009-06-21T12:12:45Z</time>
      </trkpt>
      <trkpt lat="43.75066" lon="7.01836">
        <ele>986.4</ele>
        <time>2009-06-21T12:13:05Z</time>
      </trkpt>
      <trkpt lat="43.75053" lon="7.01852">
        <ele>990.8</ele>
        <time>2009-06-21T12:13:35Z</time>
      </trkpt>
      <trkpt lat="43.75033" lon="7.01856">
        <ele>994.6</ele>
        <time>2009-06-21T12:14:19Z</time>
      </trkpt>
      <trkpt lat="43.75016" lon="7.0186">
        <ele>1001.8</ele>
        <time>2009-06-21T12:14:50Z</time>
      </trkpt>
      <trkpt lat="43.74998" lon="7.01869">
        <ele>1006.2</ele>
        <time>2009-06-21T12:15:27Z</time>
      </trkpt>
      <trkpt lat="43.74979" lon="7.01869">
        <ele>1006.2</ele>
        <time>2009-06-21T12:15:51Z</time>
      </trkpt>
      <trkpt lat="43.74962" lon="7.01873">
        <ele>1011.4</ele>
        <time>2009-06-21T12:16:18Z</time>
      </trkpt>
      <trkpt lat="43.74944" lon="7.01875">
        <ele>1014.8</ele>
        <time>2009-06-21T12:16:43Z</time>
      </trkpt>
      <trkpt lat="43.74925" lon="7.01879">
        <ele>1018.2</ele>
        <time>2009-06-21T12:17:10Z</time>
      </trkpt>
      <trkpt lat="43.74907" lon="7.01882">
        <ele>1021.1</ele>
        <time>2009-06-21T12:17:31Z</time>
      </trkpt>
      <trkpt lat="43.74889" lon="7.01886">
        <ele>1023.5</ele>
        <time>2009-06-21T12:17:58Z</time>
      </trkpt>
      <trkpt lat="43.74875" lon="7.01902">
        <ele>1023.5</ele>
        <time>2009-06-21T12:18:24Z</time>
      </trkpt>
      <trkpt lat="43.74858" lon="7.01913">
        <ele>1027.8</ele>
        <time>2009-06-21T12:18:46Z</time>
      </trkpt>
      <trkpt lat="43.74839" lon="7.01923">
        <ele>1032.6</ele>
        <time>2009-06-21T12:19:18Z</time>
      </trkpt>
      <trkpt lat="43.74822" lon="7.01921">
        <ele>1035.5</ele>
        <time>2009-06-21T12:19:58Z</time>
      </trkpt>
      <trkpt lat="43.74803" lon="7.01918">
        <ele>1037.9</ele>
        <time>2009-06-21T12:20:21Z</time>
      </trkpt>
      <trkpt lat="43.74786" lon="7.01918">
        <ele>1041.7</ele>
        <time>2009-06-21T12:20:47Z</time>
      </trkpt>
      <trkpt lat="43.74769" lon="7.01923">
        <ele>1045.6</ele>
        <time>2009-06-21T12:21:16Z</time>
      </trkpt>
      <trkpt lat="43.74752" lon="7.0192">
        <ele>1047.5</ele>
        <time>2009-06-21T12:21:41Z</time>
      </trkpt>
      <trkpt lat="43.74734" lon="7.0192">
        <ele>1050.9</ele>
        <time>2009-06-21T12:22:02Z</time>
      </trkpt>
      <trkpt lat="43.74715" lon="7.01921">
        <ele>1052.8</ele>
        <time>2009-06-21T12:22:23Z</time>
      </trkpt>
      <trkpt lat="43.74707" lon="7.01928">
        <ele>1053.7</ele>
        <time>2009-06-21T12:22:45Z</time>
      </trkpt>
      <trkpt lat="43.74701" lon="7.01947">
        <ele>1057.1</ele>
        <time>2009-06-21T12:23:19Z</time>
      </trkpt>
      <trkpt lat="43.7469" lon="7.01962">
        <ele>1062.9</ele>
        <time>2009-06-21T12:23:46Z</time>
      </trkpt>
      <trkpt lat="43.74679" lon="7.01974">
        <ele>1066.2</ele>
        <time>2009-06-21T12:24:12Z</time>
      </trkpt>
      <trkpt lat="43.74658" lon="7.01983">
        <ele>1070.6</ele>
        <time>2009-06-21T12:24:46Z</time>
      </trkpt>
      <trkpt lat="43.74637" lon="7.01989">
        <ele>1069.6</ele>
        <time>2009-06-21T12:25:12Z</time>
      </trkpt>
      <trkpt lat="43.74635" lon="7.02012">
        <ele>1075.4</ele>
        <time>2009-06-21T12:26:10Z</time>
      </trkpt>
      <trkpt lat="43.74628" lon="7.02034">
        <ele>1085</ele>
        <time>2009-06-21T12:27:38Z</time>
      </trkpt>
      <trkpt lat="43.74621" lon="7.02057">
        <ele>1089.3</ele>
        <time>2009-06-21T12:28:46Z</time>
      </trkpt>
      <trkpt lat="43.74613" lon="7.02075">
        <ele>1089.8</ele>
        <time>2009-06-21T12:29:05Z</time>
      </trkpt>
      <trkpt lat="43.74594" lon="7.02079">
        <ele>1095.1</ele>
        <time>2009-06-21T12:29:50Z</time>
      </trkpt>
      <trkpt lat="43.74581" lon="7.02097">
        <ele>1102.3</ele>
        <time>2009-06-21T12:30:27Z</time>
      </trkpt>
      <trkpt lat="43.74569" lon="7.02114">
        <ele>1109</ele>
        <time>2009-06-21T12:31:07Z</time>
      </trkpt>
      <trkpt lat="43.74563" lon="7.02137">
        <ele>1114.3</ele>
        <time>2009-06-21T12:31:40Z</time>
      </trkpt>
      <trkpt lat="43.74553" lon="7.02156">
        <ele>1117.7</ele>
        <time>2009-06-21T12:32:07Z</time>
      </trkpt>
      <trkpt lat="43.74546" lon="7.02178">
        <ele>1120.1</ele>
        <time>2009-06-21T12:32:32Z</time>
      </trkpt>
      <trkpt lat="43.74533" lon="7.02194">
        <ele>1123</ele>
        <time>2009-06-21T12:32:58Z</time>
      </trkpt>
      <trkpt lat="43.7452" lon="7.02208">
        <ele>1126.3</ele>
        <time>2009-06-21T12:33:25Z</time>
      </trkpt>
      <trkpt lat="43.7451" lon="7.02228">
        <ele>1130.2</ele>
        <time>2009-06-21T12:33:53Z</time>
      </trkpt>
      <trkpt lat="43.74504" lon="7.02247">
        <ele>1135</ele>
        <time>2009-06-21T12:34:21Z</time>
      </trkpt>
      <trkpt lat="43.74499" lon="7.02267">
        <ele>1139.8</ele>
        <time>2009-06-21T12:34:48Z</time>
      </trkpt>
      <trkpt lat="43.7449" lon="7.02283">
        <ele>1144.1</ele>
        <time>2009-06-21T12:35:17Z</time>
      </trkpt>
      <trkpt lat="43.74496" lon="7.02306">
        <ele>1146.5</ele>
        <time>2009-06-21T12:35:48Z</time>
      </trkpt>
      <trkpt lat="43.74492" lon="7.02331">
        <ele>1150.4</ele>
        <time>2009-06-21T12:36:20Z</time>
      </trkpt>
      <trkpt lat="43.74483" lon="7.02355">
        <ele>1151.8</ele>
        <time>2009-06-21T12:36:49Z</time>
      </trkpt>
      <trkpt lat="43.74478" lon="7.02376">
        <ele>1155.6</ele>
        <time>2009-06-21T12:37:32Z</time>
      </trkpt>
      <trkpt lat="43.74467" lon="7.02399">
        <ele>1160.9</ele>
        <time>2009-06-21T12:39:49Z</time>
      </trkpt>
      <trkpt lat="43.74457" lon="7.0242">
        <ele>1165.7</ele>
        <time>2009-06-21T12:40:28Z</time>
      </trkpt>
      <trkpt lat="43.74449" lon="7.02443">
        <ele>1169.1</ele>
        <time>2009-06-21T12:41:02Z</time>
      </trkpt>
      <trkpt lat="43.74439" lon="7.02461">
        <ele>1178.2</ele>
        <time>2009-06-21T12:41:42Z</time>
      </trkpt>
      <trkpt lat="43.74427" lon="7.02481">
        <ele>1182.1</ele>
        <time>2009-06-21T12:42:22Z</time>
      </trkpt>
      <trkpt lat="43.74415" lon="7.02501">
        <ele>1190.2</ele>
        <time>2009-06-21T12:43:10Z</time>
      </trkpt>
      <trkpt lat="43.74401" lon="7.02519">
        <ele>1196</ele>
        <time>2009-06-21T12:43:51Z</time>
      </trkpt>
      <trkpt lat="43.74388" lon="7.02535">
        <ele>1201.8</ele>
        <time>2009-06-21T12:44:26Z</time>
      </trkpt>
      <trkpt lat="43.74378" lon="7.02553">
        <ele>1206.6</ele>
        <time>2009-06-21T12:45:02Z</time>
      </trkpt>
      <trkpt lat="43.74368" lon="7.02573">
        <ele>1211.9</ele>
        <time>2009-06-21T12:45:42Z</time>
      </trkpt>
      <trkpt lat="43.74359" lon="7.02595">
        <ele>1217.6</ele>
        <time>2009-06-21T12:46:16Z</time>
      </trkpt>
      <trkpt lat="43.74348" lon="7.02614">
        <ele>1222.5</ele>
        <time>2009-06-21T12:46:50Z</time>
      </trkpt>
      <trkpt lat="43.74339" lon="7.02636">
        <ele>1225.3</ele>
        <time>2009-06-21T12:47:22Z</time>
      </trkpt>
      <trkpt lat="43.7433" lon="7.02658">
        <ele>1230.1</ele>
        <time>2009-06-21T12:47:50Z</time>
      </trkpt>
      <trkpt lat="43.74323" lon="7.02679">
        <ele>1231.1</ele>
        <time>2009-06-21T12:48:16Z</time>
      </trkpt>
      <trkpt lat="43.74314" lon="7.02701">
        <ele>1232.5</ele>
        <time>2009-06-21T12:48:47Z</time>
      </trkpt>
      <trkpt lat="43.74304" lon="7.02724">
        <ele>1239.8</ele>
        <time>2009-06-21T12:49:13Z</time>
      </trkpt>
      <trkpt lat="43.74298" lon="7.02746">
        <ele>1240.2</ele>
        <time>2009-06-21T12:49:50Z</time>
      </trkpt>
      <trkpt lat="43.7429" lon="7.02771">
        <ele>1241.7</ele>
        <time>2009-06-21T12:50:19Z</time>
      </trkpt>
      <trkpt lat="43.7428" lon="7.0279">
        <ele>1247</ele>
        <time>2009-06-21T12:50:46Z</time>
      </trkpt>
      <trkpt lat="43.74274" lon="7.02812">
        <ele>1251.8</ele>
        <time>2009-06-21T12:51:12Z</time>
      </trkpt>
      <trkpt lat="43.74266" lon="7.02827">
        <ele>1258</ele>
        <time>2009-06-21T12:51:33Z</time>
      </trkpt>
      <trkpt lat="43.74262" lon="7.0285">
        <ele>1259</ele>
        <time>2009-06-21T12:51:59Z</time>
      </trkpt>
      <trkpt lat="43.74243" lon="7.02863">
        <ele>1260.4</ele>
        <time>2009-06-21T12:53:13Z</time>
      </trkpt>
      <trkpt lat="43.74224" lon="7.02862">
        <ele>1263.8</ele>
        <time>2009-06-21T12:53:37Z</time>
      </trkpt>
      <trkpt lat="43.74207" lon="7.0287">
        <ele>1265.2</ele>
        <time>2009-06-21T12:54:00Z</time>
      </trkpt>
      <trkpt lat="43.74191" lon="7.02879">
        <ele>1266.7</ele>
        <time>2009-06-21T12:54:19Z</time>
      </trkpt>
      <trkpt lat="43.74174" lon="7.0288">
        <ele>1267.6</ele>
        <time>2009-06-21T12:55:45Z</time>
      </trkpt>
      <trkpt lat="43.74158" lon="7.02868">
        <ele>1267.6</ele>
        <time>2009-06-21T12:55:59Z</time>
      </trkpt>
      <trkpt lat="43.74141" lon="7.02853">
        <ele>1268.1</ele>
        <time>2009-06-21T12:56:06Z</time>
      </trkpt>
      <trkpt lat="43.74125" lon="7.02838">
        <ele>1268.6</ele>
        <time>2009-06-21T12:56:13Z</time>
      </trkpt>
      <trkpt lat="43.74108" lon="7.02827">
        <ele>1267.6</ele>
        <time>2009-06-21T12:56:20Z</time>
      </trkpt>
      <trkpt lat="43.7409" lon="7.02823">
        <ele>1267.2</ele>
        <time>2009-06-21T12:56:27Z</time>
      </trkpt>
      <trkpt lat="43.74072" lon="7.02819">
        <ele>1266.7</ele>
        <time>2009-06-21T12:56:34Z</time>
      </trkpt>
      <trkpt lat="43.74053" lon="7.02816">
        <ele>1266.2</ele>
        <time>2009-06-21T12:56:42Z</time>
      </trkpt>
      <trkpt lat="43.74036" lon="7.02809">
        <ele>1265.7</ele>
        <time>2009-06-21T12:56:50Z</time>
      </trkpt>
      <trkpt lat="43.74037" lon="7.02799">
        <ele>1263.8</ele>
        <time>2009-06-21T13:04:28Z</time>
      </trkpt>
      <trkpt lat="43.74054" lon="7.02806">
        <ele>1263.8</ele>
        <time>2009-06-21T13:04:38Z</time>
      </trkpt>
      <trkpt lat="43.74074" lon="7.0281">
        <ele>1264.3</ele>
        <time>2009-06-21T13:04:47Z</time>
      </trkpt>
      <trkpt lat="43.74093" lon="7.02811">
        <ele>1263.3</ele>
        <time>2009-06-21T13:04:55Z</time>
      </trkpt>
      <trkpt lat="43.74105" lon="7.02826">
        <ele>1264.8</ele>
        <time>2009-06-21T13:05:18Z</time>
      </trkpt>
      <trkpt lat="43.74122" lon="7.02834">
        <ele>1264.3</ele>
        <time>2009-06-21T13:05:26Z</time>
      </trkpt>
      <trkpt lat="43.74137" lon="7.02849">
        <ele>1265.7</ele>
        <time>2009-06-21T13:05:33Z</time>
      </trkpt>
      <trkpt lat="43.74153" lon="7.02863">
        <ele>1265.7</ele>
        <time>2009-06-21T13:05:40Z</time>
      </trkpt>
      <trkpt lat="43.74168" lon="7.02875">
        <ele>1266.7</ele>
        <time>2009-06-21T13:05:47Z</time>
      </trkpt>
      <trkpt lat="43.74184" lon="7.02887">
        <ele>1266.2</ele>
        <time>2009-06-21T13:05:55Z</time>
      </trkpt>
      <trkpt lat="43.74198" lon="7.02875">
        <ele>1264.8</ele>
        <time>2009-06-21T13:06:11Z</time>
      </trkpt>
      <trkpt lat="43.74216" lon="7.02862">
        <ele>1262.3</ele>
        <time>2009-06-21T13:06:20Z</time>
      </trkpt>
      <trkpt lat="43.74235" lon="7.02863">
        <ele>1260.9</ele>
        <time>2009-06-21T13:06:30Z</time>
      </trkpt>
      <trkpt lat="43.74252" lon="7.02862">
        <ele>1259.9</ele>
        <time>2009-06-21T13:06:44Z</time>
      </trkpt>
      <trkpt lat="43.74262" lon="7.02845">
        <ele>1258</ele>
        <time>2009-06-21T13:06:54Z</time>
      </trkpt>
      <trkpt lat="43.74269" lon="7.02821">
        <ele>1254.2</ele>
        <time>2009-06-21T13:07:03Z</time>
      </trkpt>
      <trkpt lat="43.7428" lon="7.02799">
        <ele>1249.9</ele>
        <time>2009-06-21T13:07:13Z</time>
      </trkpt>
      <trkpt lat="43.74289" lon="7.02775">
        <ele>1245</ele>
        <time>2009-06-21T13:07:23Z</time>
      </trkpt>
      <trkpt lat="43.74297" lon="7.02752">
        <ele>1241.7</ele>
        <time>2009-06-21T13:07:28Z</time>
      </trkpt>
      <trkpt lat="43.74303" lon="7.02726">
        <ele>1238.3</ele>
        <time>2009-06-21T13:07:34Z</time>
      </trkpt>
      <trkpt lat="43.74312" lon="7.02703">
        <ele>1233</ele>
        <time>2009-06-21T13:07:44Z</time>
      </trkpt>
      <trkpt lat="43.74321" lon="7.02682">
        <ele>1229.2</ele>
        <time>2009-06-21T13:07:52Z</time>
      </trkpt>
      <trkpt lat="43.7433" lon="7.02658">
        <ele>1224.9</ele>
        <time>2009-06-21T13:08:00Z</time>
      </trkpt>
      <trkpt lat="43.74339" lon="7.02633">
        <ele>1219.1</ele>
        <time>2009-06-21T13:08:07Z</time>
      </trkpt>
      <trkpt lat="43.74351" lon="7.02611">
        <ele>1214.8</ele>
        <time>2009-06-21T13:08:15Z</time>
      </trkpt>
      <trkpt lat="43.74362" lon="7.02588">
        <ele>1210</ele>
        <time>2009-06-21T13:08:24Z</time>
      </trkpt>
      <trkpt lat="43.74372" lon="7.02565">
        <ele>1205.1</ele>
        <time>2009-06-21T13:08:33Z</time>
      </trkpt>
      <trkpt lat="43.74384" lon="7.02547">
        <ele>1197.9</ele>
        <time>2009-06-21T13:09:28Z</time>
      </trkpt>
      <trkpt lat="43.74396" lon="7.02524">
        <ele>1193.1</ele>
        <time>2009-06-21T13:09:39Z</time>
      </trkpt>
      <trkpt lat="43.7441" lon="7.02506">
        <ele>1187.4</ele>
        <time>2009-06-21T13:09:51Z</time>
      </trkpt>
      <trkpt lat="43.74422" lon="7.02487">
        <ele>1182.1</ele>
        <time>2009-06-21T13:10:04Z</time>
      </trkpt>
      <trkpt lat="43.74433" lon="7.02468">
        <ele>1175.8</ele>
        <time>2009-06-21T13:10:18Z</time>
      </trkpt>
      <trkpt lat="43.74448" lon="7.02448">
        <ele>1171</ele>
        <time>2009-06-21T13:10:30Z</time>
      </trkpt>
      <trkpt lat="43.74455" lon="7.02426">
        <ele>1164.8</ele>
        <time>2009-06-21T13:10:41Z</time>
      </trkpt>
      <trkpt lat="43.74465" lon="7.02404">
        <ele>1159.5</ele>
        <time>2009-06-21T13:10:51Z</time>
      </trkpt>
      <trkpt lat="43.74475" lon="7.02383">
        <ele>1155.6</ele>
        <time>2009-06-21T13:11:02Z</time>
      </trkpt>
      <trkpt lat="43.74481" lon="7.02358">
        <ele>1150.4</ele>
        <time>2009-06-21T13:11:14Z</time>
      </trkpt>
      <trkpt lat="43.7449" lon="7.02335">
        <ele>1146</ele>
        <time>2009-06-21T13:11:24Z</time>
      </trkpt>
      <trkpt lat="43.74495" lon="7.02312">
        <ele>1141.7</ele>
        <time>2009-06-21T13:11:33Z</time>
      </trkpt>
      <trkpt lat="43.745" lon="7.02287">
        <ele>1136.4</ele>
        <time>2009-06-21T13:11:41Z</time>
      </trkpt>
      <trkpt lat="43.74509" lon="7.02268">
        <ele>1133.1</ele>
        <time>2009-06-21T13:11:49Z</time>
      </trkpt>
      <trkpt lat="43.74516" lon="7.02246">
        <ele>1128.7</ele>
        <time>2009-06-21T13:12:01Z</time>
      </trkpt>
      <trkpt lat="43.74525" lon="7.02225">
        <ele>1124.4</ele>
        <time>2009-06-21T13:12:40Z</time>
      </trkpt>
      <trkpt lat="43.74539" lon="7.02203">
        <ele>1118.6</ele>
        <time>2009-06-21T13:13:27Z</time>
      </trkpt>
      <trkpt lat="43.7455" lon="7.02184">
        <ele>1114.3</ele>
        <time>2009-06-21T13:13:37Z</time>
      </trkpt>
      <trkpt lat="43.7455" lon="7.02162">
        <ele>1111.4</ele>
        <time>2009-06-21T13:13:49Z</time>
      </trkpt>
      <trkpt lat="43.7456" lon="7.02143">
        <ele>1110</ele>
        <time>2009-06-21T13:14:02Z</time>
      </trkpt>
      <trkpt lat="43.74566" lon="7.02119">
        <ele>1103.7</ele>
        <time>2009-06-21T13:14:36Z</time>
      </trkpt>
      <trkpt lat="43.7458" lon="7.02097">
        <ele>1098</ele>
        <time>2009-06-21T13:15:20Z</time>
      </trkpt>
      <trkpt lat="43.74595" lon="7.02077">
        <ele>1093.2</ele>
        <time>2009-06-21T13:16:35Z</time>
      </trkpt>
      <trkpt lat="43.74617" lon="7.02072">
        <ele>1091.7</ele>
        <time>2009-06-21T13:16:58Z</time>
      </trkpt>
      <trkpt lat="43.74624" lon="7.02048">
        <ele>1089.3</ele>
        <time>2009-06-21T13:17:04Z</time>
      </trkpt>
      <trkpt lat="43.7463" lon="7.02026">
        <ele>1085</ele>
        <time>2009-06-21T13:17:16Z</time>
      </trkpt>
      <trkpt lat="43.74639" lon="7.0201">
        <ele>1079.7</ele>
        <time>2009-06-21T13:17:59Z</time>
      </trkpt>
      <trkpt lat="43.74645" lon="7.01986">
        <ele>1073</ele>
        <time>2009-06-21T13:18:44Z</time>
      </trkpt>
      <trkpt lat="43.74664" lon="7.01979">
        <ele>1069.6</ele>
        <time>2009-06-21T13:18:57Z</time>
      </trkpt>
      <trkpt lat="43.74685" lon="7.0197">
        <ele>1065.8</ele>
        <time>2009-06-21T13:19:11Z</time>
      </trkpt>
      <trkpt lat="43.74694" lon="7.0195">
        <ele>1061</ele>
        <time>2009-06-21T13:19:21Z</time>
      </trkpt>
      <trkpt lat="43.74704" lon="7.01931">
        <ele>1055.7</ele>
        <time>2009-06-21T13:19:38Z</time>
      </trkpt>
      <trkpt lat="43.74715" lon="7.01921">
        <ele>1052.3</ele>
        <time>2009-06-21T13:19:55Z</time>
      </trkpt>
      <trkpt lat="43.74736" lon="7.01919">
        <ele>1052.3</ele>
        <time>2009-06-21T13:20:02Z</time>
      </trkpt>
      <trkpt lat="43.74756" lon="7.01921">
        <ele>1048.9</ele>
        <time>2009-06-21T13:20:09Z</time>
      </trkpt>
      <trkpt lat="43.74775" lon="7.01919">
        <ele>1045.6</ele>
        <time>2009-06-21T13:20:17Z</time>
      </trkpt>
      <trkpt lat="43.74794" lon="7.01918">
        <ele>1042.2</ele>
        <time>2009-06-21T13:20:27Z</time>
      </trkpt>
      <trkpt lat="43.74813" lon="7.01917">
        <ele>1037.9</ele>
        <time>2009-06-21T13:20:44Z</time>
      </trkpt>
      <trkpt lat="43.74833" lon="7.01923">
        <ele>1035</ele>
        <time>2009-06-21T13:20:52Z</time>
      </trkpt>
      <trkpt lat="43.74852" lon="7.01917">
        <ele>1029.7</ele>
        <time>2009-06-21T13:20:58Z</time>
      </trkpt>
      <trkpt lat="43.74869" lon="7.01902">
        <ele>1026.8</ele>
        <time>2009-06-21T13:21:02Z</time>
      </trkpt>
      <trkpt lat="43.74885" lon="7.0189">
        <ele>1026.3</ele>
        <time>2009-06-21T13:21:09Z</time>
      </trkpt>
      <trkpt lat="43.749" lon="7.01882">
        <ele>1023</ele>
        <time>2009-06-21T13:21:42Z</time>
      </trkpt>
      <trkpt lat="43.7492" lon="7.01879">
        <ele>1020.1</ele>
        <time>2009-06-21T13:21:48Z</time>
      </trkpt>
      <trkpt lat="43.74938" lon="7.01875">
        <ele>1015.8</ele>
        <time>2009-06-21T13:21:55Z</time>
      </trkpt>
      <trkpt lat="43.74958" lon="7.01871">
        <ele>1012.4</ele>
        <time>2009-06-21T13:22:02Z</time>
      </trkpt>
      <trkpt lat="43.74978" lon="7.01864">
        <ele>1008.6</ele>
        <time>2009-06-21T13:22:09Z</time>
      </trkpt>
      <trkpt lat="43.74998" lon="7.01868">
        <ele>1005.2</ele>
        <time>2009-06-21T13:22:16Z</time>
      </trkpt>
      <trkpt lat="43.75014" lon="7.01857">
        <ele>1000.9</ele>
        <time>2009-06-21T13:22:26Z</time>
      </trkpt>
      <trkpt lat="43.75031" lon="7.01851">
        <ele>997</ele>
        <time>2009-06-21T13:22:37Z</time>
      </trkpt>
      <trkpt lat="43.7505" lon="7.01851">
        <ele>990.8</ele>
        <time>2009-06-21T13:22:49Z</time>
      </trkpt>
      <trkpt lat="43.75061" lon="7.01832">
        <ele>987.4</ele>
        <time>2009-06-21T13:22:58Z</time>
      </trkpt>
      <trkpt lat="43.7508" lon="7.0182">
        <ele>984</ele>
        <time>2009-06-21T13:23:02Z</time>
      </trkpt>
      <trkpt lat="43.75096" lon="7.01799">
        <ele>980.7</ele>
        <time>2009-06-21T13:23:05Z</time>
      </trkpt>
      <trkpt lat="43.75114" lon="7.01791">
        <ele>979.2</ele>
        <time>2009-06-21T13:23:08Z</time>
      </trkpt>
      <trkpt lat="43.75138" lon="7.0179">
        <ele>975.9</ele>
        <time>2009-06-21T13:23:12Z</time>
      </trkpt>
      <trkpt lat="43.7516" lon="7.01796">
        <ele>973.5</ele>
        <time>2009-06-21T13:23:15Z</time>
      </trkpt>
      <trkpt lat="43.75183" lon="7.01798">
        <ele>973</ele>
        <time>2009-06-21T13:23:18Z</time>
      </trkpt>
      <trkpt lat="43.75203" lon="7.01809">
        <ele>971.1</ele>
        <time>2009-06-21T13:23:21Z</time>
      </trkpt>
      <trkpt lat="43.75219" lon="7.01812">
        <ele>967.2</ele>
        <time>2009-06-21T13:23:27Z</time>
      </trkpt>
      <trkpt lat="43.75234" lon="7.01824">
        <ele>961.5</ele>
        <time>2009-06-21T13:23:34Z</time>
      </trkpt>
      <trkpt lat="43.75254" lon="7.01831">
        <ele>956.6</ele>
        <time>2009-06-21T13:23:38Z</time>
      </trkpt>
      <trkpt lat="43.75277" lon="7.01834">
        <ele>952.8</ele>
        <time>2009-06-21T13:23:41Z</time>
      </trkpt>
      <trkpt lat="43.75301" lon="7.0184">
        <ele>951.4</ele>
        <time>2009-06-21T13:23:44Z</time>
      </trkpt>
      <trkpt lat="43.75324" lon="7.01841">
        <ele>949.4</ele>
        <time>2009-06-21T13:23:47Z</time>
      </trkpt>
      <trkpt lat="43.75344" lon="7.01837">
        <ele>947</ele>
        <time>2009-06-21T13:23:50Z</time>
      </trkpt>
      <trkpt lat="43.75361" lon="7.01839">
        <ele>947.5</ele>
        <time>2009-06-21T13:26:24Z</time>
      </trkpt>
      <trkpt lat="43.7537" lon="7.01826">
        <ele>946.6</ele>
        <time>2009-06-21T13:26:33Z</time>
      </trkpt>
      <trkpt lat="43.75351" lon="7.01816">
        <ele>945.6</ele>
        <time>2009-06-21T13:26:40Z</time>
      </trkpt>
      <trkpt lat="43.75341" lon="7.01792">
        <ele>944.2</ele>
        <time>2009-06-21T13:26:47Z</time>
      </trkpt>
      <trkpt lat="43.75327" lon="7.01771">
        <ele>939.3</ele>
        <time>2009-06-21T13:26:54Z</time>
      </trkpt>
      <trkpt lat="43.75308" lon="7.01756">
        <ele>936.9</ele>
        <time>2009-06-21T13:26:59Z</time>
      </trkpt>
      <trkpt lat="43.75289" lon="7.01743">
        <ele>935</ele>
        <time>2009-06-21T13:27:03Z</time>
      </trkpt>
      <trkpt lat="43.75271" lon="7.01725">
        <ele>933.1</ele>
        <time>2009-06-21T13:27:07Z</time>
      </trkpt>
      <trkpt lat="43.75252" lon="7.01708">
        <ele>933.1</ele>
        <time>2009-06-21T13:27:11Z</time>
      </trkpt>
      <trkpt lat="43.75234" lon="7.01693">
        <ele>933.1</ele>
        <time>2009-06-21T13:27:15Z</time>
      </trkpt>
      <trkpt lat="43.75217" lon="7.01679">
        <ele>933.6</ele>
        <time>2009-06-21T13:27:19Z</time>
      </trkpt>
      <trkpt lat="43.75201" lon="7.01664">
        <ele>933.6</ele>
        <time>2009-06-21T13:27:23Z</time>
      </trkpt>
      <trkpt lat="43.75187" lon="7.01647">
        <ele>933.6</ele>
        <time>2009-06-21T13:27:27Z</time>
      </trkpt>
      <trkpt lat="43.7517" lon="7.01632">
        <ele>934.1</ele>
        <time>2009-06-21T13:27:32Z</time>
      </trkpt>
      <trkpt lat="43.7515" lon="7.01621">
        <ele>933.1</ele>
        <time>2009-06-21T13:27:37Z</time>
      </trkpt>
      <trkpt lat="43.75131" lon="7.01611">
        <ele>933.1</ele>
        <time>2009-06-21T13:27:42Z</time>
      </trkpt>
      <trkpt lat="43.75113" lon="7.01606">
        <ele>932.6</ele>
        <time>2009-06-21T13:27:49Z</time>
      </trkpt>
      <trkpt lat="43.75096" lon="7.01612">
        <ele>930.2</ele>
        <time>2009-06-21T13:27:58Z</time>
      </trkpt>
      <trkpt lat="43.75078" lon="7.01626">
        <ele>924.4</ele>
        <time>2009-06-21T13:28:25Z</time>
      </trkpt>
      <trkpt lat="43.75056" lon="7.01621">
        <ele>921.6</ele>
        <time>2009-06-21T13:28:35Z</time>
      </trkpt>
      <trkpt lat="43.75034" lon="7.01619">
        <ele>919.2</ele>
        <time>2009-06-21T13:28:42Z</time>
      </trkpt>
      <trkpt lat="43.75014" lon="7.01616">
        <ele>917.2</ele>
        <time>2009-06-21T13:28:48Z</time>
      </trkpt>
      <trkpt lat="43.74994" lon="7.01614">
        <ele>914.8</ele>
        <time>2009-06-21T13:28:56Z</time>
      </trkpt>
      <trkpt lat="43.74976" lon="7.01607">
        <ele>911</ele>
        <time>2009-06-21T13:29:06Z</time>
      </trkpt>
      <trkpt lat="43.74957" lon="7.016">
        <ele>907.6</ele>
        <time>2009-06-21T13:29:16Z</time>
      </trkpt>
      <trkpt lat="43.74939" lon="7.01592">
        <ele>906.2</ele>
        <time>2009-06-21T13:29:25Z</time>
      </trkpt>
      <trkpt lat="43.74922" lon="7.01583">
        <ele>905.2</ele>
        <time>2009-06-21T13:29:34Z</time>
      </trkpt>
      <trkpt lat="43.74902" lon="7.01578">
        <ele>901.4</ele>
        <time>2009-06-21T13:29:43Z</time>
      </trkpt>
      <trkpt lat="43.74885" lon="7.0157">
        <ele>899</ele>
        <time>2009-06-21T13:29:48Z</time>
      </trkpt>
      <trkpt lat="43.74867" lon="7.01557">
        <ele>897</ele>
        <time>2009-06-21T13:29:53Z</time>
      </trkpt>
      <trkpt lat="43.74849" lon="7.01539">
        <ele>893.7</ele>
        <time>2009-06-21T13:29:58Z</time>
      </trkpt>
      <trkpt lat="43.74836" lon="7.01516">
        <ele>889.8</ele>
        <time>2009-06-21T13:30:02Z</time>
      </trkpt>
      <trkpt lat="43.74819" lon="7.01494">
        <ele>887</ele>
        <time>2009-06-21T13:30:06Z</time>
      </trkpt>
      <trkpt lat="43.74805" lon="7.01473">
        <ele>886</ele>
        <time>2009-06-21T13:30:11Z</time>
      </trkpt>
      <trkpt lat="43.74791" lon="7.01457">
        <ele>886.5</ele>
        <time>2009-06-21T13:30:20Z</time>
      </trkpt>
      <trkpt lat="43.74777" lon="7.01442">
        <ele>887.4</ele>
        <time>2009-06-21T13:30:27Z</time>
      </trkpt>
      <trkpt lat="43.74762" lon="7.01421">
        <ele>887</ele>
        <time>2009-06-21T13:30:32Z</time>
      </trkpt>
      <trkpt lat="43.74748" lon="7.01403">
        <ele>887</ele>
        <time>2009-06-21T13:30:37Z</time>
      </trkpt>
      <trkpt lat="43.74731" lon="7.01398">
        <ele>887.9</ele>
        <time>2009-06-21T13:30:43Z</time>
      </trkpt>
      <trkpt lat="43.74719" lon="7.01415">
        <ele>889.4</ele>
        <time>2009-06-21T13:30:51Z</time>
      </trkpt>
      <trkpt lat="43.74707" lon="7.0144">
        <ele>887.4</ele>
        <time>2009-06-21T13:30:58Z</time>
      </trkpt>
      <trkpt lat="43.74697" lon="7.01462">
        <ele>886</ele>
        <time>2009-06-21T13:31:02Z</time>
      </trkpt>
      <trkpt lat="43.74682" lon="7.01484">
        <ele>883.6</ele>
        <time>2009-06-21T13:31:06Z</time>
      </trkpt>
      <trkpt lat="43.74668" lon="7.01501">
        <ele>881.7</ele>
        <time>2009-06-21T13:31:10Z</time>
      </trkpt>
      <trkpt lat="43.7465" lon="7.01516">
        <ele>878.3</ele>
        <time>2009-06-21T13:31:16Z</time>
      </trkpt>
      <trkpt lat="43.74631" lon="7.01524">
        <ele>876.9</ele>
        <time>2009-06-21T13:31:22Z</time>
      </trkpt>
      <trkpt lat="43.74636" lon="7.01511">
        <ele>876.4</ele>
        <time>2009-06-21T13:36:26Z</time>
      </trkpt>
      <trkpt lat="43.74647" lon="7.01495">
        <ele>873</ele>
        <time>2009-06-21T13:36:40Z</time>
      </trkpt>
      <trkpt lat="43.74658" lon="7.01476">
        <ele>868.7</ele>
        <time>2009-06-21T13:36:52Z</time>
      </trkpt>
      <trkpt lat="43.74666" lon="7.01454">
        <ele>863.9</ele>
        <time>2009-06-21T13:37:02Z</time>
      </trkpt>
      <trkpt lat="43.74672" lon="7.01431">
        <ele>859.1</ele>
        <time>2009-06-21T13:37:13Z</time>
      </trkpt>
      <trkpt lat="43.74673" lon="7.01401">
        <ele>858.1</ele>
        <time>2009-06-21T13:37:22Z</time>
      </trkpt>
      <trkpt lat="43.74672" lon="7.01385">
        <ele>855.7</ele>
        <time>2009-06-21T13:37:34Z</time>
      </trkpt>
      <trkpt lat="43.74657" lon="7.01404">
        <ele>854.3</ele>
        <time>2009-06-21T13:37:44Z</time>
      </trkpt>
      <trkpt lat="43.74643" lon="7.01423">
        <ele>854.7</ele>
        <time>2009-06-21T13:37:50Z</time>
      </trkpt>
      <trkpt lat="43.74629" lon="7.01441">
        <ele>850.9</ele>
        <time>2009-06-21T13:37:57Z</time>
      </trkpt>
      <trkpt lat="43.74634" lon="7.01419">
        <ele>846.1</ele>
        <time>2009-06-21T13:38:07Z</time>
      </trkpt>
      <trkpt lat="43.74636" lon="7.01393">
        <ele>843.2</ele>
        <time>2009-06-21T13:38:14Z</time>
      </trkpt>
      <trkpt lat="43.74621" lon="7.01405">
        <ele>839.4</ele>
        <time>2009-06-21T13:38:38Z</time>
      </trkpt>
      <trkpt lat="43.74603" lon="7.01418">
        <ele>837</ele>
        <time>2009-06-21T13:38:45Z</time>
      </trkpt>
      <trkpt lat="43.74583" lon="7.01422">
        <ele>833.1</ele>
        <time>2009-06-21T13:38:50Z</time>
      </trkpt>
      <trkpt lat="43.74564" lon="7.01423">
        <ele>829.8</ele>
        <time>2009-06-21T13:38:55Z</time>
      </trkpt>
      <trkpt lat="43.74545" lon="7.01433">
        <ele>826.4</ele>
        <time>2009-06-21T13:39:01Z</time>
      </trkpt>
      <trkpt lat="43.74527" lon="7.01446">
        <ele>824</ele>
        <time>2009-06-21T13:39:06Z</time>
      </trkpt>
      <trkpt lat="43.74507" lon="7.0146">
        <ele>819.2</ele>
        <time>2009-06-21T13:39:11Z</time>
      </trkpt>
      <trkpt lat="43.74488" lon="7.01472">
        <ele>814.9</ele>
        <time>2009-06-21T13:39:15Z</time>
      </trkpt>
      <trkpt lat="43.74462" lon="7.01482">
        <ele>811</ele>
        <time>2009-06-21T13:39:22Z</time>
      </trkpt>
      <trkpt lat="43.7444" lon="7.01498">
        <ele>809.6</ele>
        <time>2009-06-21T13:39:28Z</time>
      </trkpt>
      <trkpt lat="43.74423" lon="7.01512">
        <ele>805.7</ele>
        <time>2009-06-21T13:39:34Z</time>
      </trkpt>
      <trkpt lat="43.74405" lon="7.01525">
        <ele>803.8</ele>
        <time>2009-06-21T13:39:40Z</time>
      </trkpt>
      <trkpt lat="43.74387" lon="7.01539">
        <ele>797.6</ele>
        <time>2009-06-21T13:39:47Z</time>
      </trkpt>
      <trkpt lat="43.74366" lon="7.0155">
        <ele>796.6</ele>
        <time>2009-06-21T13:40:03Z</time>
      </trkpt>
      <trkpt lat="43.74346" lon="7.01556">
        <ele>794.2</ele>
        <time>2009-06-21T13:40:10Z</time>
      </trkpt>
      <trkpt lat="43.74355" lon="7.01542">
        <ele>791.8</ele>
        <time>2009-06-21T13:40:23Z</time>
      </trkpt>
      <trkpt lat="43.74368" lon="7.0152">
        <ele>789.4</ele>
        <time>2009-06-21T13:40:32Z</time>
      </trkpt>
      <trkpt lat="43.7437" lon="7.01508">
        <ele>787</ele>
        <time>2009-06-21T13:40:42Z</time>
      </trkpt>
      <trkpt lat="43.7435" lon="7.01513">
        <ele>784.1</ele>
        <time>2009-06-21T13:40:49Z</time>
      </trkpt>
      <trkpt lat="43.74352" lon="7.01499">
        <ele>779.3</ele>
        <time>2009-06-21T13:40:59Z</time>
      </trkpt>
      <trkpt lat="43.74342" lon="7.01492">
        <ele>775.9</ele>
        <time>2009-06-21T13:41:09Z</time>
      </trkpt>
      <trkpt lat="43.74322" lon="7.01484">
        <ele>773.5</ele>
        <time>2009-06-21T13:41:16Z</time>
      </trkpt>
      <trkpt lat="43.74303" lon="7.01484">
        <ele>770.6</ele>
        <time>2009-06-21T13:41:20Z</time>
      </trkpt>
      <trkpt lat="43.74279" lon="7.01484">
        <ele>769.2</ele>
        <time>2009-06-21T13:41:24Z</time>
      </trkpt>
      <trkpt lat="43.74259" lon="7.01483">
        <ele>767.8</ele>
        <time>2009-06-21T13:41:27Z</time>
      </trkpt>
      <trkpt lat="43.74241" lon="7.01484">
        <ele>765.3</ele>
        <time>2009-06-21T13:41:30Z</time>
      </trkpt>
      <trkpt lat="43.74225" lon="7.01469">
        <ele>763.9</ele>
        <time>2009-06-21T13:41:34Z</time>
      </trkpt>
      <trkpt lat="43.74202" lon="7.01462">
        <ele>762</ele>
        <time>2009-06-21T13:41:38Z</time>
      </trkpt>
      <trkpt lat="43.74178" lon="7.01461">
        <ele>759.1</ele>
        <time>2009-06-21T13:41:42Z</time>
      </trkpt>
      <trkpt lat="43.74157" lon="7.01457">
        <ele>756.7</ele>
        <time>2009-06-21T13:41:46Z</time>
      </trkpt>
      <trkpt lat="43.74136" lon="7.01452">
        <ele>754.8</ele>
        <time>2009-06-21T13:41:51Z</time>
      </trkpt>
      <trkpt lat="43.74111" lon="7.01438">
        <ele>752.8</ele>
        <time>2009-06-21T13:41:55Z</time>
      </trkpt>
      <trkpt lat="43.74092" lon="7.01419">
        <ele>749.5</ele>
        <time>2009-06-21T13:42:00Z</time>
      </trkpt>
      <trkpt lat="43.74079" lon="7.01394">
        <ele>746.6</ele>
        <time>2009-06-21T13:42:11Z</time>
      </trkpt>
      <trkpt lat="43.74069" lon="7.01366">
        <ele>741.3</ele>
        <time>2009-06-21T13:42:22Z</time>
      </trkpt>
      <trkpt lat="43.74058" lon="7.01333">
        <ele>736</ele>
        <time>2009-06-21T13:42:33Z</time>
      </trkpt>
      <trkpt lat="43.74037" lon="7.01314">
        <ele>728.8</ele>
        <time>2009-06-21T13:42:40Z</time>
      </trkpt>
      <trkpt lat="43.74015" lon="7.01299">
        <ele>725</ele>
        <time>2009-06-21T13:42:45Z</time>
      </trkpt>
      <trkpt lat="43.73996" lon="7.01288">
        <ele>724.5</ele>
        <time>2009-06-21T13:42:50Z</time>
      </trkpt>
      <trkpt lat="43.73984" lon="7.0127">
        <ele>721.1</ele>
        <time>2009-06-21T13:43:32Z</time>
      </trkpt>
      <trkpt lat="43.73997" lon="7.01248">
        <ele>720.2</ele>
        <time>2009-06-21T13:43:38Z</time>
      </trkpt>
      <trkpt lat="43.74003" lon="7.01222">
        <ele>718.7</ele>
        <time>2009-06-21T13:43:42Z</time>
      </trkpt>
      <trkpt lat="43.74013" lon="7.01201">
        <ele>714.4</ele>
        <time>2009-06-21T13:43:46Z</time>
      </trkpt>
      <trkpt lat="43.7403" lon="7.01182">
        <ele>711.5</ele>
        <time>2009-06-21T13:43:51Z</time>
      </trkpt>
      <trkpt lat="43.74044" lon="7.01165">
        <ele>707.7</ele>
        <time>2009-06-21T13:43:58Z</time>
      </trkpt>
      <trkpt lat="43.74062" lon="7.01152">
        <ele>702.4</ele>
        <time>2009-06-21T13:44:11Z</time>
      </trkpt>
      <trkpt lat="43.74079" lon="7.01141">
        <ele>699.5</ele>
        <time>2009-06-21T13:44:46Z</time>
      </trkpt>
      <trkpt lat="43.74097" lon="7.01141">
        <ele>695.2</ele>
        <time>2009-06-21T13:44:59Z</time>
      </trkpt>
      <trkpt lat="43.74113" lon="7.01142">
        <ele>688.9</ele>
        <time>2009-06-21T13:45:30Z</time>
      </trkpt>
      <trkpt lat="43.74131" lon="7.01148">
        <ele>685.6</ele>
        <time>2009-06-21T13:45:55Z</time>
      </trkpt>
      <trkpt lat="43.74141" lon="7.01166">
        <ele>681.7</ele>
        <time>2009-06-21T13:46:08Z</time>
      </trkpt>
      <trkpt lat="43.74154" lon="7.0115">
        <ele>676.4</ele>
        <time>2009-06-21T13:46:32Z</time>
      </trkpt>
      <trkpt lat="43.74172" lon="7.01123">
        <ele>672.1</ele>
        <time>2009-06-21T13:47:22Z</time>
      </trkpt>
      <trkpt lat="43.74192" lon="7.01112">
        <ele>670.2</ele>
        <time>2009-06-21T13:47:41Z</time>
      </trkpt>
      <trkpt lat="43.74211" lon="7.01106">
        <ele>666.8</ele>
        <time>2009-06-21T13:47:48Z</time>
      </trkpt>
      <trkpt lat="43.7423" lon="7.01098">
        <ele>662.5</ele>
        <time>2009-06-21T13:47:56Z</time>
      </trkpt>
      <trkpt lat="43.74241" lon="7.01073">
        <ele>657.2</ele>
        <time>2009-06-21T13:48:06Z</time>
      </trkpt>
      <trkpt lat="43.74242" lon="7.01045">
        <ele>652.4</ele>
        <time>2009-06-21T13:48:15Z</time>
      </trkpt>
      <trkpt lat="43.74254" lon="7.0102">
        <ele>649</ele>
        <time>2009-06-21T13:48:22Z</time>
      </trkpt>
      <trkpt lat="43.7427" lon="7.01">
        <ele>648.5</ele>
        <time>2009-06-21T13:48:27Z</time>
      </trkpt>
      <trkpt lat="43.74289" lon="7.00984">
        <ele>647.1</ele>
        <time>2009-06-21T13:48:35Z</time>
      </trkpt>
      <trkpt lat="43.74307" lon="7.00963">
        <ele>644.7</ele>
        <time>2009-06-21T13:49:02Z</time>
      </trkpt>
      <trkpt lat="43.74297" lon="7.00948">
        <ele>641.8</ele>
        <time>2009-06-21T13:49:10Z</time>
      </trkpt>
      <trkpt lat="43.74278" lon="7.00927">
        <ele>641.3</ele>
        <time>2009-06-21T13:49:14Z</time>
      </trkpt>
      <trkpt lat="43.74269" lon="7.00901">
        <ele>640.4</ele>
        <time>2009-06-21T13:49:17Z</time>
      </trkpt>
      <trkpt lat="43.74272" lon="7.00874">
        <ele>638</ele>
        <time>2009-06-21T13:49:22Z</time>
      </trkpt>
      <trkpt lat="43.74255" lon="7.00858">
        <ele>631.7</ele>
        <time>2009-06-21T13:49:34Z</time>
      </trkpt>
      <trkpt lat="43.74242" lon="7.00867">
        <ele>630.8</ele>
        <time>2009-06-21T13:49:46Z</time>
      </trkpt>
      <trkpt lat="43.74242" lon="7.00887">
        <ele>630.3</ele>
        <time>2009-06-21T13:50:02Z</time>
      </trkpt>
      <trkpt lat="43.7425" lon="7.00895">
        <ele>633.2</ele>
        <time>2009-06-21T13:53:09Z</time>
      </trkpt>
      <trkpt lat="43.74245" lon="7.00919">
        <ele>633.2</ele>
        <time>2009-06-21T13:53:19Z</time>
      </trkpt>
      <trkpt lat="43.74259" lon="7.00932">
        <ele>633.2</ele>
        <time>2009-06-21T13:53:29Z</time>
      </trkpt>
      <trkpt lat="43.74278" lon="7.00933">
        <ele>632.7</ele>
        <time>2009-06-21T13:53:39Z</time>
      </trkpt>
      <trkpt lat="43.74265" lon="7.00908">
        <ele>630.3</ele>
        <time>2009-06-21T13:53:45Z</time>
      </trkpt>
      <trkpt lat="43.74267" lon="7.00877">
        <ele>626.4</ele>
        <time>2009-06-21T13:53:49Z</time>
      </trkpt>
      <trkpt lat="43.74275" lon="7.00858">
        <ele>623.6</ele>
        <time>2009-06-21T13:53:54Z</time>
      </trkpt>
      <trkpt lat="43.74302" lon="7.00855">
        <ele>623.6</ele>
        <time>2009-06-21T13:53:58Z</time>
      </trkpt>
      <trkpt lat="43.74324" lon="7.00854">
        <ele>624.5</ele>
        <time>2009-06-21T13:54:01Z</time>
      </trkpt>
      <trkpt lat="43.74345" lon="7.00853">
        <ele>624.5</ele>
        <time>2009-06-21T13:54:04Z</time>
      </trkpt>
      <trkpt lat="43.74363" lon="7.00855">
        <ele>625</ele>
        <time>2009-06-21T13:54:07Z</time>
      </trkpt>
      <trkpt lat="43.74379" lon="7.00869">
        <ele>624</ele>
        <time>2009-06-21T13:54:10Z</time>
      </trkpt>
      <trkpt lat="43.74395" lon="7.00891">
        <ele>623.6</ele>
        <time>2009-06-21T13:54:13Z</time>
      </trkpt>
      <trkpt lat="43.74413" lon="7.00908">
        <ele>620.7</ele>
        <time>2009-06-21T13:54:16Z</time>
      </trkpt>
      <trkpt lat="43.74436" lon="7.00913">
        <ele>620.2</ele>
        <time>2009-06-21T13:54:19Z</time>
      </trkpt>
      <trkpt lat="43.74461" lon="7.00916">
        <ele>618.3</ele>
        <time>2009-06-21T13:54:22Z</time>
      </trkpt>
      <trkpt lat="43.74489" lon="7.00918">
        <ele>616.3</ele>
        <time>2009-06-21T13:54:25Z</time>
      </trkpt>
      <trkpt lat="43.74507" lon="7.00919">
        <ele>615.9</ele>
        <time>2009-06-21T13:54:27Z</time>
      </trkpt>
      <trkpt lat="43.74535" lon="7.00933">
        <ele>614.4</ele>
        <time>2009-06-21T13:54:30Z</time>
      </trkpt>
      <trkpt lat="43.74552" lon="7.00946">
        <ele>613.5</ele>
        <time>2009-06-21T13:54:32Z</time>
      </trkpt>
      <trkpt lat="43.74571" lon="7.00953">
        <ele>612.5</ele>
        <time>2009-06-21T13:54:34Z</time>
      </trkpt>
      <trkpt lat="43.74587" lon="7.00954">
        <ele>611.5</ele>
        <time>2009-06-21T13:54:36Z</time>
      </trkpt>
      <trkpt lat="43.7461" lon="7.00953">
        <ele>610.1</ele>
        <time>2009-06-21T13:54:38Z</time>
      </trkpt>
      <trkpt lat="43.7463" lon="7.00946">
        <ele>606.7</ele>
        <time>2009-06-21T13:54:40Z</time>
      </trkpt>
      <trkpt lat="43.74649" lon="7.00936">
        <ele>601.9</ele>
        <time>2009-06-21T13:54:42Z</time>
      </trkpt>
      <trkpt lat="43.74666" lon="7.00923">
        <ele>599.5</ele>
        <time>2009-06-21T13:54:44Z</time>
      </trkpt>
      <trkpt lat="43.7468" lon="7.00905">
        <ele>598.1</ele>
        <time>2009-06-21T13:54:46Z</time>
      </trkpt>
      <trkpt lat="43.74695" lon="7.00888">
        <ele>596.2</ele>
        <time>2009-06-21T13:54:48Z</time>
      </trkpt>
      <trkpt lat="43.74712" lon="7.00874">
        <ele>593.8</ele>
        <time>2009-06-21T13:54:50Z</time>
      </trkpt>
      <trkpt lat="43.74729" lon="7.00861">
        <ele>591.3</ele>
        <time>2009-06-21T13:54:52Z</time>
      </trkpt>
      <trkpt lat="43.74744" lon="7.00846">
        <ele>590.4</ele>
        <time>2009-06-21T13:54:54Z</time>
      </trkpt>
      <trkpt lat="43.74766" lon="7.00832">
        <ele>588.5</ele>
        <time>2009-06-21T13:54:57Z</time>
      </trkpt>
      <trkpt lat="43.74788" lon="7.00827">
        <ele>590.4</ele>
        <time>2009-06-21T13:55:00Z</time>
      </trkpt>
      <trkpt lat="43.74809" lon="7.00833">
        <ele>589.4</ele>
        <time>2009-06-21T13:55:03Z</time>
      </trkpt>
      <trkpt lat="43.7483" lon="7.00829">
        <ele>588.5</ele>
        <time>2009-06-21T13:55:06Z</time>
      </trkpt>
      <trkpt lat="43.74851" lon="7.00822">
        <ele>588</ele>
        <time>2009-06-21T13:55:09Z</time>
      </trkpt>
      <trkpt lat="43.74864" lon="7.00803">
        <ele>588</ele>
        <time>2009-06-21T13:55:12Z</time>
      </trkpt>
      <trkpt lat="43.74861" lon="7.00778">
        <ele>587.5</ele>
        <time>2009-06-21T13:55:15Z</time>
      </trkpt>
      <trkpt lat="43.74866" lon="7.0075">
        <ele>586.5</ele>
        <time>2009-06-21T13:55:18Z</time>
      </trkpt>
      <trkpt lat="43.74878" lon="7.00726">
        <ele>586.5</ele>
        <time>2009-06-21T13:55:21Z</time>
      </trkpt>
      <trkpt lat="43.74899" lon="7.00721">
        <ele>586.5</ele>
        <time>2009-06-21T13:55:24Z</time>
      </trkpt>
      <trkpt lat="43.74921" lon="7.00712">
        <ele>585.6</ele>
        <time>2009-06-21T13:55:27Z</time>
      </trkpt>
      <trkpt lat="43.74943" lon="7.00701">
        <ele>584.1</ele>
        <time>2009-06-21T13:55:30Z</time>
      </trkpt>
      <trkpt lat="43.74966" lon="7.00701">
        <ele>584.1</ele>
        <time>2009-06-21T13:55:33Z</time>
      </trkpt>
      <trkpt lat="43.7499" lon="7.00702">
        <ele>582.7</ele>
        <time>2009-06-21T13:55:36Z</time>
      </trkpt>
      <trkpt lat="43.75014" lon="7.00697">
        <ele>581.7</ele>
        <time>2009-06-21T13:55:39Z</time>
      </trkpt>
      <trkpt lat="43.75039" lon="7.00691">
        <ele>580.8</ele>
        <time>2009-06-21T13:55:42Z</time>
      </trkpt>
      <trkpt lat="43.75065" lon="7.00685">
        <ele>579.3</ele>
        <time>2009-06-21T13:55:45Z</time>
      </trkpt>
      <trkpt lat="43.7509" lon="7.0068">
        <ele>578.4</ele>
        <time>2009-06-21T13:55:48Z</time>
      </trkpt>
      <trkpt lat="43.75109" lon="7.00675">
        <ele>577.9</ele>
        <time>2009-06-21T13:55:50Z</time>
      </trkpt>
      <trkpt lat="43.75127" lon="7.00667">
        <ele>577.4</ele>
        <time>2009-06-21T13:55:52Z</time>
      </trkpt>
      <trkpt lat="43.75144" lon="7.00658">
        <ele>576.4</ele>
        <time>2009-06-21T13:55:54Z</time>
      </trkpt>
      <trkpt lat="43.75162" lon="7.00649">
        <ele>576</ele>
        <time>2009-06-21T13:55:56Z</time>
      </trkpt>
      <trkpt lat="43.75179" lon="7.00639">
        <ele>575.5</ele>
        <time>2009-06-21T13:55:58Z</time>
      </trkpt>
      <trkpt lat="43.75197" lon="7.00628">
        <ele>575</ele>
        <time>2009-06-21T13:56:00Z</time>
      </trkpt>
      <trkpt lat="43.75215" lon="7.00617">
        <ele>574</ele>
        <time>2009-06-21T13:56:02Z</time>
      </trkpt>
      <trkpt lat="43.75233" lon="7.00606">
        <ele>572.6</ele>
        <time>2009-06-21T13:56:04Z</time>
      </trkpt>
      <trkpt lat="43.7525" lon="7.00594">
        <ele>571.6</ele>
        <time>2009-06-21T13:56:06Z</time>
      </trkpt>
      <trkpt lat="43.75267" lon="7.00582">
        <ele>570.2</ele>
        <time>2009-06-21T13:56:08Z</time>
      </trkpt>
      <trkpt lat="43.75283" lon="7.0057">
        <ele>569.2</ele>
        <time>2009-06-21T13:56:10Z</time>
      </trkpt>
      <trkpt lat="43.75299" lon="7.00554">
        <ele>568.3</ele>
        <time>2009-06-21T13:56:12Z</time>
      </trkpt>
      <trkpt lat="43.75312" lon="7.00536">
        <ele>566.8</ele>
        <time>2009-06-21T13:56:14Z</time>
      </trkpt>
      <trkpt lat="43.75325" lon="7.00516">
        <ele>564.9</ele>
        <time>2009-06-21T13:56:16Z</time>
      </trkpt>
      <trkpt lat="43.75337" lon="7.00495">
        <ele>563.5</ele>
        <time>2009-06-21T13:56:18Z</time>
      </trkpt>
      <trkpt lat="43.75349" lon="7.00471">
        <ele>564.9</ele>
        <time>2009-06-21T13:56:20Z</time>
      </trkpt>
      <trkpt lat="43.7536" lon="7.00448">
        <ele>564</ele>
        <time>2009-06-21T13:56:22Z</time>
      </trkpt>
      <trkpt lat="43.75372" lon="7.00424">
        <ele>564</ele>
        <time>2009-06-21T13:56:24Z</time>
      </trkpt>
      <trkpt lat="43.75383" lon="7.00401">
        <ele>563.5</ele>
        <time>2009-06-21T13:56:26Z</time>
      </trkpt>
      <trkpt lat="43.75394" lon="7.00378">
        <ele>563</ele>
        <time>2009-06-21T13:56:28Z</time>
      </trkpt>
      <trkpt lat="43.75405" lon="7.00357">
        <ele>562</ele>
        <time>2009-06-21T13:56:30Z</time>
      </trkpt>
      <trkpt lat="43.75416" lon="7.00335">
        <ele>562</ele>
        <time>2009-06-21T13:56:32Z</time>
      </trkpt>
      <trkpt lat="43.75426" lon="7.00314">
        <ele>561.1</ele>
        <time>2009-06-21T13:56:34Z</time>
      </trkpt>
      <trkpt lat="43.75438" lon="7.00293">
        <ele>560.1</ele>
        <time>2009-06-21T13:56:36Z</time>
      </trkpt>
      <trkpt lat="43.75446" lon="7.00261">
        <ele>561.1</ele>
        <time>2009-06-21T13:56:39Z</time>
      </trkpt>
      <trkpt lat="43.75446" lon="7.00233">
        <ele>561.1</ele>
        <time>2009-06-21T13:56:42Z</time>
      </trkpt>
      <trkpt lat="43.75435" lon="7.00208">
        <ele>563</ele>
        <time>2009-06-21T13:56:45Z</time>
      </trkpt>
      <trkpt lat="43.7542" lon="7.00185">
        <ele>563</ele>
        <time>2009-06-21T13:56:48Z</time>
      </trkpt>
      <trkpt lat="43.75404" lon="7.00158">
        <ele>561.1</ele>
        <time>2009-06-21T13:56:51Z</time>
      </trkpt>
      <trkpt lat="43.75398" lon="7.00127">
        <ele>560.6</ele>
        <time>2009-06-21T13:56:54Z</time>
      </trkpt>
      <trkpt lat="43.75396" lon="7.00092">
        <ele>557.2</ele>
        <time>2009-06-21T13:56:57Z</time>
      </trkpt>
      <trkpt lat="43.75399" lon="7.00058">
        <ele>555.3</ele>
        <time>2009-06-21T13:57:00Z</time>
      </trkpt>
      <trkpt lat="43.75398" lon="7.00024">
        <ele>554.3</ele>
        <time>2009-06-21T13:57:03Z</time>
      </trkpt>
      <trkpt lat="43.7538" lon="7.00002">
        <ele>552.9</ele>
        <time>2009-06-21T13:57:06Z</time>
      </trkpt>
      <trkpt lat="43.75364" lon="6.99991">
        <ele>551</ele>
        <time>2009-06-21T13:57:11Z</time>
      </trkpt>
      <trkpt lat="43.75379" lon="6.99994">
        <ele>551.5</ele>
        <time>2009-06-21T13:57:23Z</time>
      </trkpt>
      <trkpt lat="43.754" lon="6.99995">
        <ele>554.3</ele>
        <time>2009-06-21T13:57:31Z</time>
      </trkpt>
      <trkpt lat="43.75415" lon="6.99983">
        <ele>554.8</ele>
        <time>2009-06-21T13:57:40Z</time>
      </trkpt>
      <trkpt lat="43.75421" lon="6.99962">
        <ele>555.8</ele>
        <time>2009-06-21T13:57:54Z</time>
      </trkpt>
      <trkpt lat="43.75429" lon="6.9994">
        <ele>555.3</ele>
        <time>2009-06-21T13:58:05Z</time>
      </trkpt>
      <trkpt lat="43.75445" lon="6.99921">
        <ele>555.3</ele>
        <time>2009-06-21T13:58:14Z</time>
      </trkpt>
      <trkpt lat="43.75464" lon="6.9991">
        <ele>555.3</ele>
        <time>2009-06-21T13:58:24Z</time>
      </trkpt>
      <trkpt lat="43.7548" lon="6.99896">
        <ele>551.5</ele>
        <time>2009-06-21T13:58:30Z</time>
      </trkpt>
      <trkpt lat="43.75497" lon="6.99876">
        <ele>548.1</ele>
        <time>2009-06-21T13:58:35Z</time>
      </trkpt>
      <trkpt lat="43.75517" lon="6.99862">
        <ele>544.7</ele>
        <time>2009-06-21T13:58:39Z</time>
      </trkpt>
      <trkpt lat="43.75533" lon="6.99843">
        <ele>543.3</ele>
        <time>2009-06-21T13:58:43Z</time>
      </trkpt>
      <trkpt lat="43.7554" lon="6.99817">
        <ele>542.8</ele>
        <time>2009-06-21T13:58:48Z</time>
      </trkpt>
      <trkpt lat="43.75543" lon="6.99787">
        <ele>541.8</ele>
        <time>2009-06-21T13:58:55Z</time>
      </trkpt>
      <trkpt lat="43.75543" lon="6.99759">
        <ele>544.2</ele>
        <time>2009-06-21T13:59:02Z</time>
      </trkpt>
      <trkpt lat="43.75542" lon="6.99732">
        <ele>545.7</ele>
        <time>2009-06-21T13:59:09Z</time>
      </trkpt>
      <trkpt lat="43.75539" lon="6.99703">
        <ele>547.6</ele>
        <time>2009-06-21T13:59:17Z</time>
      </trkpt>
      <trkpt lat="43.75535" lon="6.99679">
        <ele>549.5</ele>
        <time>2009-06-21T13:59:26Z</time>
      </trkpt>
      <trkpt lat="43.7554" lon="6.99652">
        <ele>553.4</ele>
        <time>2009-06-21T13:59:36Z</time>
      </trkpt>
      <trkpt lat="43.75558" lon="6.99631">
        <ele>554.8</ele>
        <time>2009-06-21T13:59:43Z</time>
      </trkpt>
      <trkpt lat="43.75578" lon="6.99623">
        <ele>555.3</ele>
        <time>2009-06-21T13:59:46Z</time>
      </trkpt>
      <trkpt lat="43.75598" lon="6.99607">
        <ele>556.7</ele>
        <time>2009-06-21T13:59:50Z</time>
      </trkpt>
      <trkpt lat="43.75608" lon="6.99582">
        <ele>561.5</ele>
        <time>2009-06-21T13:59:54Z</time>
      </trkpt>
      <trkpt lat="43.75624" lon="6.99564">
        <ele>564</ele>
        <time>2009-06-21T13:59:59Z</time>
      </trkpt>
      <trkpt lat="43.75635" lon="6.99534">
        <ele>565.4</ele>
        <time>2009-06-21T14:00:23Z</time>
      </trkpt>
      <trkpt lat="43.75642" lon="6.99504">
        <ele>566.4</ele>
        <time>2009-06-21T14:00:31Z</time>
      </trkpt>
      <trkpt lat="43.75657" lon="6.99486">
        <ele>569.2</ele>
        <time>2009-06-21T14:00:39Z</time>
      </trkpt>
      <trkpt lat="43.75673" lon="6.9947">
        <ele>572.1</ele>
        <time>2009-06-21T14:00:47Z</time>
      </trkpt>
      <trkpt lat="43.75688" lon="6.9945">
        <ele>574.5</ele>
        <time>2009-06-21T14:00:56Z</time>
      </trkpt>
      <trkpt lat="43.75707" lon="6.9943">
        <ele>572.1</ele>
        <time>2009-06-21T14:01:04Z</time>
      </trkpt>
      <trkpt lat="43.75725" lon="6.99411">
        <ele>568.3</ele>
        <time>2009-06-21T14:01:10Z</time>
      </trkpt>
      <trkpt lat="43.75738" lon="6.99386">
        <ele>568.8</ele>
        <time>2009-06-21T14:01:15Z</time>
      </trkpt>
      <trkpt lat="43.75758" lon="6.9937">
        <ele>569.2</ele>
        <time>2009-06-21T14:01:20Z</time>
      </trkpt>
      <trkpt lat="43.75778" lon="6.99369">
        <ele>570.2</ele>
        <time>2009-06-21T14:01:26Z</time>
      </trkpt>
      <trkpt lat="43.75799" lon="6.99367">
        <ele>574.5</ele>
        <time>2009-06-21T14:01:34Z</time>
      </trkpt>
      <trkpt lat="43.75821" lon="6.9936">
        <ele>579.8</ele>
        <time>2009-06-21T14:01:42Z</time>
      </trkpt>
      <trkpt lat="43.75843" lon="6.99351">
        <ele>581.3</ele>
        <time>2009-06-21T14:01:50Z</time>
      </trkpt>
      <trkpt lat="43.75869" lon="6.99352">
        <ele>579.8</ele>
        <time>2009-06-21T14:01:58Z</time>
      </trkpt>
      <trkpt lat="43.75892" lon="6.99359">
        <ele>577.9</ele>
        <time>2009-06-21T14:02:07Z</time>
      </trkpt>
      <trkpt lat="43.7592" lon="6.9937">
        <ele>576.4</ele>
        <time>2009-06-21T14:02:18Z</time>
      </trkpt>
      <trkpt lat="43.75945" lon="6.9936">
        <ele>577.9</ele>
        <time>2009-06-21T14:02:26Z</time>
      </trkpt>
      <trkpt lat="43.75965" lon="6.9934">
        <ele>578.4</ele>
        <time>2009-06-21T14:02:35Z</time>
      </trkpt>
      <trkpt lat="43.75989" lon="6.99334">
        <ele>576.4</ele>
        <time>2009-06-21T14:02:45Z</time>
      </trkpt>
      <trkpt lat="43.76013" lon="6.99329">
        <ele>576.4</ele>
        <time>2009-06-21T14:02:52Z</time>
      </trkpt>
      <trkpt lat="43.76034" lon="6.99322">
        <ele>568.3</ele>
        <time>2009-06-21T14:03:14Z</time>
      </trkpt>
      <trkpt lat="43.76052" lon="6.99311">
        <ele>563</ele>
        <time>2009-06-21T14:03:23Z</time>
      </trkpt>
      <trkpt lat="43.76073" lon="6.99303">
        <ele>557.7</ele>
        <time>2009-06-21T14:03:33Z</time>
      </trkpt>
      <trkpt lat="43.76095" lon="6.99294">
        <ele>554.3</ele>
        <time>2009-06-21T14:03:41Z</time>
      </trkpt>
      <trkpt lat="43.76117" lon="6.99282">
        <ele>551</ele>
        <time>2009-06-21T14:03:48Z</time>
      </trkpt>
      <trkpt lat="43.76137" lon="6.99271">
        <ele>546.2</ele>
        <time>2009-06-21T14:03:53Z</time>
      </trkpt>
      <trkpt lat="43.76152" lon="6.99245">
        <ele>542.8</ele>
        <time>2009-06-21T14:03:58Z</time>
      </trkpt>
      <trkpt lat="43.76171" lon="6.99219">
        <ele>538.5</ele>
        <time>2009-06-21T14:04:01Z</time>
      </trkpt>
      <trkpt lat="43.76191" lon="6.99198">
        <ele>535.1</ele>
        <time>2009-06-21T14:04:04Z</time>
      </trkpt>
      <trkpt lat="43.76209" lon="6.99185">
        <ele>533.2</ele>
        <time>2009-06-21T14:04:07Z</time>
      </trkpt>
      <trkpt lat="43.76223" lon="6.99167">
        <ele>529.8</ele>
        <time>2009-06-21T14:04:11Z</time>
      </trkpt>
      <trkpt lat="43.76238" lon="6.9915">
        <ele>526.5</ele>
        <time>2009-06-21T14:04:19Z</time>
      </trkpt>
      <trkpt lat="43.76259" lon="6.99138">
        <ele>526</ele>
        <time>2009-06-21T14:04:29Z</time>
      </trkpt>
      <trkpt lat="43.76274" lon="6.99121">
        <ele>526</ele>
        <time>2009-06-21T14:04:33Z</time>
      </trkpt>
      <trkpt lat="43.76283" lon="6.99083">
        <ele>523.6</ele>
        <time>2009-06-21T14:04:37Z</time>
      </trkpt>
      <trkpt lat="43.76264" lon="6.9908">
        <ele>523.1</ele>
        <time>2009-06-21T14:04:43Z</time>
      </trkpt>
      <trkpt lat="43.76243" lon="6.99089">
        <ele>520.2</ele>
        <time>2009-06-21T14:04:47Z</time>
      </trkpt>
      <trkpt lat="43.76224" lon="6.99105">
        <ele>517.8</ele>
        <time>2009-06-21T14:04:51Z</time>
      </trkpt>
      <trkpt lat="43.76206" lon="6.9912">
        <ele>514.4</ele>
        <time>2009-06-21T14:04:58Z</time>
      </trkpt>
      <trkpt lat="43.76199" lon="6.99113">
        <ele>510.1</ele>
        <time>2009-06-21T14:05:05Z</time>
      </trkpt>
      <trkpt lat="43.76212" lon="6.99096">
        <ele>508.2</ele>
        <time>2009-06-21T14:05:08Z</time>
      </trkpt>
      <trkpt lat="43.76224" lon="6.99068">
        <ele>503.9</ele>
        <time>2009-06-21T14:05:11Z</time>
      </trkpt>
      <trkpt lat="43.7623" lon="6.99039">
        <ele>500</ele>
        <time>2009-06-21T14:05:14Z</time>
      </trkpt>
      <trkpt lat="43.76226" lon="6.99005">
        <ele>496.2</ele>
        <time>2009-06-21T14:05:17Z</time>
      </trkpt>
      <trkpt lat="43.76217" lon="6.98973">
        <ele>493.3</ele>
        <time>2009-06-21T14:05:20Z</time>
      </trkpt>
      <trkpt lat="43.76202" lon="6.98946">
        <ele>490.9</ele>
        <time>2009-06-21T14:05:23Z</time>
      </trkpt>
      <trkpt lat="43.7619" lon="6.98918">
        <ele>487</ele>
        <time>2009-06-21T14:05:26Z</time>
      </trkpt>
      <trkpt lat="43.76184" lon="6.98887">
        <ele>485.6</ele>
        <time>2009-06-21T14:05:29Z</time>
      </trkpt>
      <trkpt lat="43.76189" lon="6.98855">
        <ele>483.2</ele>
        <time>2009-06-21T14:05:32Z</time>
      </trkpt>
      <trkpt lat="43.76201" lon="6.98823">
        <ele>479.8</ele>
        <time>2009-06-21T14:05:35Z</time>
      </trkpt>
      <trkpt lat="43.76222" lon="6.988">
        <ele>476.5</ele>
        <time>2009-06-21T14:05:38Z</time>
      </trkpt>
      <trkpt lat="43.76238" lon="6.98788">
        <ele>473.6</ele>
        <time>2009-06-21T14:05:40Z</time>
      </trkpt>
      <trkpt lat="43.76257" lon="6.98779">
        <ele>468.8</ele>
        <time>2009-06-21T14:05:46Z</time>
      </trkpt>
      <trkpt lat="43.76246" lon="6.98772">
        <ele>467.8</ele>
        <time>2009-06-21T14:06:10Z</time>
      </trkpt>
      <trkpt lat="43.76226" lon="6.98784">
        <ele>466.4</ele>
        <time>2009-06-21T14:06:15Z</time>
      </trkpt>
      <trkpt lat="43.76207" lon="6.98795">
        <ele>464.9</ele>
        <time>2009-06-21T14:06:19Z</time>
      </trkpt>
      <trkpt lat="43.76188" lon="6.98811">
        <ele>463</ele>
        <time>2009-06-21T14:06:23Z</time>
      </trkpt>
      <trkpt lat="43.76168" lon="6.98828">
        <ele>460.1</ele>
        <time>2009-06-21T14:06:27Z</time>
      </trkpt>
      <trkpt lat="43.76151" lon="6.9885">
        <ele>457.7</ele>
        <time>2009-06-21T14:06:31Z</time>
      </trkpt>
      <trkpt lat="43.7614" lon="6.98873">
        <ele>455.8</ele>
        <time>2009-06-21T14:06:34Z</time>
      </trkpt>
      <trkpt lat="43.7612" lon="6.98888">
        <ele>458.2</ele>
        <time>2009-06-21T14:06:38Z</time>
      </trkpt>
      <trkpt lat="43.76103" lon="6.98883">
        <ele>458.2</ele>
        <time>2009-06-21T14:06:41Z</time>
      </trkpt>
      <trkpt lat="43.76081" lon="6.98892">
        <ele>456.8</ele>
        <time>2009-06-21T14:06:45Z</time>
      </trkpt>
      <trkpt lat="43.7607" lon="6.98916">
        <ele>455.8</ele>
        <time>2009-06-21T14:06:49Z</time>
      </trkpt>
      <trkpt lat="43.76059" lon="6.98938">
        <ele>456.3</ele>
        <time>2009-06-21T14:06:54Z</time>
      </trkpt>
      <trkpt lat="43.76045" lon="6.98959">
        <ele>455.3</ele>
        <time>2009-06-21T14:07:00Z</time>
      </trkpt>
      <trkpt lat="43.7603" lon="6.98971">
        <ele>457.2</ele>
        <time>2009-06-21T14:07:06Z</time>
      </trkpt>
      <trkpt lat="43.76011" lon="6.98977">
        <ele>456.8</ele>
        <time>2009-06-21T14:07:12Z</time>
      </trkpt>
      <trkpt lat="43.75991" lon="6.98985">
        <ele>455.8</ele>
        <time>2009-06-21T14:07:19Z</time>
      </trkpt>
      <trkpt lat="43.75972" lon="6.98988">
        <ele>455.3</ele>
        <time>2009-06-21T14:07:25Z</time>
      </trkpt>
      <trkpt lat="43.75954" lon="6.98985">
        <ele>454.8</ele>
        <time>2009-06-21T14:07:31Z</time>
      </trkpt>
      <trkpt lat="43.75935" lon="6.9898">
        <ele>453.9</ele>
        <time>2009-06-21T14:07:37Z</time>
      </trkpt>
      <trkpt lat="43.75915" lon="6.98976">
        <ele>453.4</ele>
        <time>2009-06-21T14:07:43Z</time>
      </trkpt>
      <trkpt lat="43.75895" lon="6.98971">
        <ele>453.4</ele>
        <time>2009-06-21T14:07:49Z</time>
      </trkpt>
      <trkpt lat="43.75874" lon="6.98969">
        <ele>453.4</ele>
        <time>2009-06-21T14:07:55Z</time>
      </trkpt>
      <trkpt lat="43.75855" lon="6.98967">
        <ele>453.9</ele>
        <time>2009-06-21T14:08:01Z</time>
      </trkpt>
      <trkpt lat="43.75837" lon="6.98968">
        <ele>453.9</ele>
        <time>2009-06-21T14:08:07Z</time>
      </trkpt>
      <trkpt lat="43.75819" lon="6.98965">
        <ele>453.9</ele>
        <time>2009-06-21T14:08:13Z</time>
      </trkpt>
      <trkpt lat="43.758" lon="6.98957">
        <ele>453.9</ele>
        <time>2009-06-21T14:08:20Z</time>
      </trkpt>
      <trkpt lat="43.75781" lon="6.98949">
        <ele>453.9</ele>
        <time>2009-06-21T14:08:27Z</time>
      </trkpt>
      <trkpt lat="43.75761" lon="6.98944">
        <ele>454.8</ele>
        <time>2009-06-21T14:08:34Z</time>
      </trkpt>
      <trkpt lat="43.75741" lon="6.98936">
        <ele>455.8</ele>
        <time>2009-06-21T14:08:41Z</time>
      </trkpt>
      <trkpt lat="43.75724" lon="6.98931">
        <ele>457.2</ele>
        <time>2009-06-21T14:08:47Z</time>
      </trkpt>
      <trkpt lat="43.75706" lon="6.98928">
        <ele>458.7</ele>
        <time>2009-06-21T14:08:53Z</time>
      </trkpt>
      <trkpt lat="43.75688" lon="6.98928">
        <ele>460.6</ele>
        <time>2009-06-21T14:08:59Z</time>
      </trkpt>
      <trkpt lat="43.75672" lon="6.98922">
        <ele>462.1</ele>
        <time>2009-06-21T14:09:05Z</time>
      </trkpt>
      <trkpt lat="43.75653" lon="6.98913">
        <ele>464.5</ele>
        <time>2009-06-21T14:09:12Z</time>
      </trkpt>
      <trkpt lat="43.75634" lon="6.98906">
        <ele>466.9</ele>
        <time>2009-06-21T14:09:19Z</time>
      </trkpt>
      <trkpt lat="43.75616" lon="6.98908">
        <ele>469.3</ele>
        <time>2009-06-21T14:09:25Z</time>
      </trkpt>
      <trkpt lat="43.75599" lon="6.9892">
        <ele>483.2</ele>
        <time>2009-06-21T14:09:32Z</time>
      </trkpt>
      <trkpt lat="43.75579" lon="6.98923">
        <ele>489.4</ele>
        <time>2009-06-21T14:09:39Z</time>
      </trkpt>
      <trkpt lat="43.75559" lon="6.98921">
        <ele>492.8</ele>
        <time>2009-06-21T14:09:46Z</time>
      </trkpt>
      <trkpt lat="43.75538" lon="6.9892">
        <ele>495.7</ele>
        <time>2009-06-21T14:09:53Z</time>
      </trkpt>
      <trkpt lat="43.75518" lon="6.98919">
        <ele>500</ele>
        <time>2009-06-21T14:10:00Z</time>
      </trkpt>
      <trkpt lat="43.75499" lon="6.98926">
        <ele>503.4</ele>
        <time>2009-06-21T14:10:07Z</time>
      </trkpt>
      <trkpt lat="43.75481" lon="6.98932">
        <ele>504.8</ele>
        <time>2009-06-21T14:10:13Z</time>
      </trkpt>
      <trkpt lat="43.75463" lon="6.98935">
        <ele>505.3</ele>
        <time>2009-06-21T14:10:19Z</time>
      </trkpt>
      <trkpt lat="43.75443" lon="6.9894">
        <ele>505.8</ele>
        <time>2009-06-21T14:10:25Z</time>
      </trkpt>
      <trkpt lat="43.75423" lon="6.98942">
        <ele>503.4</ele>
        <time>2009-06-21T14:10:31Z</time>
      </trkpt>
      <trkpt lat="43.75406" lon="6.98943">
        <ele>508.2</ele>
        <time>2009-06-21T14:10:37Z</time>
      </trkpt>
      <trkpt lat="43.75387" lon="6.98944">
        <ele>507.2</ele>
        <time>2009-06-21T14:10:43Z</time>
      </trkpt>
      <trkpt lat="43.75369" lon="6.98952">
        <ele>509.2</ele>
        <time>2009-06-21T14:10:49Z</time>
      </trkpt>
      <trkpt lat="43.75352" lon="6.98966">
        <ele>509.6</ele>
        <time>2009-06-21T14:10:55Z</time>
      </trkpt>
      <trkpt lat="43.75332" lon="6.98977">
        <ele>509.6</ele>
        <time>2009-06-21T14:11:01Z</time>
      </trkpt>
      <trkpt lat="43.75312" lon="6.98977">
        <ele>509.6</ele>
        <time>2009-06-21T14:11:07Z</time>
      </trkpt>
      <trkpt lat="43.75295" lon="6.98984">
        <ele>510.6</ele>
        <time>2009-06-21T14:11:13Z</time>
      </trkpt>
      <trkpt lat="43.75276" lon="6.98996">
        <ele>511.6</ele>
        <time>2009-06-21T14:11:19Z</time>
      </trkpt>
      <trkpt lat="43.75258" lon="6.9901">
        <ele>512</ele>
        <time>2009-06-21T14:11:25Z</time>
      </trkpt>
      <trkpt lat="43.75242" lon="6.99022">
        <ele>513</ele>
        <time>2009-06-21T14:11:31Z</time>
      </trkpt>
      <trkpt lat="43.75223" lon="6.99033">
        <ele>513.5</ele>
        <time>2009-06-21T14:11:38Z</time>
      </trkpt>
      <trkpt lat="43.75205" lon="6.99041">
        <ele>515.9</ele>
        <time>2009-06-21T14:11:45Z</time>
      </trkpt>
      <trkpt lat="43.75185" lon="6.9904">
        <ele>517.3</ele>
        <time>2009-06-21T14:11:52Z</time>
      </trkpt>
      <trkpt lat="43.75164" lon="6.9904">
        <ele>519.7</ele>
        <time>2009-06-21T14:11:59Z</time>
      </trkpt>
      <trkpt lat="43.75143" lon="6.99037">
        <ele>520.7</ele>
        <time>2009-06-21T14:12:06Z</time>
      </trkpt>
      <trkpt lat="43.75126" lon="6.99044">
        <ele>522.1</ele>
        <time>2009-06-21T14:12:12Z</time>
      </trkpt>
      <trkpt lat="43.75111" lon="6.9906">
        <ele>522.6</ele>
        <time>2009-06-21T14:12:18Z</time>
      </trkpt>
      <trkpt lat="43.75097" lon="6.99076">
        <ele>523.1</ele>
        <time>2009-06-21T14:12:24Z</time>
      </trkpt>
      <trkpt lat="43.75081" lon="6.99093">
        <ele>523.1</ele>
        <time>2009-06-21T14:12:31Z</time>
      </trkpt>
      <trkpt lat="43.75064" lon="6.9911">
        <ele>523.6</ele>
        <time>2009-06-21T14:12:38Z</time>
      </trkpt>
      <trkpt lat="43.75047" lon="6.99115">
        <ele>527.9</ele>
        <time>2009-06-21T14:12:45Z</time>
      </trkpt>
      <trkpt lat="43.75027" lon="6.99112">
        <ele>529.3</ele>
        <time>2009-06-21T14:12:52Z</time>
      </trkpt>
      <trkpt lat="43.7501" lon="6.99109">
        <ele>529.8</ele>
        <time>2009-06-21T14:12:58Z</time>
      </trkpt>
      <trkpt lat="43.74989" lon="6.99102">
        <ele>529.8</ele>
        <time>2009-06-21T14:13:05Z</time>
      </trkpt>
      <trkpt lat="43.74971" lon="6.99094">
        <ele>529.3</ele>
        <time>2009-06-21T14:13:11Z</time>
      </trkpt>
      <trkpt lat="43.74954" lon="6.99083">
        <ele>529.8</ele>
        <time>2009-06-21T14:13:17Z</time>
      </trkpt>
      <trkpt lat="43.74938" lon="6.99065">
        <ele>529.8</ele>
        <time>2009-06-21T14:13:24Z</time>
      </trkpt>
      <trkpt lat="43.74923" lon="6.99046">
        <ele>530.3</ele>
        <time>2009-06-21T14:13:31Z</time>
      </trkpt>
      <trkpt lat="43.74904" lon="6.99037">
        <ele>532.2</ele>
        <time>2009-06-21T14:13:38Z</time>
      </trkpt>
      <trkpt lat="43.74883" lon="6.99033">
        <ele>533.2</ele>
        <time>2009-06-21T14:13:45Z</time>
      </trkpt>
      <trkpt lat="43.74864" lon="6.99041">
        <ele>534.1</ele>
        <time>2009-06-21T14:13:52Z</time>
      </trkpt>
      <trkpt lat="43.74845" lon="6.9905">
        <ele>533.7</ele>
        <time>2009-06-21T14:13:59Z</time>
      </trkpt>
      <trkpt lat="43.74828" lon="6.9906">
        <ele>534.1</ele>
        <time>2009-06-21T14:14:05Z</time>
      </trkpt>
      <trkpt lat="43.74815" lon="6.99076">
        <ele>535.1</ele>
        <time>2009-06-21T14:14:11Z</time>
      </trkpt>
      <trkpt lat="43.74801" lon="6.99094">
        <ele>536.6</ele>
        <time>2009-06-21T14:14:17Z</time>
      </trkpt>
      <trkpt lat="43.74787" lon="6.99111">
        <ele>537.5</ele>
        <time>2009-06-21T14:14:23Z</time>
      </trkpt>
      <trkpt lat="43.7477" lon="6.99128">
        <ele>538</ele>
        <time>2009-06-21T14:14:30Z</time>
      </trkpt>
      <trkpt lat="43.74753" lon="6.99144">
        <ele>537</ele>
        <time>2009-06-21T14:14:37Z</time>
      </trkpt>
      <trkpt lat="43.74735" lon="6.99158">
        <ele>539.9</ele>
        <time>2009-06-21T14:14:44Z</time>
      </trkpt>
      <trkpt lat="43.74719" lon="6.99166">
        <ele>541.4</ele>
        <time>2009-06-21T14:14:51Z</time>
      </trkpt>
      <trkpt lat="43.747" lon="6.9917">
        <ele>542.8</ele>
        <time>2009-06-21T14:14:58Z</time>
      </trkpt>
      <trkpt lat="43.7468" lon="6.99172">
        <ele>546.2</ele>
        <time>2009-06-21T14:15:05Z</time>
      </trkpt>
      <trkpt lat="43.7466" lon="6.99171">
        <ele>547.1</ele>
        <time>2009-06-21T14:15:12Z</time>
      </trkpt>
      <trkpt lat="43.74641" lon="6.99166">
        <ele>548.1</ele>
        <time>2009-06-21T14:15:19Z</time>
      </trkpt>
      <trkpt lat="43.74624" lon="6.99158">
        <ele>551.5</ele>
        <time>2009-06-21T14:15:26Z</time>
      </trkpt>
      <trkpt lat="43.74606" lon="6.99147">
        <ele>552.9</ele>
        <time>2009-06-21T14:15:33Z</time>
      </trkpt>
      <trkpt lat="43.7459" lon="6.99136">
        <ele>554.8</ele>
        <time>2009-06-21T14:15:39Z</time>
      </trkpt>
      <trkpt lat="43.74574" lon="6.99121">
        <ele>558.2</ele>
        <time>2009-06-21T14:15:46Z</time>
      </trkpt>
      <trkpt lat="43.74559" lon="6.99109">
        <ele>562</ele>
        <time>2009-06-21T14:15:53Z</time>
      </trkpt>
      <trkpt lat="43.74539" lon="6.99113">
        <ele>561.5</ele>
        <time>2009-06-21T14:16:00Z</time>
      </trkpt>
      <trkpt lat="43.74525" lon="6.9913">
        <ele>562</ele>
        <time>2009-06-21T14:16:06Z</time>
      </trkpt>
      <trkpt lat="43.74515" lon="6.99154">
        <ele>562</ele>
        <time>2009-06-21T14:16:12Z</time>
      </trkpt>
      <trkpt lat="43.74509" lon="6.99178">
        <ele>563</ele>
        <time>2009-06-21T14:16:18Z</time>
      </trkpt>
      <trkpt lat="43.74504" lon="6.99203">
        <ele>565.4</ele>
        <time>2009-06-21T14:16:24Z</time>
      </trkpt>
      <trkpt lat="43.74491" lon="6.99226">
        <ele>565.9</ele>
        <time>2009-06-21T14:16:31Z</time>
      </trkpt>
      <trkpt lat="43.74477" lon="6.99241">
        <ele>564.9</ele>
        <time>2009-06-21T14:16:37Z</time>
      </trkpt>
      <trkpt lat="43.74458" lon="6.9925">
        <ele>567.3</ele>
        <time>2009-06-21T14:16:44Z</time>
      </trkpt>
      <trkpt lat="43.7444" lon="6.9926">
        <ele>566.8</ele>
        <time>2009-06-21T14:16:50Z</time>
      </trkpt>
      <trkpt lat="43.7442" lon="6.9927">
        <ele>566.4</ele>
        <time>2009-06-21T14:16:57Z</time>
      </trkpt>
      <trkpt lat="43.74401" lon="6.99281">
        <ele>566.8</ele>
        <time>2009-06-21T14:17:04Z</time>
      </trkpt>
      <trkpt lat="43.74381" lon="6.99294">
        <ele>565.9</ele>
        <time>2009-06-21T14:17:11Z</time>
      </trkpt>
      <trkpt lat="43.74365" lon="6.99311">
        <ele>568.3</ele>
        <time>2009-06-21T14:17:18Z</time>
      </trkpt>
      <trkpt lat="43.74346" lon="6.99324">
        <ele>567.8</ele>
        <time>2009-06-21T14:17:26Z</time>
      </trkpt>
      <trkpt lat="43.74327" lon="6.99333">
        <ele>568.8</ele>
        <time>2009-06-21T14:17:34Z</time>
      </trkpt>
      <trkpt lat="43.74309" lon="6.99341">
        <ele>570.2</ele>
        <time>2009-06-21T14:17:41Z</time>
      </trkpt>
      <trkpt lat="43.7429" lon="6.99347">
        <ele>571.2</ele>
        <time>2009-06-21T14:17:49Z</time>
      </trkpt>
      <trkpt lat="43.74269" lon="6.99354">
        <ele>572.1</ele>
        <time>2009-06-21T14:17:57Z</time>
      </trkpt>
      <trkpt lat="43.7425" lon="6.99362">
        <ele>572.6</ele>
        <time>2009-06-21T14:18:04Z</time>
      </trkpt>
      <trkpt lat="43.7423" lon="6.99371">
        <ele>573.6</ele>
        <time>2009-06-21T14:18:11Z</time>
      </trkpt>
      <trkpt lat="43.74213" lon="6.99379">
        <ele>574</ele>
        <time>2009-06-21T14:18:17Z</time>
      </trkpt>
      <trkpt lat="43.74194" lon="6.99388">
        <ele>575</ele>
        <time>2009-06-21T14:18:24Z</time>
      </trkpt>
      <trkpt lat="43.74175" lon="6.99397">
        <ele>576.4</ele>
        <time>2009-06-21T14:18:31Z</time>
      </trkpt>
      <trkpt lat="43.74158" lon="6.99405">
        <ele>577.9</ele>
        <time>2009-06-21T14:18:37Z</time>
      </trkpt>
      <trkpt lat="43.7414" lon="6.99412">
        <ele>579.3</ele>
        <time>2009-06-21T14:18:44Z</time>
      </trkpt>
      <trkpt lat="43.74123" lon="6.99419">
        <ele>581.3</ele>
        <time>2009-06-21T14:18:51Z</time>
      </trkpt>
      <trkpt lat="43.74105" lon="6.99427">
        <ele>583.7</ele>
        <time>2009-06-21T14:18:58Z</time>
      </trkpt>
      <trkpt lat="43.74086" lon="6.99436">
        <ele>585.1</ele>
        <time>2009-06-21T14:19:06Z</time>
      </trkpt>
      <trkpt lat="43.74068" lon="6.99447">
        <ele>587.5</ele>
        <time>2009-06-21T14:19:14Z</time>
      </trkpt>
      <trkpt lat="43.7405" lon="6.9946">
        <ele>589.4</ele>
        <time>2009-06-21T14:19:22Z</time>
      </trkpt>
      <trkpt lat="43.74032" lon="6.99472">
        <ele>591.3</ele>
        <time>2009-06-21T14:19:30Z</time>
      </trkpt>
      <trkpt lat="43.74014" lon="6.99483">
        <ele>591.8</ele>
        <time>2009-06-21T14:19:38Z</time>
      </trkpt>
      <trkpt lat="43.73996" lon="6.99491">
        <ele>590.4</ele>
        <time>2009-06-21T14:19:45Z</time>
      </trkpt>
      <trkpt lat="43.73978" lon="6.9949">
        <ele>592.3</ele>
        <time>2009-06-21T14:19:52Z</time>
      </trkpt>
      <trkpt lat="43.7396" lon="6.99488">
        <ele>598.1</ele>
        <time>2009-06-21T14:20:00Z</time>
      </trkpt>
      <trkpt lat="43.73945" lon="6.99503">
        <ele>597.6</ele>
        <time>2009-06-21T14:20:08Z</time>
      </trkpt>
      <trkpt lat="43.73951" lon="6.99529">
        <ele>600.5</ele>
        <time>2009-06-21T14:20:15Z</time>
      </trkpt>
      <trkpt lat="43.73964" lon="6.99553">
        <ele>601.9</ele>
        <time>2009-06-21T14:20:22Z</time>
      </trkpt>
      <trkpt lat="43.73969" lon="6.99579">
        <ele>602.4</ele>
        <time>2009-06-21T14:20:28Z</time>
      </trkpt>
      <trkpt lat="43.73953" lon="6.9959">
        <ele>602.4</ele>
        <time>2009-06-21T14:20:35Z</time>
      </trkpt>
      <trkpt lat="43.73937" lon="6.99571">
        <ele>604.3</ele>
        <time>2009-06-21T14:20:41Z</time>
      </trkpt>
      <trkpt lat="43.73921" lon="6.99558">
        <ele>606.2</ele>
        <time>2009-06-21T14:20:47Z</time>
      </trkpt>
      <trkpt lat="43.73908" lon="6.99537">
        <ele>607.7</ele>
        <time>2009-06-21T14:20:53Z</time>
      </trkpt>
      <trkpt lat="43.73902" lon="6.99511">
        <ele>607.7</ele>
        <time>2009-06-21T14:20:59Z</time>
      </trkpt>
      <trkpt lat="43.73905" lon="6.99488">
        <ele>608.7</ele>
        <time>2009-06-21T14:21:05Z</time>
      </trkpt>
      <trkpt lat="43.73919" lon="6.99476">
        <ele>608.2</ele>
        <time>2009-06-21T14:21:11Z</time>
      </trkpt>
      <trkpt lat="43.73936" lon="6.99471">
        <ele>608.7</ele>
        <time>2009-06-21T14:21:17Z</time>
      </trkpt>
      <trkpt lat="43.73954" lon="6.99466">
        <ele>609.1</ele>
        <time>2009-06-21T14:21:24Z</time>
      </trkpt>
      <trkpt lat="43.73974" lon="6.99467">
        <ele>610.6</ele>
        <time>2009-06-21T14:21:31Z</time>
      </trkpt>
      <trkpt lat="43.73994" lon="6.99465">
        <ele>611.5</ele>
        <time>2009-06-21T14:21:38Z</time>
      </trkpt>
      <trkpt lat="43.74011" lon="6.99455">
        <ele>613.9</ele>
        <time>2009-06-21T14:22:51Z</time>
      </trkpt>
      <trkpt lat="43.74028" lon="6.99443">
        <ele>615.9</ele>
        <time>2009-06-21T14:22:58Z</time>
      </trkpt>
      <trkpt lat="43.74044" lon="6.99425">
        <ele>616.8</ele>
        <time>2009-06-21T14:23:06Z</time>
      </trkpt>
      <trkpt lat="43.74054" lon="6.99402">
        <ele>615.4</ele>
        <time>2009-06-21T14:23:13Z</time>
      </trkpt>
      <trkpt lat="43.74063" lon="6.99379">
        <ele>614.9</ele>
        <time>2009-06-21T14:23:20Z</time>
      </trkpt>
      <trkpt lat="43.74067" lon="6.99353">
        <ele>613.5</ele>
        <time>2009-06-21T14:23:28Z</time>
      </trkpt>
      <trkpt lat="43.74051" lon="6.99348">
        <ele>613.5</ele>
        <time>2009-06-21T14:23:35Z</time>
      </trkpt>
      <trkpt lat="43.74041" lon="6.99371">
        <ele>613</ele>
        <time>2009-06-21T14:23:42Z</time>
      </trkpt>
      <trkpt lat="43.74032" lon="6.99395">
        <ele>613</ele>
        <time>2009-06-21T14:23:49Z</time>
      </trkpt>
      <trkpt lat="43.74019" lon="6.99412">
        <ele>615.4</ele>
        <time>2009-06-21T14:23:56Z</time>
      </trkpt>
      <trkpt lat="43.74002" lon="6.99419">
        <ele>617.3</ele>
        <time>2009-06-21T14:24:03Z</time>
      </trkpt>
      <trkpt lat="43.73985" lon="6.99423">
        <ele>617.8</ele>
        <time>2009-06-21T14:24:10Z</time>
      </trkpt>
      <trkpt lat="43.73966" lon="6.99424">
        <ele>619.2</ele>
        <time>2009-06-21T14:24:17Z</time>
      </trkpt>
      <trkpt lat="43.73948" lon="6.99425">
        <ele>620.2</ele>
        <time>2009-06-21T14:24:24Z</time>
      </trkpt>
      <trkpt lat="43.73929" lon="6.99427">
        <ele>622.6</ele>
        <time>2009-06-21T14:24:31Z</time>
      </trkpt>
      <trkpt lat="43.73912" lon="6.99428">
        <ele>624</ele>
        <time>2009-06-21T14:24:38Z</time>
      </trkpt>
      <trkpt lat="43.73892" lon="6.99428">
        <ele>625</ele>
        <time>2009-06-21T14:24:46Z</time>
      </trkpt>
      <trkpt lat="43.73871" lon="6.9943">
        <ele>625</ele>
        <time>2009-06-21T14:24:54Z</time>
      </trkpt>
      <trkpt lat="43.73852" lon="6.99438">
        <ele>627.9</ele>
        <time>2009-06-21T14:25:02Z</time>
      </trkpt>
      <trkpt lat="43.73834" lon="6.9945">
        <ele>631.2</ele>
        <time>2009-06-21T14:25:10Z</time>
      </trkpt>
      <trkpt lat="43.73815" lon="6.99452">
        <ele>634.6</ele>
        <time>2009-06-21T14:25:18Z</time>
      </trkpt>
      <trkpt lat="43.73796" lon="6.99447">
        <ele>639.9</ele>
        <time>2009-06-21T14:25:26Z</time>
      </trkpt>
      <trkpt lat="43.73776" lon="6.99445">
        <ele>640.9</ele>
        <time>2009-06-21T14:25:34Z</time>
      </trkpt>
      <trkpt lat="43.73756" lon="6.99453">
        <ele>642.8</ele>
        <time>2009-06-21T14:25:42Z</time>
      </trkpt>
      <trkpt lat="43.73741" lon="6.99466">
        <ele>644.7</ele>
        <time>2009-06-21T14:25:49Z</time>
      </trkpt>
      <trkpt lat="43.73724" lon="6.99479">
        <ele>646.1</ele>
        <time>2009-06-21T14:25:57Z</time>
      </trkpt>
      <trkpt lat="43.73709" lon="6.99492">
        <ele>646.1</ele>
        <time>2009-06-21T14:26:04Z</time>
      </trkpt>
      <trkpt lat="43.73691" lon="6.99506">
        <ele>647.1</ele>
        <time>2009-06-21T14:26:11Z</time>
      </trkpt>
      <trkpt lat="43.73674" lon="6.9952">
        <ele>648.1</ele>
        <time>2009-06-21T14:26:18Z</time>
      </trkpt>
      <trkpt lat="43.73658" lon="6.99518">
        <ele>648.5</ele>
        <time>2009-06-21T14:26:25Z</time>
      </trkpt>
      <trkpt lat="43.73661" lon="6.99495">
        <ele>649.5</ele>
        <time>2009-06-21T14:26:33Z</time>
      </trkpt>
      <trkpt lat="43.73673" lon="6.99475">
        <ele>650.5</ele>
        <time>2009-06-21T14:26:40Z</time>
      </trkpt>
      <trkpt lat="43.73685" lon="6.99455">
        <ele>651.9</ele>
        <time>2009-06-21T14:26:47Z</time>
      </trkpt>
      <trkpt lat="43.73698" lon="6.99437">
        <ele>653.4</ele>
        <time>2009-06-21T14:26:54Z</time>
      </trkpt>
      <trkpt lat="43.73716" lon="6.99427">
        <ele>656.2</ele>
        <time>2009-06-21T14:27:02Z</time>
      </trkpt>
      <trkpt lat="43.73735" lon="6.99419">
        <ele>655.8</ele>
        <time>2009-06-21T14:27:10Z</time>
      </trkpt>
      <trkpt lat="43.73755" lon="6.99411">
        <ele>657.2</ele>
        <time>2009-06-21T14:27:18Z</time>
      </trkpt>
      <trkpt lat="43.73776" lon="6.99411">
        <ele>658.2</ele>
        <time>2009-06-21T14:27:25Z</time>
      </trkpt>
      <trkpt lat="43.73797" lon="6.99413">
        <ele>661</ele>
        <time>2009-06-21T14:27:32Z</time>
      </trkpt>
      <trkpt lat="43.73816" lon="6.99413">
        <ele>661.5</ele>
        <time>2009-06-21T14:27:39Z</time>
      </trkpt>
      <trkpt lat="43.73834" lon="6.99406">
        <ele>661.5</ele>
        <time>2009-06-21T14:27:46Z</time>
      </trkpt>
      <trkpt lat="43.73852" lon="6.99397">
        <ele>661.5</ele>
        <time>2009-06-21T14:27:53Z</time>
      </trkpt>
      <trkpt lat="43.73872" lon="6.99387">
        <ele>661.5</ele>
        <time>2009-06-21T14:28:00Z</time>
      </trkpt>
      <trkpt lat="43.73889" lon="6.99379">
        <ele>662</ele>
        <time>2009-06-21T14:28:06Z</time>
      </trkpt>
      <trkpt lat="43.73907" lon="6.99366">
        <ele>663</ele>
        <time>2009-06-21T14:28:13Z</time>
      </trkpt>
      <trkpt lat="43.73924" lon="6.99354">
        <ele>665.4</ele>
        <time>2009-06-21T14:28:20Z</time>
      </trkpt>
      <trkpt lat="43.73942" lon="6.99339">
        <ele>666.8</ele>
        <time>2009-06-21T14:28:28Z</time>
      </trkpt>
      <trkpt lat="43.73959" lon="6.99325">
        <ele>668.7</ele>
        <time>2009-06-21T14:28:36Z</time>
      </trkpt>
      <trkpt lat="43.73975" lon="6.99309">
        <ele>669.2</ele>
        <time>2009-06-21T14:28:44Z</time>
      </trkpt>
      <trkpt lat="43.73975" lon="6.99282">
        <ele>666.8</ele>
        <time>2009-06-21T14:28:52Z</time>
      </trkpt>
      <trkpt lat="43.73959" lon="6.99278">
        <ele>668.3</ele>
        <time>2009-06-21T14:28:59Z</time>
      </trkpt>
      <trkpt lat="43.73946" lon="6.99298">
        <ele>666.8</ele>
        <time>2009-06-21T14:29:06Z</time>
      </trkpt>
      <trkpt lat="43.73932" lon="6.99314">
        <ele>666.3</ele>
        <time>2009-06-21T14:29:13Z</time>
      </trkpt>
      <trkpt lat="43.73915" lon="6.99325">
        <ele>669.7</ele>
        <time>2009-06-21T14:29:20Z</time>
      </trkpt>
      <trkpt lat="43.73897" lon="6.99329">
        <ele>670.7</ele>
        <time>2009-06-21T14:29:27Z</time>
      </trkpt>
      <trkpt lat="43.73879" lon="6.99335">
        <ele>672.6</ele>
        <time>2009-06-21T14:29:34Z</time>
      </trkpt>
      <trkpt lat="43.7386" lon="6.99344">
        <ele>675.5</ele>
        <time>2009-06-21T14:29:42Z</time>
      </trkpt>
      <trkpt lat="43.73843" lon="6.99354">
        <ele>677.9</ele>
        <time>2009-06-21T14:29:49Z</time>
      </trkpt>
      <trkpt lat="43.73825" lon="6.99356">
        <ele>679.3</ele>
        <time>2009-06-21T14:29:56Z</time>
      </trkpt>
      <trkpt lat="43.73806" lon="6.99355">
        <ele>679.8</ele>
        <time>2009-06-21T14:30:03Z</time>
      </trkpt>
      <trkpt lat="43.73787" lon="6.99355">
        <ele>682.2</ele>
        <time>2009-06-21T14:30:10Z</time>
      </trkpt>
      <trkpt lat="43.73769" lon="6.99354">
        <ele>684.1</ele>
        <time>2009-06-21T14:30:17Z</time>
      </trkpt>
      <trkpt lat="43.7375" lon="6.99351">
        <ele>683.6</ele>
        <time>2009-06-21T14:30:24Z</time>
      </trkpt>
      <trkpt lat="43.73732" lon="6.99349">
        <ele>684.6</ele>
        <time>2009-06-21T14:30:31Z</time>
      </trkpt>
      <trkpt lat="43.73713" lon="6.99345">
        <ele>686</ele>
        <time>2009-06-21T14:30:39Z</time>
      </trkpt>
      <trkpt lat="43.73694" lon="6.99342">
        <ele>686.5</ele>
        <time>2009-06-21T14:30:47Z</time>
      </trkpt>
      <trkpt lat="43.73675" lon="6.9934">
        <ele>687</ele>
        <time>2009-06-21T14:30:55Z</time>
      </trkpt>
      <trkpt lat="43.73655" lon="6.9934">
        <ele>688.4</ele>
        <time>2009-06-21T14:31:03Z</time>
      </trkpt>
      <trkpt lat="43.73636" lon="6.99341">
        <ele>689.9</ele>
        <time>2009-06-21T14:31:10Z</time>
      </trkpt>
      <trkpt lat="43.73617" lon="6.99343">
        <ele>692.8</ele>
        <time>2009-06-21T14:31:17Z</time>
      </trkpt>
      <trkpt lat="43.73599" lon="6.9934">
        <ele>693.7</ele>
        <time>2009-06-21T14:31:24Z</time>
      </trkpt>
      <trkpt lat="43.7358" lon="6.99336">
        <ele>695.2</ele>
        <time>2009-06-21T14:31:31Z</time>
      </trkpt>
      <trkpt lat="43.73563" lon="6.99331">
        <ele>698.5</ele>
        <time>2009-06-21T14:31:38Z</time>
      </trkpt>
      <trkpt lat="43.73546" lon="6.9933">
        <ele>700.5</ele>
        <time>2009-06-21T14:31:45Z</time>
      </trkpt>
      <trkpt lat="43.73525" lon="6.99329">
        <ele>702.9</ele>
        <time>2009-06-21T14:31:53Z</time>
      </trkpt>
      <trkpt lat="43.73505" lon="6.99325">
        <ele>702.9</ele>
        <time>2009-06-21T14:32:01Z</time>
      </trkpt>
      <trkpt lat="43.73485" lon="6.99322">
        <ele>701.9</ele>
        <time>2009-06-21T14:32:09Z</time>
      </trkpt>
      <trkpt lat="43.73466" lon="6.99325">
        <ele>700.5</ele>
        <time>2009-06-21T14:32:17Z</time>
      </trkpt>
      <trkpt lat="43.73446" lon="6.99331">
        <ele>702.4</ele>
        <time>2009-06-21T14:32:24Z</time>
      </trkpt>
      <trkpt lat="43.73427" lon="6.99335">
        <ele>704.8</ele>
        <time>2009-06-21T14:32:31Z</time>
      </trkpt>
      <trkpt lat="43.73406" lon="6.99336">
        <ele>704.8</ele>
        <time>2009-06-21T14:32:38Z</time>
      </trkpt>
      <trkpt lat="43.73387" lon="6.99331">
        <ele>705.3</ele>
        <time>2009-06-21T14:32:44Z</time>
      </trkpt>
      <trkpt lat="43.7337" lon="6.99321">
        <ele>705.7</ele>
        <time>2009-06-21T14:32:50Z</time>
      </trkpt>
      <trkpt lat="43.73358" lon="6.99302">
        <ele>706.2</ele>
        <time>2009-06-21T14:32:56Z</time>
      </trkpt>
      <trkpt lat="43.73353" lon="6.99277">
        <ele>708.1</ele>
        <time>2009-06-21T14:33:02Z</time>
      </trkpt>
      <trkpt lat="43.73352" lon="6.99253">
        <ele>709.1</ele>
        <time>2009-06-21T14:33:08Z</time>
      </trkpt>
      <trkpt lat="43.73354" lon="6.99224">
        <ele>709.6</ele>
        <time>2009-06-21T14:33:15Z</time>
      </trkpt>
      <trkpt lat="43.73354" lon="6.99199">
        <ele>709.6</ele>
        <time>2009-06-21T14:33:21Z</time>
      </trkpt>
      <trkpt lat="43.73348" lon="6.99172">
        <ele>710.6</ele>
        <time>2009-06-21T14:33:27Z</time>
      </trkpt>
      <trkpt lat="43.73339" lon="6.99148">
        <ele>710.1</ele>
        <time>2009-06-21T14:33:33Z</time>
      </trkpt>
      <trkpt lat="43.73326" lon="6.99124">
        <ele>709.1</ele>
        <time>2009-06-21T14:33:39Z</time>
      </trkpt>
      <trkpt lat="43.73315" lon="6.991">
        <ele>709.6</ele>
        <time>2009-06-21T14:33:45Z</time>
      </trkpt>
      <trkpt lat="43.73307" lon="6.99076">
        <ele>709.1</ele>
        <time>2009-06-21T14:33:51Z</time>
      </trkpt>
      <trkpt lat="43.73299" lon="6.99053">
        <ele>709.1</ele>
        <time>2009-06-21T14:33:57Z</time>
      </trkpt>
      <trkpt lat="43.73288" lon="6.99034">
        <ele>709.1</ele>
        <time>2009-06-21T14:34:03Z</time>
      </trkpt>
      <trkpt lat="43.73272" lon="6.99018">
        <ele>711.5</ele>
        <time>2009-06-21T14:34:09Z</time>
      </trkpt>
      <trkpt lat="43.73261" lon="6.98998">
        <ele>710.6</ele>
        <time>2009-06-21T14:34:15Z</time>
      </trkpt>
      <trkpt lat="43.73251" lon="6.98974">
        <ele>710.6</ele>
        <time>2009-06-21T14:34:22Z</time>
      </trkpt>
      <trkpt lat="43.73242" lon="6.9895">
        <ele>709.6</ele>
        <time>2009-06-21T14:34:29Z</time>
      </trkpt>
      <trkpt lat="43.73232" lon="6.98927">
        <ele>709.1</ele>
        <time>2009-06-21T14:34:35Z</time>
      </trkpt>
      <trkpt lat="43.73222" lon="6.98902">
        <ele>709.1</ele>
        <time>2009-06-21T14:34:42Z</time>
      </trkpt>
      <trkpt lat="43.73207" lon="6.98885">
        <ele>712.5</ele>
        <time>2009-06-21T14:34:48Z</time>
      </trkpt>
      <trkpt lat="43.73193" lon="6.98869">
        <ele>714.4</ele>
        <time>2009-06-21T14:34:54Z</time>
      </trkpt>
      <trkpt lat="43.73175" lon="6.98853">
        <ele>717.3</ele>
        <time>2009-06-21T14:35:00Z</time>
      </trkpt>
      <trkpt lat="43.73159" lon="6.98839">
        <ele>719.2</ele>
        <time>2009-06-21T14:35:06Z</time>
      </trkpt>
      <trkpt lat="43.7314" lon="6.98826">
        <ele>721.1</ele>
        <time>2009-06-21T14:35:12Z</time>
      </trkpt>
      <trkpt lat="43.73119" lon="6.98816">
        <ele>722.1</ele>
        <time>2009-06-21T14:35:18Z</time>
      </trkpt>
      <trkpt lat="43.731" lon="6.98809">
        <ele>725.9</ele>
        <time>2009-06-21T14:35:24Z</time>
      </trkpt>
      <trkpt lat="43.7308" lon="6.98802">
        <ele>729.8</ele>
        <time>2009-06-21T14:35:30Z</time>
      </trkpt>
      <trkpt lat="43.73058" lon="6.98795">
        <ele>728.3</ele>
        <time>2009-06-21T14:35:36Z</time>
      </trkpt>
      <trkpt lat="43.73037" lon="6.98792">
        <ele>728.3</ele>
        <time>2009-06-21T14:35:42Z</time>
      </trkpt>
      <trkpt lat="43.73019" lon="6.98792">
        <ele>727.9</ele>
        <time>2009-06-21T14:35:47Z</time>
      </trkpt>
      <trkpt lat="43.73" lon="6.98792">
        <ele>727.4</ele>
        <time>2009-06-21T14:35:52Z</time>
      </trkpt>
      <trkpt lat="43.72982" lon="6.9879">
        <ele>727.9</ele>
        <time>2009-06-21T14:35:57Z</time>
      </trkpt>
      <trkpt lat="43.72963" lon="6.98785">
        <ele>729.3</ele>
        <time>2009-06-21T14:36:02Z</time>
      </trkpt>
      <trkpt lat="43.72945" lon="6.98778">
        <ele>729.8</ele>
        <time>2009-06-21T14:36:07Z</time>
      </trkpt>
      <trkpt lat="43.72927" lon="6.98771">
        <ele>730.3</ele>
        <time>2009-06-21T14:36:12Z</time>
      </trkpt>
      <trkpt lat="43.72909" lon="6.98767">
        <ele>730.3</ele>
        <time>2009-06-21T14:36:17Z</time>
      </trkpt>
      <trkpt lat="43.7289" lon="6.98766">
        <ele>731.7</ele>
        <time>2009-06-21T14:36:22Z</time>
      </trkpt>
      <trkpt lat="43.72871" lon="6.98767">
        <ele>731.2</ele>
        <time>2009-06-21T14:36:27Z</time>
      </trkpt>
      <trkpt lat="43.72852" lon="6.98764">
        <ele>732.7</ele>
        <time>2009-06-21T14:36:32Z</time>
      </trkpt>
      <trkpt lat="43.72834" lon="6.98756">
        <ele>733.1</ele>
        <time>2009-06-21T14:36:37Z</time>
      </trkpt>
      <trkpt lat="43.72817" lon="6.98742">
        <ele>732.2</ele>
        <time>2009-06-21T14:36:42Z</time>
      </trkpt>
      <trkpt lat="43.72799" lon="6.9873">
        <ele>732.2</ele>
        <time>2009-06-21T14:36:47Z</time>
      </trkpt>
      <trkpt lat="43.72778" lon="6.9872">
        <ele>733.6</ele>
        <time>2009-06-21T14:36:52Z</time>
      </trkpt>
      <trkpt lat="43.72759" lon="6.98711">
        <ele>733.6</ele>
        <time>2009-06-21T14:36:57Z</time>
      </trkpt>
      <trkpt lat="43.72742" lon="6.98701">
        <ele>734.6</ele>
        <time>2009-06-21T14:37:02Z</time>
      </trkpt>
      <trkpt lat="43.72726" lon="6.9869">
        <ele>736.5</ele>
        <time>2009-06-21T14:37:07Z</time>
      </trkpt>
      <trkpt lat="43.72713" lon="6.98672">
        <ele>735.5</ele>
        <time>2009-06-21T14:37:12Z</time>
      </trkpt>
      <trkpt lat="43.72702" lon="6.98649">
        <ele>736</ele>
        <time>2009-06-21T14:37:18Z</time>
      </trkpt>
      <trkpt lat="43.7269" lon="6.98622">
        <ele>735.5</ele>
        <time>2009-06-21T14:37:24Z</time>
      </trkpt>
      <trkpt lat="43.72677" lon="6.986">
        <ele>735.5</ele>
        <time>2009-06-21T14:37:29Z</time>
      </trkpt>
      <trkpt lat="43.7266" lon="6.98588">
        <ele>738.9</ele>
        <time>2009-06-21T14:37:33Z</time>
      </trkpt>
      <trkpt lat="43.72641" lon="6.98573">
        <ele>740.8</ele>
        <time>2009-06-21T14:37:37Z</time>
      </trkpt>
      <trkpt lat="43.72623" lon="6.98559">
        <ele>740.8</ele>
        <time>2009-06-21T14:37:41Z</time>
      </trkpt>
      <trkpt lat="43.72607" lon="6.98537">
        <ele>740.4</ele>
        <time>2009-06-21T14:37:45Z</time>
      </trkpt>
      <trkpt lat="43.72599" lon="6.98514">
        <ele>740.4</ele>
        <time>2009-06-21T14:37:48Z</time>
      </trkpt>
      <trkpt lat="43.72593" lon="6.98482">
        <ele>740.8</ele>
        <time>2009-06-21T14:37:52Z</time>
      </trkpt>
      <trkpt lat="43.7259" lon="6.98456">
        <ele>740.4</ele>
        <time>2009-06-21T14:37:55Z</time>
      </trkpt>
      <trkpt lat="43.72586" lon="6.98431">
        <ele>740.4</ele>
        <time>2009-06-21T14:37:58Z</time>
      </trkpt>
      <trkpt lat="43.72583" lon="6.98406">
        <ele>739.9</ele>
        <time>2009-06-21T14:38:01Z</time>
      </trkpt>
      <trkpt lat="43.72578" lon="6.98373">
        <ele>739.4</ele>
        <time>2009-06-21T14:38:05Z</time>
      </trkpt>
      <trkpt lat="43.72569" lon="6.98342">
        <ele>737.5</ele>
        <time>2009-06-21T14:38:09Z</time>
      </trkpt>
      <trkpt lat="43.72555" lon="6.98315">
        <ele>737</ele>
        <time>2009-06-21T14:38:13Z</time>
      </trkpt>
      <trkpt lat="43.7254" lon="6.98291">
        <ele>737</ele>
        <time>2009-06-21T14:38:17Z</time>
      </trkpt>
      <trkpt lat="43.72521" lon="6.98276">
        <ele>736.5</ele>
        <time>2009-06-21T14:38:21Z</time>
      </trkpt>
      <trkpt lat="43.72504" lon="6.98264">
        <ele>736</ele>
        <time>2009-06-21T14:38:25Z</time>
      </trkpt>
      <trkpt lat="43.72484" lon="6.98248">
        <ele>735.5</ele>
        <time>2009-06-21T14:38:29Z</time>
      </trkpt>
      <trkpt lat="43.72468" lon="6.98228">
        <ele>735.5</ele>
        <time>2009-06-21T14:38:33Z</time>
      </trkpt>
      <trkpt lat="43.72452" lon="6.98206">
        <ele>734.1</ele>
        <time>2009-06-21T14:38:37Z</time>
      </trkpt>
      <trkpt lat="43.72427" lon="6.98185">
        <ele>733.6</ele>
        <time>2009-06-21T14:38:41Z</time>
      </trkpt>
      <trkpt lat="43.7241" lon="6.98165">
        <ele>734.1</ele>
        <time>2009-06-21T14:38:45Z</time>
      </trkpt>
      <trkpt lat="43.72393" lon="6.98145">
        <ele>735.5</ele>
        <time>2009-06-21T14:38:49Z</time>
      </trkpt>
      <trkpt lat="43.72375" lon="6.98123">
        <ele>735.5</ele>
        <time>2009-06-21T14:38:53Z</time>
      </trkpt>
      <trkpt lat="43.72358" lon="6.98102">
        <ele>737</ele>
        <time>2009-06-21T14:38:57Z</time>
      </trkpt>
      <trkpt lat="43.72341" lon="6.9808">
        <ele>736</ele>
        <time>2009-06-21T14:39:01Z</time>
      </trkpt>
      <trkpt lat="43.72326" lon="6.98063">
        <ele>737.5</ele>
        <time>2009-06-21T14:39:04Z</time>
      </trkpt>
      <trkpt lat="43.72312" lon="6.98046">
        <ele>738.4</ele>
        <time>2009-06-21T14:39:07Z</time>
      </trkpt>
      <trkpt lat="43.72298" lon="6.98028">
        <ele>738.9</ele>
        <time>2009-06-21T14:39:10Z</time>
      </trkpt>
      <trkpt lat="43.72285" lon="6.98009">
        <ele>738.9</ele>
        <time>2009-06-21T14:39:13Z</time>
      </trkpt>
      <trkpt lat="43.72273" lon="6.9799">
        <ele>738.4</ele>
        <time>2009-06-21T14:39:16Z</time>
      </trkpt>
      <trkpt lat="43.72263" lon="6.97968">
        <ele>737.5</ele>
        <time>2009-06-21T14:39:19Z</time>
      </trkpt>
      <trkpt lat="43.72254" lon="6.97946">
        <ele>737.9</ele>
        <time>2009-06-21T14:39:22Z</time>
      </trkpt>
      <trkpt lat="43.72245" lon="6.97916">
        <ele>738.4</ele>
        <time>2009-06-21T14:39:26Z</time>
      </trkpt>
      <trkpt lat="43.7224" lon="6.97886">
        <ele>737.5</ele>
        <time>2009-06-21T14:39:30Z</time>
      </trkpt>
      <trkpt lat="43.72237" lon="6.97856">
        <ele>736.5</ele>
        <time>2009-06-21T14:39:34Z</time>
      </trkpt>
      <trkpt lat="43.72229" lon="6.97829">
        <ele>736</ele>
        <time>2009-06-21T14:39:38Z</time>
      </trkpt>
      <trkpt lat="43.72216" lon="6.97806">
        <ele>735.1</ele>
        <time>2009-06-21T14:39:42Z</time>
      </trkpt>
      <trkpt lat="43.72199" lon="6.97783">
        <ele>734.6</ele>
        <time>2009-06-21T14:39:46Z</time>
      </trkpt>
      <trkpt lat="43.72183" lon="6.97764">
        <ele>735.5</ele>
        <time>2009-06-21T14:39:50Z</time>
      </trkpt>
      <trkpt lat="43.72168" lon="6.97743">
        <ele>735.5</ele>
        <time>2009-06-21T14:39:54Z</time>
      </trkpt>
      <trkpt lat="43.72153" lon="6.97725">
        <ele>735.5</ele>
        <time>2009-06-21T14:39:58Z</time>
      </trkpt>
      <trkpt lat="43.72138" lon="6.97707">
        <ele>737.5</ele>
        <time>2009-06-21T14:40:02Z</time>
      </trkpt>
      <trkpt lat="43.72125" lon="6.97689">
        <ele>736</ele>
        <time>2009-06-21T14:40:06Z</time>
      </trkpt>
      <trkpt lat="43.72107" lon="6.97673">
        <ele>735.1</ele>
        <time>2009-06-21T14:40:10Z</time>
      </trkpt>
      <trkpt lat="43.72103" lon="6.97646">
        <ele>732.2</ele>
        <time>2009-06-21T14:40:14Z</time>
      </trkpt>
      <trkpt lat="43.72115" lon="6.97624">
        <ele>730.3</ele>
        <time>2009-06-21T14:40:17Z</time>
      </trkpt>
      <trkpt lat="43.72125" lon="6.97599">
        <ele>727.4</ele>
        <time>2009-06-21T14:40:20Z</time>
      </trkpt>
      <trkpt lat="43.7212" lon="6.9757">
        <ele>725</ele>
        <time>2009-06-21T14:40:23Z</time>
      </trkpt>
      <trkpt lat="43.72104" lon="6.97554">
        <ele>722.6</ele>
        <time>2009-06-21T14:40:26Z</time>
      </trkpt>
      <trkpt lat="43.72085" lon="6.97545">
        <ele>719.7</ele>
        <time>2009-06-21T14:40:30Z</time>
      </trkpt>
      <trkpt lat="43.72072" lon="6.97517">
        <ele>716.3</ele>
        <time>2009-06-21T14:40:34Z</time>
      </trkpt>
      <trkpt lat="43.72066" lon="6.97491">
        <ele>714.9</ele>
        <time>2009-06-21T14:40:37Z</time>
      </trkpt>
      <trkpt lat="43.72061" lon="6.97462">
        <ele>713.4</ele>
        <time>2009-06-21T14:40:40Z</time>
      </trkpt>
      <trkpt lat="43.7206" lon="6.97429">
        <ele>711.5</ele>
        <time>2009-06-21T14:40:43Z</time>
      </trkpt>
      <trkpt lat="43.72065" lon="6.97391">
        <ele>709.1</ele>
        <time>2009-06-21T14:40:46Z</time>
      </trkpt>
      <trkpt lat="43.72065" lon="6.97366">
        <ele>707.2</ele>
        <time>2009-06-21T14:40:48Z</time>
      </trkpt>
      <trkpt lat="43.72063" lon="6.97339">
        <ele>706.7</ele>
        <time>2009-06-21T14:40:50Z</time>
      </trkpt>
      <trkpt lat="43.72058" lon="6.97312">
        <ele>705.7</ele>
        <time>2009-06-21T14:40:52Z</time>
      </trkpt>
      <trkpt lat="43.72049" lon="6.97287">
        <ele>703.8</ele>
        <time>2009-06-21T14:40:54Z</time>
      </trkpt>
      <trkpt lat="43.7204" lon="6.9726">
        <ele>702.9</ele>
        <time>2009-06-21T14:40:56Z</time>
      </trkpt>
      <trkpt lat="43.72037" lon="6.97231">
        <ele>701.4</ele>
        <time>2009-06-21T14:40:58Z</time>
      </trkpt>
      <trkpt lat="43.72042" lon="6.97201">
        <ele>700.5</ele>
        <time>2009-06-21T14:41:00Z</time>
      </trkpt>
      <trkpt lat="43.72045" lon="6.97172">
        <ele>699.5</ele>
        <time>2009-06-21T14:41:02Z</time>
      </trkpt>
      <trkpt lat="43.72045" lon="6.97143">
        <ele>697.6</ele>
        <time>2009-06-21T14:41:04Z</time>
      </trkpt>
      <trkpt lat="43.72039" lon="6.97113">
        <ele>696.6</ele>
        <time>2009-06-21T14:41:06Z</time>
      </trkpt>
      <trkpt lat="43.7203" lon="6.97084">
        <ele>694.7</ele>
        <time>2009-06-21T14:41:08Z</time>
      </trkpt>
      <trkpt lat="43.72016" lon="6.97058">
        <ele>692.8</ele>
        <time>2009-06-21T14:41:10Z</time>
      </trkpt>
      <trkpt lat="43.72002" lon="6.97034">
        <ele>689.9</ele>
        <time>2009-06-21T14:41:12Z</time>
      </trkpt>
      <trkpt lat="43.71992" lon="6.9701">
        <ele>690.4</ele>
        <time>2009-06-21T14:41:14Z</time>
      </trkpt>
      <trkpt lat="43.71988" lon="6.96982">
        <ele>688.9</ele>
        <time>2009-06-21T14:41:16Z</time>
      </trkpt>
      <trkpt lat="43.71984" lon="6.96957">
        <ele>687.5</ele>
        <time>2009-06-21T14:41:18Z</time>
      </trkpt>
      <trkpt lat="43.71976" lon="6.96923">
        <ele>686</ele>
        <time>2009-06-21T14:41:21Z</time>
      </trkpt>
      <trkpt lat="43.71985" lon="6.9689">
        <ele>684.6</ele>
        <time>2009-06-21T14:41:24Z</time>
      </trkpt>
      <trkpt lat="43.71999" lon="6.96873">
        <ele>683.2</ele>
        <time>2009-06-21T14:41:26Z</time>
      </trkpt>
      <trkpt lat="43.72017" lon="6.96862">
        <ele>682.7</ele>
        <time>2009-06-21T14:41:28Z</time>
      </trkpt>
      <trkpt lat="43.72033" lon="6.96851">
        <ele>681.7</ele>
        <time>2009-06-21T14:41:30Z</time>
      </trkpt>
      <trkpt lat="43.72054" lon="6.96829">
        <ele>680.3</ele>
        <time>2009-06-21T14:41:33Z</time>
      </trkpt>
      <trkpt lat="43.72073" lon="6.96812">
        <ele>679.3</ele>
        <time>2009-06-21T14:41:36Z</time>
      </trkpt>
      <trkpt lat="43.72091" lon="6.96796">
        <ele>678.3</ele>
        <time>2009-06-21T14:41:39Z</time>
      </trkpt>
      <trkpt lat="43.72099" lon="6.9677">
        <ele>677.9</ele>
        <time>2009-06-21T14:41:42Z</time>
      </trkpt>
      <trkpt lat="43.7209" lon="6.96745">
        <ele>677.4</ele>
        <time>2009-06-21T14:41:45Z</time>
      </trkpt>
      <trkpt lat="43.72071" lon="6.96736">
        <ele>675.5</ele>
        <time>2009-06-21T14:41:48Z</time>
      </trkpt>
      <trkpt lat="43.7205" lon="6.96746">
        <ele>672.6</ele>
        <time>2009-06-21T14:41:51Z</time>
      </trkpt>
      <trkpt lat="43.7203" lon="6.96748">
        <ele>669.2</ele>
        <time>2009-06-21T14:41:54Z</time>
      </trkpt>
      <trkpt lat="43.72008" lon="6.96737">
        <ele>668.3</ele>
        <time>2009-06-21T14:41:57Z</time>
      </trkpt>
      <trkpt lat="43.71987" lon="6.96721">
        <ele>668.3</ele>
        <time>2009-06-21T14:42:00Z</time>
      </trkpt>
      <trkpt lat="43.71968" lon="6.96702">
        <ele>667.3</ele>
        <time>2009-06-21T14:42:03Z</time>
      </trkpt>
      <trkpt lat="43.71946" lon="6.96686">
        <ele>665.9</ele>
        <time>2009-06-21T14:42:06Z</time>
      </trkpt>
      <trkpt lat="43.71923" lon="6.9668">
        <ele>665.9</ele>
        <time>2009-06-21T14:42:09Z</time>
      </trkpt>
      <trkpt lat="43.71902" lon="6.96696">
        <ele>665.4</ele>
        <time>2009-06-21T14:42:12Z</time>
      </trkpt>
      <trkpt lat="43.71885" lon="6.96724">
        <ele>664.9</ele>
        <time>2009-06-21T14:42:15Z</time>
      </trkpt>
      <trkpt lat="43.7187" lon="6.96754">
        <ele>663.4</ele>
        <time>2009-06-21T14:42:18Z</time>
      </trkpt>
      <trkpt lat="43.71854" lon="6.96782">
        <ele>661</ele>
        <time>2009-06-21T14:42:21Z</time>
      </trkpt>
      <trkpt lat="43.71834" lon="6.96807">
        <ele>660.6</ele>
        <time>2009-06-21T14:42:24Z</time>
      </trkpt>
      <trkpt lat="43.71815" lon="6.96832">
        <ele>659.6</ele>
        <time>2009-06-21T14:42:27Z</time>
      </trkpt>
      <trkpt lat="43.71803" lon="6.96861">
        <ele>660.6</ele>
        <time>2009-06-21T14:42:30Z</time>
      </trkpt>
      <trkpt lat="43.71805" lon="6.96895">
        <ele>663</ele>
        <time>2009-06-21T14:42:33Z</time>
      </trkpt>
      <trkpt lat="43.71803" lon="6.96926">
        <ele>663.9</ele>
        <time>2009-06-21T14:42:36Z</time>
      </trkpt>
      <trkpt lat="43.71797" lon="6.96955">
        <ele>663.4</ele>
        <time>2009-06-21T14:42:39Z</time>
      </trkpt>
      <trkpt lat="43.71789" lon="6.96982">
        <ele>663.4</ele>
        <time>2009-06-21T14:42:42Z</time>
      </trkpt>
      <trkpt lat="43.71779" lon="6.97005">
        <ele>663.9</ele>
        <time>2009-06-21T14:42:45Z</time>
      </trkpt>
      <trkpt lat="43.71777" lon="6.97034">
        <ele>665.9</ele>
        <time>2009-06-21T14:42:48Z</time>
      </trkpt>
      <trkpt lat="43.71779" lon="6.97064">
        <ele>667.3</ele>
        <time>2009-06-21T14:42:51Z</time>
      </trkpt>
      <trkpt lat="43.71779" lon="6.97094">
        <ele>666.3</ele>
        <time>2009-06-21T14:42:54Z</time>
      </trkpt>
      <trkpt lat="43.71772" lon="6.97122">
        <ele>667.3</ele>
        <time>2009-06-21T14:42:57Z</time>
      </trkpt>
      <trkpt lat="43.71765" lon="6.97147">
        <ele>668.3</ele>
        <time>2009-06-21T14:43:00Z</time>
      </trkpt>
      <trkpt lat="43.71758" lon="6.9717">
        <ele>668.3</ele>
        <time>2009-06-21T14:43:03Z</time>
      </trkpt>
      <trkpt lat="43.71747" lon="6.97202">
        <ele>667.3</ele>
        <time>2009-06-21T14:43:07Z</time>
      </trkpt>
      <trkpt lat="43.71736" lon="6.97233">
        <ele>667.8</ele>
        <time>2009-06-21T14:43:11Z</time>
      </trkpt>
      <trkpt lat="43.7172" lon="6.97257">
        <ele>668.3</ele>
        <time>2009-06-21T14:43:15Z</time>
      </trkpt>
      <trkpt lat="43.71706" lon="6.97273">
        <ele>668.3</ele>
        <time>2009-06-21T14:43:18Z</time>
      </trkpt>
      <trkpt lat="43.71688" lon="6.97293">
        <ele>668.7</ele>
        <time>2009-06-21T14:43:22Z</time>
      </trkpt>
      <trkpt lat="43.71672" lon="6.97315">
        <ele>668.3</ele>
        <time>2009-06-21T14:43:26Z</time>
      </trkpt>
      <trkpt lat="43.71656" lon="6.97336">
        <ele>668.7</ele>
        <time>2009-06-21T14:43:30Z</time>
      </trkpt>
      <trkpt lat="43.71637" lon="6.97352">
        <ele>670.7</ele>
        <time>2009-06-21T14:43:34Z</time>
      </trkpt>
      <trkpt lat="43.71616" lon="6.97359">
        <ele>672.6</ele>
        <time>2009-06-21T14:43:38Z</time>
      </trkpt>
      <trkpt lat="43.71595" lon="6.97351">
        <ele>674</ele>
        <time>2009-06-21T14:43:42Z</time>
      </trkpt>
      <trkpt lat="43.71575" lon="6.97347">
        <ele>675</ele>
        <time>2009-06-21T14:43:46Z</time>
      </trkpt>
      <trkpt lat="43.71552" lon="6.97357">
        <ele>675.5</ele>
        <time>2009-06-21T14:43:50Z</time>
      </trkpt>
      <trkpt lat="43.71534" lon="6.97359">
        <ele>675.9</ele>
        <time>2009-06-21T14:43:53Z</time>
      </trkpt>
      <trkpt lat="43.71515" lon="6.97355">
        <ele>675.9</ele>
        <time>2009-06-21T14:43:56Z</time>
      </trkpt>
      <trkpt lat="43.71496" lon="6.9735">
        <ele>676.4</ele>
        <time>2009-06-21T14:43:59Z</time>
      </trkpt>
      <trkpt lat="43.71476" lon="6.97352">
        <ele>676.9</ele>
        <time>2009-06-21T14:44:02Z</time>
      </trkpt>
      <trkpt lat="43.71456" lon="6.97353">
        <ele>676.4</ele>
        <time>2009-06-21T14:44:05Z</time>
      </trkpt>
      <trkpt lat="43.71436" lon="6.97348">
        <ele>676.4</ele>
        <time>2009-06-21T14:44:08Z</time>
      </trkpt>
      <trkpt lat="43.71415" lon="6.9734">
        <ele>675.5</ele>
        <time>2009-06-21T14:44:11Z</time>
      </trkpt>
      <trkpt lat="43.71394" lon="6.97342">
        <ele>675.5</ele>
        <time>2009-06-21T14:44:14Z</time>
      </trkpt>
      <trkpt lat="43.71372" lon="6.97349">
        <ele>675.9</ele>
        <time>2009-06-21T14:44:17Z</time>
      </trkpt>
      <trkpt lat="43.71351" lon="6.97356">
        <ele>675.9</ele>
        <time>2009-06-21T14:44:20Z</time>
      </trkpt>
      <trkpt lat="43.7133" lon="6.97359">
        <ele>675</ele>
        <time>2009-06-21T14:44:23Z</time>
      </trkpt>
      <trkpt lat="43.71309" lon="6.97355">
        <ele>674</ele>
        <time>2009-06-21T14:44:26Z</time>
      </trkpt>
      <trkpt lat="43.71292" lon="6.97338">
        <ele>672.1</ele>
        <time>2009-06-21T14:44:29Z</time>
      </trkpt>
      <trkpt lat="43.71282" lon="6.97315">
        <ele>672.1</ele>
        <time>2009-06-21T14:44:32Z</time>
      </trkpt>
      <trkpt lat="43.71269" lon="6.97294">
        <ele>671.6</ele>
        <time>2009-06-21T14:44:35Z</time>
      </trkpt>
      <trkpt lat="43.7125" lon="6.97281">
        <ele>670.2</ele>
        <time>2009-06-21T14:44:38Z</time>
      </trkpt>
      <trkpt lat="43.71231" lon="6.97271">
        <ele>668.7</ele>
        <time>2009-06-21T14:44:41Z</time>
      </trkpt>
      <trkpt lat="43.71213" lon="6.97261">
        <ele>667.8</ele>
        <time>2009-06-21T14:44:44Z</time>
      </trkpt>
      <trkpt lat="43.71195" lon="6.97251">
        <ele>666.8</ele>
        <time>2009-06-21T14:44:47Z</time>
      </trkpt>
      <trkpt lat="43.71174" lon="6.97247">
        <ele>667.3</ele>
        <time>2009-06-21T14:44:50Z</time>
      </trkpt>
      <trkpt lat="43.71151" lon="6.97249">
        <ele>667.3</ele>
        <time>2009-06-21T14:44:53Z</time>
      </trkpt>
      <trkpt lat="43.7113" lon="6.97254">
        <ele>668.3</ele>
        <time>2009-06-21T14:44:56Z</time>
      </trkpt>
      <trkpt lat="43.7111" lon="6.97256">
        <ele>668.7</ele>
        <time>2009-06-21T14:44:59Z</time>
      </trkpt>
      <trkpt lat="43.71092" lon="6.97245">
        <ele>668.7</ele>
        <time>2009-06-21T14:45:02Z</time>
      </trkpt>
      <trkpt lat="43.71076" lon="6.97232">
        <ele>668.3</ele>
        <time>2009-06-21T14:45:05Z</time>
      </trkpt>
      <trkpt lat="43.71054" lon="6.97215">
        <ele>667.3</ele>
        <time>2009-06-21T14:45:09Z</time>
      </trkpt>
      <trkpt lat="43.71033" lon="6.97206">
        <ele>668.7</ele>
        <time>2009-06-21T14:45:12Z</time>
      </trkpt>
      <trkpt lat="43.71012" lon="6.9721">
        <ele>669.2</ele>
        <time>2009-06-21T14:45:15Z</time>
      </trkpt>
      <trkpt lat="43.70995" lon="6.97224">
        <ele>671.1</ele>
        <time>2009-06-21T14:45:18Z</time>
      </trkpt>
      <trkpt lat="43.70984" lon="6.97247">
        <ele>672.1</ele>
        <time>2009-06-21T14:45:21Z</time>
      </trkpt>
      <trkpt lat="43.70982" lon="6.97276">
        <ele>671.6</ele>
        <time>2009-06-21T14:45:24Z</time>
      </trkpt>
      <trkpt lat="43.70984" lon="6.97306">
        <ele>671.6</ele>
        <time>2009-06-21T14:45:27Z</time>
      </trkpt>
      <trkpt lat="43.70985" lon="6.97335">
        <ele>672.6</ele>
        <time>2009-06-21T14:45:30Z</time>
      </trkpt>
      <trkpt lat="43.70985" lon="6.97364">
        <ele>672.6</ele>
        <time>2009-06-21T14:45:33Z</time>
      </trkpt>
      <trkpt lat="43.70983" lon="6.97393">
        <ele>671.6</ele>
        <time>2009-06-21T14:45:36Z</time>
      </trkpt>
      <trkpt lat="43.70979" lon="6.97422">
        <ele>670.2</ele>
        <time>2009-06-21T14:45:39Z</time>
      </trkpt>
      <trkpt lat="43.70971" lon="6.97449">
        <ele>669.2</ele>
        <time>2009-06-21T14:45:42Z</time>
      </trkpt>
      <trkpt lat="43.70957" lon="6.97472">
        <ele>668.7</ele>
        <time>2009-06-21T14:45:45Z</time>
      </trkpt>
      <trkpt lat="43.70939" lon="6.97487">
        <ele>668.3</ele>
        <time>2009-06-21T14:45:48Z</time>
      </trkpt>
      <trkpt lat="43.70919" lon="6.97496">
        <ele>665.9</ele>
        <time>2009-06-21T14:45:51Z</time>
      </trkpt>
      <trkpt lat="43.70899" lon="6.97504">
        <ele>666.3</ele>
        <time>2009-06-21T14:45:54Z</time>
      </trkpt>
      <trkpt lat="43.70878" lon="6.97511">
        <ele>665.9</ele>
        <time>2009-06-21T14:45:57Z</time>
      </trkpt>
      <trkpt lat="43.70857" lon="6.97513">
        <ele>664.9</ele>
        <time>2009-06-21T14:46:00Z</time>
      </trkpt>
      <trkpt lat="43.70835" lon="6.97511">
        <ele>663.9</ele>
        <time>2009-06-21T14:46:03Z</time>
      </trkpt>
      <trkpt lat="43.70813" lon="6.97503">
        <ele>663.9</ele>
        <time>2009-06-21T14:46:06Z</time>
      </trkpt>
      <trkpt lat="43.70797" lon="6.97484">
        <ele>663.9</ele>
        <time>2009-06-21T14:46:09Z</time>
      </trkpt>
      <trkpt lat="43.70782" lon="6.97455">
        <ele>663</ele>
        <time>2009-06-21T14:46:12Z</time>
      </trkpt>
      <trkpt lat="43.70775" lon="6.97423">
        <ele>663</ele>
        <time>2009-06-21T14:46:15Z</time>
      </trkpt>
      <trkpt lat="43.70772" lon="6.97387">
        <ele>662.5</ele>
        <time>2009-06-21T14:46:18Z</time>
      </trkpt>
      <trkpt lat="43.7077" lon="6.97354">
        <ele>662</ele>
        <time>2009-06-21T14:46:21Z</time>
      </trkpt>
      <trkpt lat="43.70766" lon="6.97318">
        <ele>661.5</ele>
        <time>2009-06-21T14:46:24Z</time>
      </trkpt>
      <trkpt lat="43.7076" lon="6.97284">
        <ele>661.5</ele>
        <time>2009-06-21T14:46:27Z</time>
      </trkpt>
      <trkpt lat="43.70749" lon="6.97253">
        <ele>661</ele>
        <time>2009-06-21T14:46:30Z</time>
      </trkpt>
      <trkpt lat="43.70732" lon="6.97226">
        <ele>660.1</ele>
        <time>2009-06-21T14:46:33Z</time>
      </trkpt>
      <trkpt lat="43.70712" lon="6.97205">
        <ele>658.6</ele>
        <time>2009-06-21T14:46:36Z</time>
      </trkpt>
      <trkpt lat="43.7069" lon="6.97188">
        <ele>657.2</ele>
        <time>2009-06-21T14:46:39Z</time>
      </trkpt>
      <trkpt lat="43.70665" lon="6.97177">
        <ele>656.7</ele>
        <time>2009-06-21T14:46:42Z</time>
      </trkpt>
      <trkpt lat="43.70639" lon="6.97169">
        <ele>655.8</ele>
        <time>2009-06-21T14:46:45Z</time>
      </trkpt>
      <trkpt lat="43.70612" lon="6.97165">
        <ele>655.3</ele>
        <time>2009-06-21T14:46:48Z</time>
      </trkpt>
      <trkpt lat="43.70594" lon="6.97163">
        <ele>654.8</ele>
        <time>2009-06-21T14:46:50Z</time>
      </trkpt>
      <trkpt lat="43.70576" lon="6.97164">
        <ele>653.4</ele>
        <time>2009-06-21T14:46:52Z</time>
      </trkpt>
      <trkpt lat="43.70558" lon="6.97164">
        <ele>651.9</ele>
        <time>2009-06-21T14:46:54Z</time>
      </trkpt>
      <trkpt lat="43.70532" lon="6.97161">
        <ele>651.4</ele>
        <time>2009-06-21T14:46:57Z</time>
      </trkpt>
      <trkpt lat="43.70505" lon="6.97153">
        <ele>650</ele>
        <time>2009-06-21T14:47:00Z</time>
      </trkpt>
      <trkpt lat="43.70482" lon="6.97134">
        <ele>648.1</ele>
        <time>2009-06-21T14:47:03Z</time>
      </trkpt>
      <trkpt lat="43.7046" lon="6.97112">
        <ele>646.1</ele>
        <time>2009-06-21T14:47:06Z</time>
      </trkpt>
      <trkpt lat="43.7044" lon="6.97087">
        <ele>644.7</ele>
        <time>2009-06-21T14:47:09Z</time>
      </trkpt>
      <trkpt lat="43.70416" lon="6.97062">
        <ele>642.8</ele>
        <time>2009-06-21T14:47:12Z</time>
      </trkpt>
      <trkpt lat="43.70401" lon="6.97045">
        <ele>641.8</ele>
        <time>2009-06-21T14:47:14Z</time>
      </trkpt>
      <trkpt lat="43.70388" lon="6.97027">
        <ele>640.9</ele>
        <time>2009-06-21T14:47:16Z</time>
      </trkpt>
      <trkpt lat="43.70377" lon="6.96993">
        <ele>638.9</ele>
        <time>2009-06-21T14:47:19Z</time>
      </trkpt>
      <trkpt lat="43.70374" lon="6.96967">
        <ele>638</ele>
        <time>2009-06-21T14:47:21Z</time>
      </trkpt>
      <trkpt lat="43.7037" lon="6.96942">
        <ele>637</ele>
        <time>2009-06-21T14:47:23Z</time>
      </trkpt>
      <trkpt lat="43.70366" lon="6.96918">
        <ele>636.5</ele>
        <time>2009-06-21T14:47:25Z</time>
      </trkpt>
      <trkpt lat="43.70362" lon="6.96893">
        <ele>635.6</ele>
        <time>2009-06-21T14:47:27Z</time>
      </trkpt>
      <trkpt lat="43.70359" lon="6.96867">
        <ele>635.1</ele>
        <time>2009-06-21T14:47:29Z</time>
      </trkpt>
      <trkpt lat="43.70355" lon="6.96841">
        <ele>634.1</ele>
        <time>2009-06-21T14:47:31Z</time>
      </trkpt>
      <trkpt lat="43.70352" lon="6.96815">
        <ele>633.2</ele>
        <time>2009-06-21T14:47:33Z</time>
      </trkpt>
      <trkpt lat="43.70349" lon="6.96789">
        <ele>632.2</ele>
        <time>2009-06-21T14:47:35Z</time>
      </trkpt>
      <trkpt lat="43.70347" lon="6.96763">
        <ele>631.7</ele>
        <time>2009-06-21T14:47:37Z</time>
      </trkpt>
      <trkpt lat="43.70344" lon="6.96736">
        <ele>630.8</ele>
        <time>2009-06-21T14:47:39Z</time>
      </trkpt>
      <trkpt lat="43.70339" lon="6.9671">
        <ele>629.8</ele>
        <time>2009-06-21T14:47:41Z</time>
      </trkpt>
      <trkpt lat="43.70335" lon="6.96683">
        <ele>629.3</ele>
        <time>2009-06-21T14:47:43Z</time>
      </trkpt>
      <trkpt lat="43.70331" lon="6.96657">
        <ele>628.8</ele>
        <time>2009-06-21T14:47:45Z</time>
      </trkpt>
      <trkpt lat="43.70325" lon="6.9663">
        <ele>627.9</ele>
        <time>2009-06-21T14:47:47Z</time>
      </trkpt>
      <trkpt lat="43.70321" lon="6.96604">
        <ele>626.9</ele>
        <time>2009-06-21T14:47:49Z</time>
      </trkpt>
      <trkpt lat="43.70316" lon="6.96578">
        <ele>625.5</ele>
        <time>2009-06-21T14:47:51Z</time>
      </trkpt>
      <trkpt lat="43.70311" lon="6.96552">
        <ele>625</ele>
        <time>2009-06-21T14:47:53Z</time>
      </trkpt>
      <trkpt lat="43.70306" lon="6.96526">
        <ele>625</ele>
        <time>2009-06-21T14:47:55Z</time>
      </trkpt>
      <trkpt lat="43.70302" lon="6.965">
        <ele>624.5</ele>
        <time>2009-06-21T14:47:57Z</time>
      </trkpt>
      <trkpt lat="43.70298" lon="6.96475">
        <ele>624.5</ele>
        <time>2009-06-21T14:47:59Z</time>
      </trkpt>
      <trkpt lat="43.70293" lon="6.9645">
        <ele>624.5</ele>
        <time>2009-06-21T14:48:01Z</time>
      </trkpt>
      <trkpt lat="43.70289" lon="6.96424">
        <ele>625</ele>
        <time>2009-06-21T14:48:03Z</time>
      </trkpt>
      <trkpt lat="43.70283" lon="6.96399">
        <ele>626.9</ele>
        <time>2009-06-21T14:48:05Z</time>
      </trkpt>
      <trkpt lat="43.70273" lon="6.96376">
        <ele>627.4</ele>
        <time>2009-06-21T14:48:07Z</time>
      </trkpt>
      <trkpt lat="43.70263" lon="6.96354">
        <ele>627.4</ele>
        <time>2009-06-21T14:48:09Z</time>
      </trkpt>
      <trkpt lat="43.70253" lon="6.96331">
        <ele>626.9</ele>
        <time>2009-06-21T14:48:11Z</time>
      </trkpt>
      <trkpt lat="43.70243" lon="6.96309">
        <ele>626.4</ele>
        <time>2009-06-21T14:48:13Z</time>
      </trkpt>
      <trkpt lat="43.70233" lon="6.96285">
        <ele>625.5</ele>
        <time>2009-06-21T14:48:15Z</time>
      </trkpt>
      <trkpt lat="43.70222" lon="6.96263">
        <ele>625.5</ele>
        <time>2009-06-21T14:48:17Z</time>
      </trkpt>
      <trkpt lat="43.70211" lon="6.96242">
        <ele>625</ele>
        <time>2009-06-21T14:48:19Z</time>
      </trkpt>
      <trkpt lat="43.70197" lon="6.96222">
        <ele>625</ele>
        <time>2009-06-21T14:48:21Z</time>
      </trkpt>
      <trkpt lat="43.70182" lon="6.96207">
        <ele>624</ele>
        <time>2009-06-21T14:48:23Z</time>
      </trkpt>
      <trkpt lat="43.70166" lon="6.96193">
        <ele>624</ele>
        <time>2009-06-21T14:48:25Z</time>
      </trkpt>
      <trkpt lat="43.7015" lon="6.9618">
        <ele>623.6</ele>
        <time>2009-06-21T14:48:27Z</time>
      </trkpt>
      <trkpt lat="43.70134" lon="6.96167">
        <ele>623.6</ele>
        <time>2009-06-21T14:48:29Z</time>
      </trkpt>
      <trkpt lat="43.70118" lon="6.96156">
        <ele>623.6</ele>
        <time>2009-06-21T14:48:31Z</time>
      </trkpt>
      <trkpt lat="43.70093" lon="6.96138">
        <ele>623.1</ele>
        <time>2009-06-21T14:48:34Z</time>
      </trkpt>
      <trkpt lat="43.7007" lon="6.96119">
        <ele>623.1</ele>
        <time>2009-06-21T14:48:37Z</time>
      </trkpt>
      <trkpt lat="43.70048" lon="6.96103">
        <ele>624.5</ele>
        <time>2009-06-21T14:48:40Z</time>
      </trkpt>
      <trkpt lat="43.70026" lon="6.96097">
        <ele>624</ele>
        <time>2009-06-21T14:48:43Z</time>
      </trkpt>
      <trkpt lat="43.70004" lon="6.96109">
        <ele>623.1</ele>
        <time>2009-06-21T14:48:46Z</time>
      </trkpt>
      <trkpt lat="43.69994" lon="6.96137">
        <ele>623.1</ele>
        <time>2009-06-21T14:48:49Z</time>
      </trkpt>
      <trkpt lat="43.69999" lon="6.96169">
        <ele>621.6</ele>
        <time>2009-06-21T14:48:52Z</time>
      </trkpt>
      <trkpt lat="43.70016" lon="6.96195">
        <ele>620.7</ele>
        <time>2009-06-21T14:48:55Z</time>
      </trkpt>
      <trkpt lat="43.70034" lon="6.96219">
        <ele>618.7</ele>
        <time>2009-06-21T14:48:58Z</time>
      </trkpt>
      <trkpt lat="43.70052" lon="6.96244">
        <ele>617.8</ele>
        <time>2009-06-21T14:49:01Z</time>
      </trkpt>
      <trkpt lat="43.70069" lon="6.96269">
        <ele>617.3</ele>
        <time>2009-06-21T14:49:04Z</time>
      </trkpt>
      <trkpt lat="43.70085" lon="6.96296">
        <ele>617.8</ele>
        <time>2009-06-21T14:49:07Z</time>
      </trkpt>
      <trkpt lat="43.70096" lon="6.96326">
        <ele>617.3</ele>
        <time>2009-06-21T14:49:10Z</time>
      </trkpt>
      <trkpt lat="43.70102" lon="6.96359">
        <ele>617.3</ele>
        <time>2009-06-21T14:49:13Z</time>
      </trkpt>
      <trkpt lat="43.70104" lon="6.96393">
        <ele>616.8</ele>
        <time>2009-06-21T14:49:16Z</time>
      </trkpt>
      <trkpt lat="43.70104" lon="6.96428">
        <ele>616.3</ele>
        <time>2009-06-21T14:49:19Z</time>
      </trkpt>
      <trkpt lat="43.70103" lon="6.96462">
        <ele>614.4</ele>
        <time>2009-06-21T14:49:22Z</time>
      </trkpt>
      <trkpt lat="43.70099" lon="6.96495">
        <ele>613</ele>
        <time>2009-06-21T14:49:25Z</time>
      </trkpt>
      <trkpt lat="43.70094" lon="6.96531">
        <ele>613.5</ele>
        <time>2009-06-21T14:49:28Z</time>
      </trkpt>
      <trkpt lat="43.70086" lon="6.96565">
        <ele>611.5</ele>
        <time>2009-06-21T14:49:31Z</time>
      </trkpt>
      <trkpt lat="43.70077" lon="6.96599">
        <ele>609.6</ele>
        <time>2009-06-21T14:49:34Z</time>
      </trkpt>
      <trkpt lat="43.70064" lon="6.96631">
        <ele>608.2</ele>
        <time>2009-06-21T14:49:37Z</time>
      </trkpt>
      <trkpt lat="43.70053" lon="6.96651">
        <ele>606.7</ele>
        <time>2009-06-21T14:49:39Z</time>
      </trkpt>
      <trkpt lat="43.70038" lon="6.96669">
        <ele>605.8</ele>
        <time>2009-06-21T14:49:41Z</time>
      </trkpt>
      <trkpt lat="43.70023" lon="6.96683">
        <ele>605.3</ele>
        <time>2009-06-21T14:49:43Z</time>
      </trkpt>
      <trkpt lat="43.70006" lon="6.96697">
        <ele>603.8</ele>
        <time>2009-06-21T14:49:45Z</time>
      </trkpt>
      <trkpt lat="43.69987" lon="6.96708">
        <ele>602.4</ele>
        <time>2009-06-21T14:49:47Z</time>
      </trkpt>
      <trkpt lat="43.69968" lon="6.96714">
        <ele>601.4</ele>
        <time>2009-06-21T14:49:49Z</time>
      </trkpt>
      <trkpt lat="43.69948" lon="6.96716">
        <ele>600</ele>
        <time>2009-06-21T14:49:51Z</time>
      </trkpt>
      <trkpt lat="43.69929" lon="6.96723">
        <ele>598.1</ele>
        <time>2009-06-21T14:49:53Z</time>
      </trkpt>
      <trkpt lat="43.69909" lon="6.96734">
        <ele>596.2</ele>
        <time>2009-06-21T14:49:55Z</time>
      </trkpt>
      <trkpt lat="43.69889" lon="6.96741">
        <ele>594.2</ele>
        <time>2009-06-21T14:49:57Z</time>
      </trkpt>
      <trkpt lat="43.69868" lon="6.96745">
        <ele>592.3</ele>
        <time>2009-06-21T14:49:59Z</time>
      </trkpt>
      <trkpt lat="43.69846" lon="6.96752">
        <ele>591.8</ele>
        <time>2009-06-21T14:50:01Z</time>
      </trkpt>
      <trkpt lat="43.69824" lon="6.96759">
        <ele>589.9</ele>
        <time>2009-06-21T14:50:03Z</time>
      </trkpt>
      <trkpt lat="43.69801" lon="6.96758">
        <ele>586.5</ele>
        <time>2009-06-21T14:50:05Z</time>
      </trkpt>
      <trkpt lat="43.6978" lon="6.96746">
        <ele>586.1</ele>
        <time>2009-06-21T14:50:07Z</time>
      </trkpt>
      <trkpt lat="43.69759" lon="6.96729">
        <ele>585.1</ele>
        <time>2009-06-21T14:50:09Z</time>
      </trkpt>
      <trkpt lat="43.69738" lon="6.96712">
        <ele>584.1</ele>
        <time>2009-06-21T14:50:11Z</time>
      </trkpt>
      <trkpt lat="43.69717" lon="6.96695">
        <ele>581.7</ele>
        <time>2009-06-21T14:50:13Z</time>
      </trkpt>
      <trkpt lat="43.69696" lon="6.96679">
        <ele>580.3</ele>
        <time>2009-06-21T14:50:15Z</time>
      </trkpt>
      <trkpt lat="43.69673" lon="6.96668">
        <ele>578.4</ele>
        <time>2009-06-21T14:50:17Z</time>
      </trkpt>
      <trkpt lat="43.6965" lon="6.96669">
        <ele>576.9</ele>
        <time>2009-06-21T14:50:19Z</time>
      </trkpt>
      <trkpt lat="43.69628" lon="6.96679">
        <ele>575</ele>
        <time>2009-06-21T14:50:21Z</time>
      </trkpt>
      <trkpt lat="43.6961" lon="6.967">
        <ele>573.6</ele>
        <time>2009-06-21T14:50:23Z</time>
      </trkpt>
      <trkpt lat="43.69599" lon="6.96729">
        <ele>571.6</ele>
        <time>2009-06-21T14:50:25Z</time>
      </trkpt>
      <trkpt lat="43.69597" lon="6.96762">
        <ele>569.7</ele>
        <time>2009-06-21T14:50:27Z</time>
      </trkpt>
      <trkpt lat="43.696" lon="6.96794">
        <ele>568.8</ele>
        <time>2009-06-21T14:50:29Z</time>
      </trkpt>
      <trkpt lat="43.696" lon="6.96825">
        <ele>564.9</ele>
        <time>2009-06-21T14:50:31Z</time>
      </trkpt>
      <trkpt lat="43.69593" lon="6.96858">
        <ele>561.5</ele>
        <time>2009-06-21T14:50:33Z</time>
      </trkpt>
      <trkpt lat="43.69576" lon="6.96884">
        <ele>560.1</ele>
        <time>2009-06-21T14:50:35Z</time>
      </trkpt>
      <trkpt lat="43.69558" lon="6.96906">
        <ele>559.1</ele>
        <time>2009-06-21T14:50:37Z</time>
      </trkpt>
      <trkpt lat="43.6954" lon="6.96928">
        <ele>557.7</ele>
        <time>2009-06-21T14:50:39Z</time>
      </trkpt>
      <trkpt lat="43.69526" lon="6.96952">
        <ele>556.7</ele>
        <time>2009-06-21T14:50:41Z</time>
      </trkpt>
      <trkpt lat="43.69518" lon="6.96981">
        <ele>554.3</ele>
        <time>2009-06-21T14:50:43Z</time>
      </trkpt>
      <trkpt lat="43.69512" lon="6.97012">
        <ele>550</ele>
        <time>2009-06-21T14:50:45Z</time>
      </trkpt>
      <trkpt lat="43.69498" lon="6.97041">
        <ele>548.1</ele>
        <time>2009-06-21T14:50:47Z</time>
      </trkpt>
      <trkpt lat="43.69478" lon="6.97059">
        <ele>545.7</ele>
        <time>2009-06-21T14:50:49Z</time>
      </trkpt>
      <trkpt lat="43.69453" lon="6.97071">
        <ele>545.2</ele>
        <time>2009-06-21T14:50:51Z</time>
      </trkpt>
      <trkpt lat="43.69432" lon="6.97089">
        <ele>544.2</ele>
        <time>2009-06-21T14:50:53Z</time>
      </trkpt>
      <trkpt lat="43.69413" lon="6.97114">
        <ele>542.3</ele>
        <time>2009-06-21T14:50:55Z</time>
      </trkpt>
      <trkpt lat="43.69393" lon="6.97137">
        <ele>539.9</ele>
        <time>2009-06-21T14:50:57Z</time>
      </trkpt>
      <trkpt lat="43.6937" lon="6.97152">
        <ele>537</ele>
        <time>2009-06-21T14:50:59Z</time>
      </trkpt>
      <trkpt lat="43.69345" lon="6.97159">
        <ele>535.1</ele>
        <time>2009-06-21T14:51:01Z</time>
      </trkpt>
      <trkpt lat="43.6932" lon="6.97166">
        <ele>533.2</ele>
        <time>2009-06-21T14:51:03Z</time>
      </trkpt>
      <trkpt lat="43.69297" lon="6.97182">
        <ele>533.2</ele>
        <time>2009-06-21T14:51:05Z</time>
      </trkpt>
      <trkpt lat="43.69276" lon="6.97205">
        <ele>533.2</ele>
        <time>2009-06-21T14:51:07Z</time>
      </trkpt>
      <trkpt lat="43.69257" lon="6.97225">
        <ele>530.8</ele>
        <time>2009-06-21T14:51:09Z</time>
      </trkpt>
      <trkpt lat="43.69235" lon="6.9724">
        <ele>527.9</ele>
        <time>2009-06-21T14:51:11Z</time>
      </trkpt>
      <trkpt lat="43.69211" lon="6.97249">
        <ele>524.1</ele>
        <time>2009-06-21T14:51:13Z</time>
      </trkpt>
      <trkpt lat="43.69187" lon="6.97256">
        <ele>522.6</ele>
        <time>2009-06-21T14:51:15Z</time>
      </trkpt>
      <trkpt lat="43.69164" lon="6.97264">
        <ele>521.2</ele>
        <time>2009-06-21T14:51:17Z</time>
      </trkpt>
      <trkpt lat="43.69143" lon="6.9728">
        <ele>520.2</ele>
        <time>2009-06-21T14:51:19Z</time>
      </trkpt>
      <trkpt lat="43.69125" lon="6.97303">
        <ele>518.8</ele>
        <time>2009-06-21T14:51:21Z</time>
      </trkpt>
      <trkpt lat="43.69112" lon="6.97332">
        <ele>516.8</ele>
        <time>2009-06-21T14:51:23Z</time>
      </trkpt>
      <trkpt lat="43.69105" lon="6.97364">
        <ele>514.9</ele>
        <time>2009-06-21T14:51:25Z</time>
      </trkpt>
      <trkpt lat="43.6909" lon="6.97393">
        <ele>512</ele>
        <time>2009-06-21T14:51:27Z</time>
      </trkpt>
      <trkpt lat="43.69071" lon="6.9741">
        <ele>507.7</ele>
        <time>2009-06-21T14:51:29Z</time>
      </trkpt>
      <trkpt lat="43.69049" lon="6.9742">
        <ele>505.3</ele>
        <time>2009-06-21T14:51:31Z</time>
      </trkpt>
      <trkpt lat="43.69024" lon="6.9742">
        <ele>503.9</ele>
        <time>2009-06-21T14:51:33Z</time>
      </trkpt>
      <trkpt lat="43.68997" lon="6.97413">
        <ele>500</ele>
        <time>2009-06-21T14:51:35Z</time>
      </trkpt>
      <trkpt lat="43.6897" lon="6.97407">
        <ele>495.7</ele>
        <time>2009-06-21T14:51:37Z</time>
      </trkpt>
      <trkpt lat="43.68943" lon="6.97401">
        <ele>492.8</ele>
        <time>2009-06-21T14:51:39Z</time>
      </trkpt>
      <trkpt lat="43.68917" lon="6.97397">
        <ele>490.9</ele>
        <time>2009-06-21T14:51:41Z</time>
      </trkpt>
      <trkpt lat="43.68892" lon="6.97391">
        <ele>488</ele>
        <time>2009-06-21T14:51:43Z</time>
      </trkpt>
      <trkpt lat="43.68866" lon="6.97388">
        <ele>485.6</ele>
        <time>2009-06-21T14:51:45Z</time>
      </trkpt>
      <trkpt lat="43.6884" lon="6.97388">
        <ele>484.2</ele>
        <time>2009-06-21T14:51:47Z</time>
      </trkpt>
      <trkpt lat="43.68813" lon="6.97394">
        <ele>480.8</ele>
        <time>2009-06-21T14:51:49Z</time>
      </trkpt>
      <trkpt lat="43.6879" lon="6.97408">
        <ele>478.9</ele>
        <time>2009-06-21T14:51:51Z</time>
      </trkpt>
      <trkpt lat="43.68769" lon="6.9743">
        <ele>476.5</ele>
        <time>2009-06-21T14:51:53Z</time>
      </trkpt>
      <trkpt lat="43.6875" lon="6.97457">
        <ele>475.5</ele>
        <time>2009-06-21T14:51:55Z</time>
      </trkpt>
      <trkpt lat="43.68733" lon="6.97485">
        <ele>472.6</ele>
        <time>2009-06-21T14:51:57Z</time>
      </trkpt>
      <trkpt lat="43.68712" lon="6.97505">
        <ele>468.3</ele>
        <time>2009-06-21T14:51:59Z</time>
      </trkpt>
      <trkpt lat="43.68688" lon="6.97511">
        <ele>465.4</ele>
        <time>2009-06-21T14:52:01Z</time>
      </trkpt>
      <trkpt lat="43.68664" lon="6.97503">
        <ele>462.1</ele>
        <time>2009-06-21T14:52:03Z</time>
      </trkpt>
      <trkpt lat="43.68638" lon="6.97497">
        <ele>460.1</ele>
        <time>2009-06-21T14:52:05Z</time>
      </trkpt>
      <trkpt lat="43.68611" lon="6.97495">
        <ele>459.6</ele>
        <time>2009-06-21T14:52:07Z</time>
      </trkpt>
      <trkpt lat="43.68586" lon="6.97489">
        <ele>457.7</ele>
        <time>2009-06-21T14:52:09Z</time>
      </trkpt>
      <trkpt lat="43.68563" lon="6.97476">
        <ele>455.3</ele>
        <time>2009-06-21T14:52:11Z</time>
      </trkpt>
      <trkpt lat="43.6854" lon="6.97463">
        <ele>452.9</ele>
        <time>2009-06-21T14:52:13Z</time>
      </trkpt>
      <trkpt lat="43.68516" lon="6.97469">
        <ele>452.4</ele>
        <time>2009-06-21T14:52:15Z</time>
      </trkpt>
      <trkpt lat="43.68494" lon="6.97477">
        <ele>449.1</ele>
        <time>2009-06-21T14:52:17Z</time>
      </trkpt>
      <trkpt lat="43.68471" lon="6.9747">
        <ele>448.1</ele>
        <time>2009-06-21T14:52:19Z</time>
      </trkpt>
      <trkpt lat="43.6845" lon="6.97453">
        <ele>446.2</ele>
        <time>2009-06-21T14:52:21Z</time>
      </trkpt>
      <trkpt lat="43.68429" lon="6.97437">
        <ele>444.3</ele>
        <time>2009-06-21T14:52:23Z</time>
      </trkpt>
      <trkpt lat="43.68406" lon="6.97423">
        <ele>443.3</ele>
        <time>2009-06-21T14:52:25Z</time>
      </trkpt>
      <trkpt lat="43.68387" lon="6.97402">
        <ele>441.4</ele>
        <time>2009-06-21T14:52:27Z</time>
      </trkpt>
      <trkpt lat="43.68373" lon="6.97375">
        <ele>439.5</ele>
        <time>2009-06-21T14:52:29Z</time>
      </trkpt>
      <trkpt lat="43.68363" lon="6.97345">
        <ele>438.5</ele>
        <time>2009-06-21T14:52:31Z</time>
      </trkpt>
      <trkpt lat="43.68349" lon="6.97318">
        <ele>437.1</ele>
        <time>2009-06-21T14:52:33Z</time>
      </trkpt>
      <trkpt lat="43.68332" lon="6.97294">
        <ele>434.7</ele>
        <time>2009-06-21T14:52:35Z</time>
      </trkpt>
      <trkpt lat="43.6831" lon="6.97276">
        <ele>432.7</ele>
        <time>2009-06-21T14:52:37Z</time>
      </trkpt>
      <trkpt lat="43.68288" lon="6.97258">
        <ele>429.8</ele>
        <time>2009-06-21T14:52:39Z</time>
      </trkpt>
      <trkpt lat="43.68267" lon="6.97238">
        <ele>427.9</ele>
        <time>2009-06-21T14:52:41Z</time>
      </trkpt>
      <trkpt lat="43.68249" lon="6.97214">
        <ele>425.5</ele>
        <time>2009-06-21T14:52:43Z</time>
      </trkpt>
      <trkpt lat="43.68239" lon="6.97181">
        <ele>423.6</ele>
        <time>2009-06-21T14:52:45Z</time>
      </trkpt>
      <trkpt lat="43.68231" lon="6.97148">
        <ele>422.2</ele>
        <time>2009-06-21T14:52:47Z</time>
      </trkpt>
      <trkpt lat="43.6822" lon="6.97117">
        <ele>420.2</ele>
        <time>2009-06-21T14:52:49Z</time>
      </trkpt>
      <trkpt lat="43.682" lon="6.97102">
        <ele>417.8</ele>
        <time>2009-06-21T14:52:51Z</time>
      </trkpt>
      <trkpt lat="43.68175" lon="6.97107">
        <ele>417.8</ele>
        <time>2009-06-21T14:52:53Z</time>
      </trkpt>
      <trkpt lat="43.68153" lon="6.97124">
        <ele>415.9</ele>
        <time>2009-06-21T14:52:55Z</time>
      </trkpt>
      <trkpt lat="43.68132" lon="6.97144">
        <ele>414</ele>
        <time>2009-06-21T14:52:57Z</time>
      </trkpt>
      <trkpt lat="43.68111" lon="6.97163">
        <ele>413</ele>
        <time>2009-06-21T14:52:59Z</time>
      </trkpt>
      <trkpt lat="43.68093" lon="6.97173">
        <ele>412.1</ele>
        <time>2009-06-21T14:53:01Z</time>
      </trkpt>
      <trkpt lat="43.68076" lon="6.97172">
        <ele>411.6</ele>
        <time>2009-06-21T14:53:04Z</time>
      </trkpt>
      <trkpt lat="43.68063" lon="6.97154">
        <ele>411.6</ele>
        <time>2009-06-21T14:53:09Z</time>
      </trkpt>
      <trkpt lat="43.68048" lon="6.97139">
        <ele>406.8</ele>
        <time>2009-06-21T14:53:15Z</time>
      </trkpt>
      <trkpt lat="43.68026" lon="6.97147">
        <ele>407.3</ele>
        <time>2009-06-21T14:53:19Z</time>
      </trkpt>
      <trkpt lat="43.68009" lon="6.97169">
        <ele>405.8</ele>
        <time>2009-06-21T14:53:22Z</time>
      </trkpt>
      <trkpt lat="43.67991" lon="6.97193">
        <ele>404.9</ele>
        <time>2009-06-21T14:53:25Z</time>
      </trkpt>
      <trkpt lat="43.67978" lon="6.97212">
        <ele>404.4</ele>
        <time>2009-06-21T14:53:27Z</time>
      </trkpt>
      <trkpt lat="43.67964" lon="6.97231">
        <ele>405.3</ele>
        <time>2009-06-21T14:53:29Z</time>
      </trkpt>
      <trkpt lat="43.67952" lon="6.97249">
        <ele>404.9</ele>
        <time>2009-06-21T14:53:31Z</time>
      </trkpt>
      <trkpt lat="43.67937" lon="6.97271">
        <ele>404.4</ele>
        <time>2009-06-21T14:53:34Z</time>
      </trkpt>
      <trkpt lat="43.67924" lon="6.97289">
        <ele>403.4</ele>
        <time>2009-06-21T14:53:39Z</time>
      </trkpt>
      <trkpt lat="43.67902" lon="6.97296">
        <ele>402.4</ele>
        <time>2009-06-21T14:53:43Z</time>
      </trkpt>
      <trkpt lat="43.67888" lon="6.97309">
        <ele>401.5</ele>
        <time>2009-06-21T14:53:46Z</time>
      </trkpt>
      <trkpt lat="43.67873" lon="6.97325">
        <ele>401</ele>
        <time>2009-06-21T14:53:49Z</time>
      </trkpt>
      <trkpt lat="43.67859" lon="6.97344">
        <ele>401</ele>
        <time>2009-06-21T14:53:52Z</time>
      </trkpt>
      <trkpt lat="43.67853" lon="6.97371">
        <ele>400.5</ele>
        <time>2009-06-21T14:53:55Z</time>
      </trkpt>
      <trkpt lat="43.67842" lon="6.97397">
        <ele>400</ele>
        <time>2009-06-21T14:53:58Z</time>
      </trkpt>
      <trkpt lat="43.67826" lon="6.97415">
        <ele>401</ele>
        <time>2009-06-21T14:54:01Z</time>
      </trkpt>
      <trkpt lat="43.67807" lon="6.97425">
        <ele>401</ele>
        <time>2009-06-21T14:54:04Z</time>
      </trkpt>
      <trkpt lat="43.67787" lon="6.97436">
        <ele>398.6</ele>
        <time>2009-06-21T14:54:07Z</time>
      </trkpt>
      <trkpt lat="43.67766" lon="6.97444">
        <ele>399.1</ele>
        <time>2009-06-21T14:54:10Z</time>
      </trkpt>
      <trkpt lat="43.67744" lon="6.97447">
        <ele>398.1</ele>
        <time>2009-06-21T14:54:13Z</time>
      </trkpt>
      <trkpt lat="43.67722" lon="6.97461">
        <ele>397.2</ele>
        <time>2009-06-21T14:54:16Z</time>
      </trkpt>
      <trkpt lat="43.67698" lon="6.97473">
        <ele>396.2</ele>
        <time>2009-06-21T14:54:19Z</time>
      </trkpt>
      <trkpt lat="43.67673" lon="6.97486">
        <ele>396.7</ele>
        <time>2009-06-21T14:54:22Z</time>
      </trkpt>
      <trkpt lat="43.6765" lon="6.975">
        <ele>396.7</ele>
        <time>2009-06-21T14:54:25Z</time>
      </trkpt>
      <trkpt lat="43.67632" lon="6.97521">
        <ele>395.2</ele>
        <time>2009-06-21T14:54:28Z</time>
      </trkpt>
      <trkpt lat="43.6762" lon="6.97547">
        <ele>394.3</ele>
        <time>2009-06-21T14:54:31Z</time>
      </trkpt>
      <trkpt lat="43.6761" lon="6.97575">
        <ele>394.8</ele>
        <time>2009-06-21T14:54:34Z</time>
      </trkpt>
      <trkpt lat="43.676" lon="6.97605">
        <ele>392.8</ele>
        <time>2009-06-21T14:54:37Z</time>
      </trkpt>
      <trkpt lat="43.67587" lon="6.97629">
        <ele>391.9</ele>
        <time>2009-06-21T14:54:40Z</time>
      </trkpt>
      <trkpt lat="43.67573" lon="6.97651">
        <ele>390.4</ele>
        <time>2009-06-21T14:54:43Z</time>
      </trkpt>
      <trkpt lat="43.67554" lon="6.9767">
        <ele>388</ele>
        <time>2009-06-21T14:54:46Z</time>
      </trkpt>
      <trkpt lat="43.67535" lon="6.97697">
        <ele>385.6</ele>
        <time>2009-06-21T14:54:49Z</time>
      </trkpt>
      <trkpt lat="43.67525" lon="6.97719">
        <ele>383.7</ele>
        <time>2009-06-21T14:54:51Z</time>
      </trkpt>
      <trkpt lat="43.67511" lon="6.9774">
        <ele>380.3</ele>
        <time>2009-06-21T14:54:53Z</time>
      </trkpt>
      <trkpt lat="43.67494" lon="6.97756">
        <ele>378.9</ele>
        <time>2009-06-21T14:54:55Z</time>
      </trkpt>
      <trkpt lat="43.67475" lon="6.97771">
        <ele>377.9</ele>
        <time>2009-06-21T14:54:57Z</time>
      </trkpt>
      <trkpt lat="43.67458" lon="6.97786">
        <ele>376</ele>
        <time>2009-06-21T14:54:59Z</time>
      </trkpt>
      <trkpt lat="43.67443" lon="6.97816">
        <ele>377.9</ele>
        <time>2009-06-21T14:55:02Z</time>
      </trkpt>
      <trkpt lat="43.67461" lon="6.97836">
        <ele>377.9</ele>
        <time>2009-06-21T14:55:05Z</time>
      </trkpt>
      <trkpt lat="43.67484" lon="6.97813">
        <ele>376</ele>
        <time>2009-06-21T14:55:08Z</time>
      </trkpt>
      <trkpt lat="43.67501" lon="6.97795">
        <ele>374.6</ele>
        <time>2009-06-21T14:55:10Z</time>
      </trkpt>
      <trkpt lat="43.67519" lon="6.97782">
        <ele>373.1</ele>
        <time>2009-06-21T14:55:12Z</time>
      </trkpt>
      <trkpt lat="43.6754" lon="6.97768">
        <ele>370.7</ele>
        <time>2009-06-21T14:55:14Z</time>
      </trkpt>
      <trkpt lat="43.67562" lon="6.97753">
        <ele>368.3</ele>
        <time>2009-06-21T14:55:16Z</time>
      </trkpt>
      <trkpt lat="43.67585" lon="6.97737">
        <ele>365.9</ele>
        <time>2009-06-21T14:55:18Z</time>
      </trkpt>
      <trkpt lat="43.67605" lon="6.97719">
        <ele>363.5</ele>
        <time>2009-06-21T14:55:20Z</time>
      </trkpt>
      <trkpt lat="43.67624" lon="6.97714">
        <ele>361.6</ele>
        <time>2009-06-21T14:55:22Z</time>
      </trkpt>
      <trkpt lat="43.67636" lon="6.97741">
        <ele>360.6</ele>
        <time>2009-06-21T14:55:25Z</time>
      </trkpt>
      <trkpt lat="43.67617" lon="6.97769">
        <ele>356.3</ele>
        <time>2009-06-21T14:55:28Z</time>
      </trkpt>
      <trkpt lat="43.67602" lon="6.97789">
        <ele>355.8</ele>
        <time>2009-06-21T14:55:30Z</time>
      </trkpt>
      <trkpt lat="43.67587" lon="6.97813">
        <ele>353.4</ele>
        <time>2009-06-21T14:55:32Z</time>
      </trkpt>
      <trkpt lat="43.67573" lon="6.97841">
        <ele>350.5</ele>
        <time>2009-06-21T14:55:34Z</time>
      </trkpt>
      <trkpt lat="43.6756" lon="6.97869">
        <ele>347.2</ele>
        <time>2009-06-21T14:55:36Z</time>
      </trkpt>
      <trkpt lat="43.67545" lon="6.97895">
        <ele>344.3</ele>
        <time>2009-06-21T14:55:38Z</time>
      </trkpt>
      <trkpt lat="43.67527" lon="6.97917">
        <ele>342.4</ele>
        <time>2009-06-21T14:55:40Z</time>
      </trkpt>
      <trkpt lat="43.67507" lon="6.97938">
        <ele>340.4</ele>
        <time>2009-06-21T14:55:42Z</time>
      </trkpt>
      <trkpt lat="43.67486" lon="6.9796">
        <ele>338.5</ele>
        <time>2009-06-21T14:55:44Z</time>
      </trkpt>
      <trkpt lat="43.67464" lon="6.9798">
        <ele>334.7</ele>
        <time>2009-06-21T14:55:46Z</time>
      </trkpt>
      <trkpt lat="43.67438" lon="6.98003">
        <ele>333.7</ele>
        <time>2009-06-21T14:55:48Z</time>
      </trkpt>
      <trkpt lat="43.67413" lon="6.98028">
        <ele>331.3</ele>
        <time>2009-06-21T14:55:50Z</time>
      </trkpt>
      <trkpt lat="43.67388" lon="6.98054">
        <ele>328.9</ele>
        <time>2009-06-21T14:55:52Z</time>
      </trkpt>
      <trkpt lat="43.67364" lon="6.98082">
        <ele>326.5</ele>
        <time>2009-06-21T14:55:54Z</time>
      </trkpt>
      <trkpt lat="43.67338" lon="6.98108">
        <ele>323.6</ele>
        <time>2009-06-21T14:55:56Z</time>
      </trkpt>
      <trkpt lat="43.67312" lon="6.98134">
        <ele>320.7</ele>
        <time>2009-06-21T14:55:58Z</time>
      </trkpt>
      <trkpt lat="43.67287" lon="6.98155">
        <ele>318.8</ele>
        <time>2009-06-21T14:56:00Z</time>
      </trkpt>
      <trkpt lat="43.67263" lon="6.98176">
        <ele>316.4</ele>
        <time>2009-06-21T14:56:02Z</time>
      </trkpt>
      <trkpt lat="43.67238" lon="6.98198">
        <ele>314</ele>
        <time>2009-06-21T14:56:04Z</time>
      </trkpt>
      <trkpt lat="43.67218" lon="6.98222">
        <ele>308.2</ele>
        <time>2009-06-21T14:56:06Z</time>
      </trkpt>
      <trkpt lat="43.67195" lon="6.98252">
        <ele>303</ele>
        <time>2009-06-21T14:56:08Z</time>
      </trkpt>
      <trkpt lat="43.6717" lon="6.98278">
        <ele>299.1</ele>
        <time>2009-06-21T14:56:10Z</time>
      </trkpt>
      <trkpt lat="43.67141" lon="6.98298">
        <ele>294.3</ele>
        <time>2009-06-21T14:56:12Z</time>
      </trkpt>
      <trkpt lat="43.67112" lon="6.98317">
        <ele>289</ele>
        <time>2009-06-21T14:56:14Z</time>
      </trkpt>
      <trkpt lat="43.67083" lon="6.98335">
        <ele>283.2</ele>
        <time>2009-06-21T14:56:16Z</time>
      </trkpt>
      <trkpt lat="43.67054" lon="6.98353">
        <ele>278.4</ele>
        <time>2009-06-21T14:56:18Z</time>
      </trkpt>
      <trkpt lat="43.67025" lon="6.9837">
        <ele>273.6</ele>
        <time>2009-06-21T14:56:20Z</time>
      </trkpt>
      <trkpt lat="43.66997" lon="6.98389">
        <ele>271.2</ele>
        <time>2009-06-21T14:56:22Z</time>
      </trkpt>
      <trkpt lat="43.66973" lon="6.98412">
        <ele>269.8</ele>
        <time>2009-06-21T14:56:24Z</time>
      </trkpt>
      <trkpt lat="43.66952" lon="6.9843">
        <ele>268.3</ele>
        <time>2009-06-21T14:56:26Z</time>
      </trkpt>
      <trkpt lat="43.6693" lon="6.98438">
        <ele>266.9</ele>
        <time>2009-06-21T14:56:28Z</time>
      </trkpt>
      <trkpt lat="43.66909" lon="6.98443">
        <ele>265.5</ele>
        <time>2009-06-21T14:56:30Z</time>
      </trkpt>
      <trkpt lat="43.66888" lon="6.98447">
        <ele>264.5</ele>
        <time>2009-06-21T14:56:32Z</time>
      </trkpt>
      <trkpt lat="43.66868" lon="6.9845">
        <ele>263.5</ele>
        <time>2009-06-21T14:56:34Z</time>
      </trkpt>
      <trkpt lat="43.6685" lon="6.98453">
        <ele>263.1</ele>
        <time>2009-06-21T14:56:36Z</time>
      </trkpt>
      <trkpt lat="43.66831" lon="6.98453">
        <ele>261.1</ele>
        <time>2009-06-21T14:56:39Z</time>
      </trkpt>
      <trkpt lat="43.66814" lon="6.98439">
        <ele>260.2</ele>
        <time>2009-06-21T14:56:47Z</time>
      </trkpt>
      <trkpt lat="43.66794" lon="6.98444">
        <ele>256.8</ele>
        <time>2009-06-21T14:56:51Z</time>
      </trkpt>
      <trkpt lat="43.66777" lon="6.98455">
        <ele>255.4</ele>
        <time>2009-06-21T14:56:54Z</time>
      </trkpt>
      <trkpt lat="43.66756" lon="6.98455">
        <ele>253.9</ele>
        <time>2009-06-21T14:56:57Z</time>
      </trkpt>
      <trkpt lat="43.66734" lon="6.98455">
        <ele>252.5</ele>
        <time>2009-06-21T14:57:00Z</time>
      </trkpt>
      <trkpt lat="43.66712" lon="6.98456">
        <ele>251.5</ele>
        <time>2009-06-21T14:57:03Z</time>
      </trkpt>
      <trkpt lat="43.66691" lon="6.9846">
        <ele>250.6</ele>
        <time>2009-06-21T14:57:06Z</time>
      </trkpt>
      <trkpt lat="43.6667" lon="6.9847">
        <ele>250.6</ele>
        <time>2009-06-21T14:57:09Z</time>
      </trkpt>
      <trkpt lat="43.66651" lon="6.98482">
        <ele>249.6</ele>
        <time>2009-06-21T14:57:12Z</time>
      </trkpt>
      <trkpt lat="43.66629" lon="6.98495">
        <ele>249.1</ele>
        <time>2009-06-21T14:57:15Z</time>
      </trkpt>
      <trkpt lat="43.66608" lon="6.98506">
        <ele>248.6</ele>
        <time>2009-06-21T14:57:18Z</time>
      </trkpt>
      <trkpt lat="43.66588" lon="6.98518">
        <ele>248.6</ele>
        <time>2009-06-21T14:57:21Z</time>
      </trkpt>
      <trkpt lat="43.66568" lon="6.98529">
        <ele>248.6</ele>
        <time>2009-06-21T14:57:24Z</time>
      </trkpt>
      <trkpt lat="43.66546" lon="6.98541">
        <ele>247.7</ele>
        <time>2009-06-21T14:57:27Z</time>
      </trkpt>
      <trkpt lat="43.66524" lon="6.98557">
        <ele>247.7</ele>
        <time>2009-06-21T14:57:30Z</time>
      </trkpt>
      <trkpt lat="43.66505" lon="6.98573">
        <ele>245.8</ele>
        <time>2009-06-21T14:57:33Z</time>
      </trkpt>
      <trkpt lat="43.66485" lon="6.98589">
        <ele>244.3</ele>
        <time>2009-06-21T14:57:36Z</time>
      </trkpt>
      <trkpt lat="43.66463" lon="6.98602">
        <ele>243.8</ele>
        <time>2009-06-21T14:57:39Z</time>
      </trkpt>
      <trkpt lat="43.66441" lon="6.98613">
        <ele>244.3</ele>
        <time>2009-06-21T14:57:42Z</time>
      </trkpt>
      <trkpt lat="43.66419" lon="6.98623">
        <ele>244.8</ele>
        <time>2009-06-21T14:57:45Z</time>
      </trkpt>
      <trkpt lat="43.66397" lon="6.98631">
        <ele>243.8</ele>
        <time>2009-06-21T14:57:48Z</time>
      </trkpt>
      <trkpt lat="43.66375" lon="6.98639">
        <ele>243.4</ele>
        <time>2009-06-21T14:57:51Z</time>
      </trkpt>
      <trkpt lat="43.66353" lon="6.98648">
        <ele>241.9</ele>
        <time>2009-06-21T14:57:54Z</time>
      </trkpt>
      <trkpt lat="43.66333" lon="6.98658">
        <ele>241.9</ele>
        <time>2009-06-21T14:57:57Z</time>
      </trkpt>
      <trkpt lat="43.66314" lon="6.98672">
        <ele>241.4</ele>
        <time>2009-06-21T14:58:00Z</time>
      </trkpt>
      <trkpt lat="43.66294" lon="6.98687">
        <ele>241.4</ele>
        <time>2009-06-21T14:58:03Z</time>
      </trkpt>
      <trkpt lat="43.66275" lon="6.987">
        <ele>241.9</ele>
        <time>2009-06-21T14:58:06Z</time>
      </trkpt>
      <trkpt lat="43.66256" lon="6.98711">
        <ele>241.9</ele>
        <time>2009-06-21T14:58:09Z</time>
      </trkpt>
      <trkpt lat="43.66235" lon="6.98719">
        <ele>242.4</ele>
        <time>2009-06-21T14:58:12Z</time>
      </trkpt>
      <trkpt lat="43.66215" lon="6.98724">
        <ele>241.4</ele>
        <time>2009-06-21T14:58:15Z</time>
      </trkpt>
      <trkpt lat="43.66195" lon="6.98731">
        <ele>241.4</ele>
        <time>2009-06-21T14:58:18Z</time>
      </trkpt>
      <trkpt lat="43.66177" lon="6.98737">
        <ele>240.9</ele>
        <time>2009-06-21T14:58:21Z</time>
      </trkpt>
      <trkpt lat="43.66159" lon="6.98743">
        <ele>241.9</ele>
        <time>2009-06-21T14:58:24Z</time>
      </trkpt>
      <trkpt lat="43.66142" lon="6.98753">
        <ele>243.4</ele>
        <time>2009-06-21T14:58:27Z</time>
      </trkpt>
      <trkpt lat="43.66121" lon="6.98764">
        <ele>243.4</ele>
        <time>2009-06-21T14:58:31Z</time>
      </trkpt>
      <trkpt lat="43.66107" lon="6.98789">
        <ele>241.9</ele>
        <time>2009-06-21T14:58:35Z</time>
      </trkpt>
      <trkpt lat="43.66097" lon="6.98819">
        <ele>241.4</ele>
        <time>2009-06-21T14:58:39Z</time>
      </trkpt>
      <trkpt lat="43.66092" lon="6.98843">
        <ele>240.9</ele>
        <time>2009-06-21T14:58:42Z</time>
      </trkpt>
      <trkpt lat="43.66086" lon="6.98869">
        <ele>240.5</ele>
        <time>2009-06-21T14:58:45Z</time>
      </trkpt>
      <trkpt lat="43.66081" lon="6.98895">
        <ele>240.5</ele>
        <time>2009-06-21T14:58:48Z</time>
      </trkpt>
      <trkpt lat="43.66075" lon="6.98921">
        <ele>240</ele>
        <time>2009-06-21T14:58:51Z</time>
      </trkpt>
      <trkpt lat="43.6607" lon="6.98947">
        <ele>239.5</ele>
        <time>2009-06-21T14:58:54Z</time>
      </trkpt>
      <trkpt lat="43.66064" lon="6.98972">
        <ele>239.5</ele>
        <time>2009-06-21T14:58:57Z</time>
      </trkpt>
      <trkpt lat="43.66057" lon="6.98997">
        <ele>239.5</ele>
        <time>2009-06-21T14:59:00Z</time>
      </trkpt>
      <trkpt lat="43.66047" lon="6.99021">
        <ele>239</ele>
        <time>2009-06-21T14:59:03Z</time>
      </trkpt>
      <trkpt lat="43.66038" lon="6.99045">
        <ele>237.6</ele>
        <time>2009-06-21T14:59:06Z</time>
      </trkpt>
      <trkpt lat="43.66029" lon="6.9907">
        <ele>236.1</ele>
        <time>2009-06-21T14:59:09Z</time>
      </trkpt>
      <trkpt lat="43.66018" lon="6.99096">
        <ele>237.1</ele>
        <time>2009-06-21T14:59:12Z</time>
      </trkpt>
      <trkpt lat="43.66006" lon="6.99119">
        <ele>236.1</ele>
        <time>2009-06-21T14:59:15Z</time>
      </trkpt>
      <trkpt lat="43.65992" lon="6.9914">
        <ele>236.6</ele>
        <time>2009-06-21T14:59:18Z</time>
      </trkpt>
      <trkpt lat="43.65978" lon="6.99159">
        <ele>236.6</ele>
        <time>2009-06-21T14:59:21Z</time>
      </trkpt>
      <trkpt lat="43.65963" lon="6.99179">
        <ele>235.7</ele>
        <time>2009-06-21T14:59:24Z</time>
      </trkpt>
      <trkpt lat="43.65947" lon="6.992">
        <ele>235.7</ele>
        <time>2009-06-21T14:59:27Z</time>
      </trkpt>
      <trkpt lat="43.65932" lon="6.99221">
        <ele>235.7</ele>
        <time>2009-06-21T14:59:30Z</time>
      </trkpt>
      <trkpt lat="43.65916" lon="6.99242">
        <ele>236.6</ele>
        <time>2009-06-21T14:59:33Z</time>
      </trkpt>
      <trkpt lat="43.659" lon="6.99263">
        <ele>237.6</ele>
        <time>2009-06-21T14:59:36Z</time>
      </trkpt>
      <trkpt lat="43.65886" lon="6.99284">
        <ele>238.5</ele>
        <time>2009-06-21T14:59:39Z</time>
      </trkpt>
      <trkpt lat="43.65873" lon="6.99308">
        <ele>237.6</ele>
        <time>2009-06-21T14:59:42Z</time>
      </trkpt>
      <trkpt lat="43.65863" lon="6.99333">
        <ele>237.6</ele>
        <time>2009-06-21T14:59:45Z</time>
      </trkpt>
      <trkpt lat="43.65854" lon="6.99359">
        <ele>235.2</ele>
        <time>2009-06-21T14:59:48Z</time>
      </trkpt>
      <trkpt lat="43.65847" lon="6.99388">
        <ele>235.2</ele>
        <time>2009-06-21T14:59:51Z</time>
      </trkpt>
      <trkpt lat="43.65841" lon="6.99417">
        <ele>235.2</ele>
        <time>2009-06-21T14:59:54Z</time>
      </trkpt>
      <trkpt lat="43.65835" lon="6.99447">
        <ele>235.2</ele>
        <time>2009-06-21T14:59:57Z</time>
      </trkpt>
      <trkpt lat="43.6583" lon="6.99476">
        <ele>235.2</ele>
        <time>2009-06-21T15:00:00Z</time>
      </trkpt>
      <trkpt lat="43.65823" lon="6.99503">
        <ele>234.2</ele>
        <time>2009-06-21T15:00:03Z</time>
      </trkpt>
      <trkpt lat="43.65815" lon="6.99528">
        <ele>234.2</ele>
        <time>2009-06-21T15:00:06Z</time>
      </trkpt>
      <trkpt lat="43.65805" lon="6.99549">
        <ele>235.7</ele>
        <time>2009-06-21T15:00:09Z</time>
      </trkpt>
      <trkpt lat="43.65807" lon="6.99574">
        <ele>235.2</ele>
        <time>2009-06-21T15:00:12Z</time>
      </trkpt>
      <trkpt lat="43.65802" lon="6.99605">
        <ele>235.2</ele>
        <time>2009-06-21T15:00:16Z</time>
      </trkpt>
      <trkpt lat="43.65793" lon="6.99625">
        <ele>238.1</ele>
        <time>2009-06-21T15:00:21Z</time>
      </trkpt>
      <trkpt lat="43.65782" lon="6.99646">
        <ele>240.9</ele>
        <time>2009-06-21T15:00:33Z</time>
      </trkpt>
      <trkpt lat="43.65772" lon="6.99671">
        <ele>242.9</ele>
        <time>2009-06-21T15:00:44Z</time>
      </trkpt>
      <trkpt lat="43.65761" lon="6.99693">
        <ele>245.8</ele>
        <time>2009-06-21T15:00:53Z</time>
      </trkpt>
      <trkpt lat="43.6575" lon="6.99716">
        <ele>247.7</ele>
        <time>2009-06-21T15:01:02Z</time>
      </trkpt>
      <trkpt lat="43.65741" lon="6.99738">
        <ele>249.1</ele>
        <time>2009-06-21T15:01:10Z</time>
      </trkpt>
      <trkpt lat="43.65731" lon="6.99764">
        <ele>250.6</ele>
        <time>2009-06-21T15:01:20Z</time>
      </trkpt>
      <trkpt lat="43.65718" lon="6.9979">
        <ele>253.4</ele>
        <time>2009-06-21T15:01:29Z</time>
      </trkpt>
      <trkpt lat="43.65707" lon="6.99812">
        <ele>255.4</ele>
        <time>2009-06-21T15:01:37Z</time>
      </trkpt>
      <trkpt lat="43.65694" lon="6.99836">
        <ele>258.7</ele>
        <time>2009-06-21T15:01:47Z</time>
      </trkpt>
      <trkpt lat="43.65684" lon="6.99859">
        <ele>261.6</ele>
        <time>2009-06-21T15:01:56Z</time>
      </trkpt>
      <trkpt lat="43.65673" lon="6.99882">
        <ele>263.1</ele>
        <time>2009-06-21T15:02:05Z</time>
      </trkpt>
      <trkpt lat="43.65658" lon="6.99918">
        <ele>261.6</ele>
        <time>2009-06-21T15:02:18Z</time>
      </trkpt>
      <trkpt lat="43.65653" lon="6.99949">
        <ele>265.9</ele>
        <time>2009-06-21T15:02:26Z</time>
      </trkpt>
      <trkpt lat="43.65649" lon="6.99976">
        <ele>266.4</ele>
        <time>2009-06-21T15:02:33Z</time>
      </trkpt>
      <trkpt lat="43.65643" lon="7.00005">
        <ele>267.4</ele>
        <time>2009-06-21T15:02:40Z</time>
      </trkpt>
      <trkpt lat="43.6563" lon="7.0003">
        <ele>267.4</ele>
        <time>2009-06-21T15:02:46Z</time>
      </trkpt>
      <trkpt lat="43.65616" lon="7.00054">
        <ele>267.9</ele>
        <time>2009-06-21T15:02:52Z</time>
      </trkpt>
      <trkpt lat="43.65597" lon="7.00085">
        <ele>267.9</ele>
        <time>2009-06-21T15:03:01Z</time>
      </trkpt>
      <trkpt lat="43.65582" lon="7.00118">
        <ele>269.3</ele>
        <time>2009-06-21T15:03:12Z</time>
      </trkpt>
      <trkpt lat="43.65562" lon="7.00153">
        <ele>269.8</ele>
        <time>2009-06-21T15:03:22Z</time>
      </trkpt>
      <trkpt lat="43.65544" lon="7.00176">
        <ele>271.2</ele>
        <time>2009-06-21T15:03:31Z</time>
      </trkpt>
      <trkpt lat="43.65523" lon="7.00189">
        <ele>274.1</ele>
        <time>2009-06-21T15:03:38Z</time>
      </trkpt>
      <trkpt lat="43.65501" lon="7.00196">
        <ele>272.2</ele>
        <time>2009-06-21T15:03:44Z</time>
      </trkpt>
      <trkpt lat="43.65478" lon="7.00199">
        <ele>272.2</ele>
        <time>2009-06-21T15:03:49Z</time>
      </trkpt>
      <trkpt lat="43.65459" lon="7.002">
        <ele>272.7</ele>
        <time>2009-06-21T15:03:53Z</time>
      </trkpt>
      <trkpt lat="43.6544" lon="7.00204">
        <ele>273.6</ele>
        <time>2009-06-21T15:03:57Z</time>
      </trkpt>
      <trkpt lat="43.65422" lon="7.00214">
        <ele>274.6</ele>
        <time>2009-06-21T15:04:01Z</time>
      </trkpt>
      <trkpt lat="43.65406" lon="7.00229">
        <ele>274.6</ele>
        <time>2009-06-21T15:04:05Z</time>
      </trkpt>
      <trkpt lat="43.65389" lon="7.00244">
        <ele>275.6</ele>
        <time>2009-06-21T15:04:09Z</time>
      </trkpt>
      <trkpt lat="43.65371" lon="7.0026">
        <ele>275.6</ele>
        <time>2009-06-21T15:04:14Z</time>
      </trkpt>
      <trkpt lat="43.65353" lon="7.00274">
        <ele>277</ele>
        <time>2009-06-21T15:04:19Z</time>
      </trkpt>
      <trkpt lat="43.65334" lon="7.0029">
        <ele>276.5</ele>
        <time>2009-06-21T15:04:24Z</time>
      </trkpt>
      <trkpt lat="43.65314" lon="7.00305">
        <ele>278</ele>
        <time>2009-06-21T15:04:29Z</time>
      </trkpt>
      <trkpt lat="43.65292" lon="7.00323">
        <ele>278</ele>
        <time>2009-06-21T15:04:34Z</time>
      </trkpt>
      <trkpt lat="43.65274" lon="7.00337">
        <ele>278.4</ele>
        <time>2009-06-21T15:04:39Z</time>
      </trkpt>
      <trkpt lat="43.65258" lon="7.00349">
        <ele>277.5</ele>
        <time>2009-06-21T15:04:43Z</time>
      </trkpt>
      <trkpt lat="43.65236" lon="7.00364">
        <ele>273.6</ele>
        <time>2009-06-21T15:04:47Z</time>
      </trkpt>
      <trkpt lat="43.65215" lon="7.00379">
        <ele>271.7</ele>
        <time>2009-06-21T15:04:51Z</time>
      </trkpt>
      <trkpt lat="43.65197" lon="7.0039">
        <ele>270.7</ele>
        <time>2009-06-21T15:04:54Z</time>
      </trkpt>
      <trkpt lat="43.65178" lon="7.00399">
        <ele>271.2</ele>
        <time>2009-06-21T15:04:57Z</time>
      </trkpt>
      <trkpt lat="43.6516" lon="7.00409">
        <ele>269.8</ele>
        <time>2009-06-21T15:05:00Z</time>
      </trkpt>
      <trkpt lat="43.6514" lon="7.00418">
        <ele>267.9</ele>
        <time>2009-06-21T15:05:03Z</time>
      </trkpt>
      <trkpt lat="43.65121" lon="7.00433">
        <ele>265.5</ele>
        <time>2009-06-21T15:05:06Z</time>
      </trkpt>
      <trkpt lat="43.65103" lon="7.00455">
        <ele>262.6</ele>
        <time>2009-06-21T15:05:09Z</time>
      </trkpt>
      <trkpt lat="43.65083" lon="7.00479">
        <ele>260.7</ele>
        <time>2009-06-21T15:05:12Z</time>
      </trkpt>
      <trkpt lat="43.65064" lon="7.00504">
        <ele>258.3</ele>
        <time>2009-06-21T15:05:15Z</time>
      </trkpt>
      <trkpt lat="43.65045" lon="7.0053">
        <ele>256.3</ele>
        <time>2009-06-21T15:05:18Z</time>
      </trkpt>
      <trkpt lat="43.65029" lon="7.00559">
        <ele>254.9</ele>
        <time>2009-06-21T15:05:21Z</time>
      </trkpt>
      <trkpt lat="43.65017" lon="7.00586">
        <ele>253.4</ele>
        <time>2009-06-21T15:05:24Z</time>
      </trkpt>
      <trkpt lat="43.65003" lon="7.00611">
        <ele>253.4</ele>
        <time>2009-06-21T15:05:27Z</time>
      </trkpt>
      <trkpt lat="43.64989" lon="7.00635">
        <ele>255.8</ele>
        <time>2009-06-21T15:05:30Z</time>
      </trkpt>
      <trkpt lat="43.64975" lon="7.00658">
        <ele>256.8</ele>
        <time>2009-06-21T15:05:33Z</time>
      </trkpt>
      <trkpt lat="43.6496" lon="7.00679">
        <ele>257.3</ele>
        <time>2009-06-21T15:05:36Z</time>
      </trkpt>
      <trkpt lat="43.64946" lon="7.00698">
        <ele>258.3</ele>
        <time>2009-06-21T15:05:39Z</time>
      </trkpt>
      <trkpt lat="43.64933" lon="7.00718">
        <ele>259.2</ele>
        <time>2009-06-21T15:05:42Z</time>
      </trkpt>
      <trkpt lat="43.64919" lon="7.00742">
        <ele>260.2</ele>
        <time>2009-06-21T15:05:46Z</time>
      </trkpt>
      <trkpt lat="43.64906" lon="7.00762">
        <ele>260.2</ele>
        <time>2009-06-21T15:05:50Z</time>
      </trkpt>
      <trkpt lat="43.64893" lon="7.00783">
        <ele>260.7</ele>
        <time>2009-06-21T15:05:54Z</time>
      </trkpt>
      <trkpt lat="43.6488" lon="7.00805">
        <ele>259.7</ele>
        <time>2009-06-21T15:05:58Z</time>
      </trkpt>
      <trkpt lat="43.64867" lon="7.00828">
        <ele>259.7</ele>
        <time>2009-06-21T15:06:02Z</time>
      </trkpt>
      <trkpt lat="43.64852" lon="7.00847">
        <ele>257.8</ele>
        <time>2009-06-21T15:06:06Z</time>
      </trkpt>
      <trkpt lat="43.64835" lon="7.00865">
        <ele>255.8</ele>
        <time>2009-06-21T15:06:10Z</time>
      </trkpt>
      <trkpt lat="43.64815" lon="7.00884">
        <ele>254.9</ele>
        <time>2009-06-21T15:06:14Z</time>
      </trkpt>
      <trkpt lat="43.64793" lon="7.00891">
        <ele>255.4</ele>
        <time>2009-06-21T15:06:18Z</time>
      </trkpt>
      <trkpt lat="43.64776" lon="7.00877">
        <ele>253.4</ele>
        <time>2009-06-21T15:06:21Z</time>
      </trkpt>
      <trkpt lat="43.64758" lon="7.00857">
        <ele>251</ele>
        <time>2009-06-21T15:06:24Z</time>
      </trkpt>
      <trkpt lat="43.64739" lon="7.00836">
        <ele>249.1</ele>
        <time>2009-06-21T15:06:27Z</time>
      </trkpt>
      <trkpt lat="43.64723" lon="7.00809">
        <ele>246.2</ele>
        <time>2009-06-21T15:06:30Z</time>
      </trkpt>
      <trkpt lat="43.64706" lon="7.00784">
        <ele>242.4</ele>
        <time>2009-06-21T15:06:33Z</time>
      </trkpt>
      <trkpt lat="43.64692" lon="7.00764">
        <ele>240.5</ele>
        <time>2009-06-21T15:06:35Z</time>
      </trkpt>
      <trkpt lat="43.64675" lon="7.00747">
        <ele>239.5</ele>
        <time>2009-06-21T15:06:37Z</time>
      </trkpt>
      <trkpt lat="43.64656" lon="7.00734">
        <ele>237.6</ele>
        <time>2009-06-21T15:06:39Z</time>
      </trkpt>
      <trkpt lat="43.64636" lon="7.00725">
        <ele>235.2</ele>
        <time>2009-06-21T15:06:41Z</time>
      </trkpt>
      <trkpt lat="43.64614" lon="7.00716">
        <ele>232.8</ele>
        <time>2009-06-21T15:06:43Z</time>
      </trkpt>
      <trkpt lat="43.64592" lon="7.00713">
        <ele>230.4</ele>
        <time>2009-06-21T15:06:45Z</time>
      </trkpt>
      <trkpt lat="43.64568" lon="7.00714">
        <ele>227.5</ele>
        <time>2009-06-21T15:06:48Z</time>
      </trkpt>
      <trkpt lat="43.64545" lon="7.00718">
        <ele>225.6</ele>
        <time>2009-06-21T15:06:52Z</time>
      </trkpt>
      <trkpt lat="43.64521" lon="7.00721">
        <ele>223.6</ele>
        <time>2009-06-21T15:06:56Z</time>
      </trkpt>
      <trkpt lat="43.64502" lon="7.00724">
        <ele>221.7</ele>
        <time>2009-06-21T15:06:59Z</time>
      </trkpt>
      <trkpt lat="43.64483" lon="7.00725">
        <ele>219.8</ele>
        <time>2009-06-21T15:07:02Z</time>
      </trkpt>
      <trkpt lat="43.64463" lon="7.00724">
        <ele>217.9</ele>
        <time>2009-06-21T15:07:05Z</time>
      </trkpt>
      <trkpt lat="43.64444" lon="7.00723">
        <ele>215.5</ele>
        <time>2009-06-21T15:07:08Z</time>
      </trkpt>
      <trkpt lat="43.64425" lon="7.00715">
        <ele>213.1</ele>
        <time>2009-06-21T15:07:11Z</time>
      </trkpt>
      <trkpt lat="43.64405" lon="7.00706">
        <ele>211.6</ele>
        <time>2009-06-21T15:07:14Z</time>
      </trkpt>
      <trkpt lat="43.64382" lon="7.00703">
        <ele>209.7</ele>
        <time>2009-06-21T15:07:17Z</time>
      </trkpt>
      <trkpt lat="43.64357" lon="7.00704">
        <ele>207.8</ele>
        <time>2009-06-21T15:07:20Z</time>
      </trkpt>
      <trkpt lat="43.64333" lon="7.00713">
        <ele>205.4</ele>
        <time>2009-06-21T15:07:23Z</time>
      </trkpt>
      <trkpt lat="43.64309" lon="7.00721">
        <ele>203</ele>
        <time>2009-06-21T15:07:26Z</time>
      </trkpt>
      <trkpt lat="43.64282" lon="7.00724">
        <ele>203</ele>
        <time>2009-06-21T15:07:29Z</time>
      </trkpt>
      <trkpt lat="43.64262" lon="7.00723">
        <ele>201.1</ele>
        <time>2009-06-21T15:07:32Z</time>
      </trkpt>
      <trkpt lat="43.64246" lon="7.00733">
        <ele>199.1</ele>
        <time>2009-06-21T15:07:45Z</time>
      </trkpt>
      <trkpt lat="43.64227" lon="7.00747">
        <ele>196.2</ele>
        <time>2009-06-21T15:07:50Z</time>
      </trkpt>
      <trkpt lat="43.6421" lon="7.00759">
        <ele>195.3</ele>
        <time>2009-06-21T15:07:53Z</time>
      </trkpt>
      <trkpt lat="43.64188" lon="7.00769">
        <ele>194.3</ele>
        <time>2009-06-21T15:07:56Z</time>
      </trkpt>
      <trkpt lat="43.64169" lon="7.00776">
        <ele>192.9</ele>
        <time>2009-06-21T15:07:59Z</time>
      </trkpt>
      <trkpt lat="43.64157" lon="7.00792">
        <ele>191.4</ele>
        <time>2009-06-21T15:08:03Z</time>
      </trkpt>
      <trkpt lat="43.64156" lon="7.00817">
        <ele>191.4</ele>
        <time>2009-06-21T15:08:11Z</time>
      </trkpt>
      <trkpt lat="43.64148" lon="7.00837">
        <ele>192.4</ele>
        <time>2009-06-21T15:08:23Z</time>
      </trkpt>
      <trkpt lat="43.64117" lon="7.00842">
        <ele>192.4</ele>
        <time>2009-06-21T15:08:36Z</time>
      </trkpt>
      <trkpt lat="43.64103" lon="7.00849">
        <ele>191</ele>
        <time>2009-06-21T15:08:45Z</time>
      </trkpt>
      <trkpt lat="43.64086" lon="7.0086">
        <ele>188.6</ele>
        <time>2009-06-21T15:08:54Z</time>
      </trkpt>
      <trkpt lat="43.64058" lon="7.00852">
        <ele>185.7</ele>
        <time>2009-06-21T15:09:13Z</time>
      </trkpt>
      <trkpt lat="43.6405" lon="7.0085">
        <ele>184.2</ele>
        <time>2009-06-21T15:09:30Z</time>
      </trkpt>
    </trkseg>
  </trk>
</gpx>